GFSNW_850_thetae_003.txt.gz
Theta_e
296 296 298 298 300 302 304 301 306 303 306 306 303 309 307 309 310 312 313 311 311 310 310 311 310 308 306 308 308 311 309 311 312 309 308 309 309 310 310 311 309 310 308 310
297 297 297 298 300 302 302 304 308 304 306 309 309 308 309 310 313 313 313 312 312 311 310 311 308 307 307 308 308 309 309 312 310 307 310 309 311 310 309 309 309 310 309 309
297 296 297 298 300 302 304 305 309 308 307 308 307 308 309 310 311 312 313 312 311 312 313 309 310 308 308 307 309 310 310 312 309 312 312 311 312 311 310 310 312 309 309 309
297 296 297 298 300 303 305 308 306 305 308 309 308 309 309 310 311 311 312 313 313 313 315 313 313 309 309 308 309 310 311 311 311 312 311 311 312 312 311 312 310 310 309 308
297 296 296 297 300 303 305 304 308 307 307 308 307 308 308 308 310 313 313 312 313 314 315 312 311 310 309 311 309 312 312 314 312 313 313 312 312 313 311 311 311 309 309 309
297 296 296 297 300 302 302 302 306 309 309 308 307 306 308 309 310 311 311 312 313 314 313 312 312 312 311 311 311 312 312 311 313 314 314 315 314 313 312 312 311 310 311 310
297 296 296 297 298 301 302 303 305 309 310 308 308 307 308 311 311 313 313 312 313 313 313 313 313 313 311 310 309 310 313 310 312 314 315 319 318 314 313 312 311 311 310 310
296 296 295 296 298 299 302 304 305 308 309 310 309 308 307 308 310 312 312 312 312 312 313 314 315 314 312 311 310 310 311 312 315 316 319 318 314 315 312 313 313 311 312 311
295 296 296 295 297 298 302 305 305 306 310 309 309 309 311 312 312 313 313 313 313 313 314 315 318 311 312 311 312 308 312 312 314 316 319 320 311 313 311 313 317 311 310 312
296 296 296 295 295 297 300 302 302 305 309 310 310 309 311 313 312 312 311 311 311 313 314 316 318 314 310 313 315 314 315 313 315 316 318 314 311 311 314 318 317 307 311 312
295 296 296 296 291 296 299 300 302 301 306 312 311 311 311 312 312 313 312 313 313 313 314 316 316 314 311 311 310 313 313 313 313 313 316 313 309 312 315 311 309 308 311 313
294 295 296 295 291 293 297 299 302 305 306 310 312 312 312 312 313 312 312 312 312 312 315 314 315 316 310 309 313 310 315 311 313 312 312 308 310 310 311 310 308 308 309 312
293 292 294 294 293 295 296 297 298 304 307 309 310 311 312 312 313 313 312 311 312 312 313 314 312 316 310 312 311 312 311 309 313 313 311 309 311 311 311 309 308 308 308 312
294 294 294 294 294 294 295 296 295 299 303 309 310 310 311 311 312 312 312 312 312 311 312 312 314 313 309 310 309 311 311 310 312 311 310 310 312 311 310 309 307 308 307 309
293 293 293 294 294 292 294 293 295 300 300 308 311 311 312 312 312 312 312 312 311 311 312 313 315 311 309 305 306 308 308 312 313 315 312 311 310 311 309 309 308 308 309 308
293 293 294 294 295 294 295 301 302 302 301 306 311 312 312 312 312 312 312 312 312 311 312 313 315 314 312 309 311 311 312 312 312 311 312 310 310 309 309 309 308 308 309 309
292 293 294 294 295 294 295 299 301 301 304 306 308 306 311 311 311 311 310 311 311 311 312 311 315 315 315 315 315 313 315 315 312 313 312 309 309 309 309 309 308 308 308 308
289 290 293 296 295 294 293 294 298 302 305 308 308 308 309 311 311 312 312 312 312 313 313 313 313 312 312 316 313 315 314 313 312 310 311 310 311 309 308 307 307 307 306 304
289 293 298 298 298 298 299 299 301 304 305 308 308 308 306 311 312 311 313 313 314 313 313 313 311 313 314 314 312 313 313 312 313 309 309 309 309 308 306 306 306 306 303 300
292 294 296 298 296 298 300 302 305 306 308 309 310 308 309 310 311 311 311 310 312 311 312 309 310 313 313 315 316 314 313 311 311 307 305 305 305 307 306 306 306 305 302 301
293 293 295 295 298 301 302 303 307 307 307 308 309 308 309 310 309 311 309 307 305 312 308 311 311 310 308 310 313 315 313 312 312 311 311 310 310 309 306 305 303 302 301 301
294 294 294 296 298 300 300 303 305 307 304 307 309 308 309 310 310 307 307 306 306 311 301 308 311 305 308 308 309 311 313 312 310 309 310 309 309 308 307 305 302 301 301 300
294 294 294 295 297 301 304 306 307 307 304 307 307 306 309 308 308 302 302 309 309 300 306 307 303 304 306 306 308 310 311 309 308 308 308 308 307 307 306 303 301 301 300 298
293 293 291 297 301 300 302 301 301 301 303 304 306 305 303 305 299 301 309 306 304 306 306 301 296 304 304 304 307 309 308 307 307 307 307 307 307 306 304 303 301 300 298 296
293 293 291 296 298 298 298 298 299 302 303 305 305 304 304 296 301 300 304 305 306 306 303 297 302 303 304 305 306 307 307 306 306 306 306 305 305 304 302 301 300 298 297 294
293 292 292 296 293 290 297 297 298 301 302 305 306 304 304 303 303 303 305 304 304 303 296 304 304 304 305 305 305 305 305 305 306 306 305 304 304 303 301 298 297 296 295 294
293 294 295 295 293 293 295 295 298 299 302 304 302 306 308 296 297 300 298 301 302 303 305 304 304 304 305 306 305 304 303 303 303 304 303 303 302 300 298 296 295 294 294 294

GFSNW_850_thetae_006.txt.gz
Theta_e
297 298 297 299 299 301 303 302 304 304 305 305 304 310 307 311 311 313 313 312 312 312 312 312 312 313 310 309 311 313 311 312 313 312 310 310 310 311 310 313 313 313 312 312
298 298 296 298 299 302 303 302 304 305 306 310 310 308 309 312 313 314 314 313 312 311 312 313 312 311 309 309 311 312 312 313 313 314 312 310 311 311 311 312 312 313 313 311
298 298 296 298 300 302 304 304 306 306 306 309 309 311 311 313 312 314 313 313 312 312 312 311 312 311 310 309 310 310 310 312 314 314 316 313 315 312 312 312 314 313 314 312
298 297 297 298 301 302 303 303 307 307 308 310 310 310 312 312 313 313 313 313 312 313 313 313 313 311 311 309 310 311 312 314 313 312 312 312 313 314 314 312 312 313 313 312
297 297 296 297 300 302 302 302 307 308 309 308 310 310 311 312 313 312 313 314 313 313 313 313 314 313 312 313 311 312 312 314 313 313 313 313 314 314 314 314 313 312 312 312
297 296 296 297 299 302 302 302 305 309 308 309 310 311 310 310 311 312 312 312 313 313 313 312 312 311 311 311 313 313 312 313 314 315 315 315 318 316 315 314 313 312 313 312
296 297 295 297 298 300 302 302 303 308 311 310 309 309 310 310 310 314 312 311 313 313 313 313 313 313 313 313 313 312 313 312 312 315 315 322 320 313 314 314 314 313 312 311
296 296 294 296 295 299 302 302 303 306 311 309 309 310 309 311 312 312 312 312 312 312 313 314 315 315 314 314 314 314 313 314 317 318 319 318 317 315 317 315 316 313 313 312
295 295 294 297 292 296 300 302 303 305 308 310 309 311 309 310 311 313 312 312 312 312 314 315 317 317 314 315 314 312 313 313 316 317 319 322 316 314 311 313 319 312 310 312
296 295 295 296 292 293 298 300 301 304 305 311 309 311 312 313 313 313 312 311 312 313 314 316 316 318 313 316 316 315 314 314 316 317 318 318 314 311 314 319 318 311 310 312
291 294 292 293 292 291 296 298 300 301 302 308 310 310 311 312 312 314 312 312 312 313 313 314 315 315 315 315 314 316 316 317 316 317 317 320 312 314 317 315 311 309 311 312
292 293 294 294 295 294 295 297 298 300 302 307 310 311 311 311 311 312 312 313 312 312 314 314 314 315 315 315 318 312 318 316 318 317 318 313 312 314 312 310 309 309 310 312
290 294 294 294 294 294 293 296 297 302 304 308 309 311 312 312 313 312 313 311 312 313 312 314 314 316 314 318 317 315 314 313 317 317 316 314 313 312 310 309 307 307 308 310
294 294 294 293 294 295 295 294 296 296 300 303 310 310 311 312 312 312 312 312 312 312 312 312 313 315 313 317 314 316 316 314 317 317 316 315 312 310 309 309 306 306 308 308
294 294 294 293 294 294 294 292 293 295 300 303 310 310 311 311 311 311 312 312 312 312 312 313 313 314 310 312 311 315 313 317 318 318 315 315 313 309 308 308 305 305 307 305
294 294 293 293 294 294 294 299 300 300 301 300 310 310 312 312 312 312 312 311 311 311 312 312 312 313 312 318 318 316 313 312 314 316 312 311 309 309 308 307 306 305 307 306
294 293 293 293 294 294 295 298 300 299 300 301 309 309 310 311 310 310 311 311 311 311 312 311 312 314 313 316 317 316 315 314 313 312 312 310 309 308 308 308 306 306 306 306
289 293 293 297 298 295 295 292 295 300 301 303 309 309 310 309 311 311 310 312 311 312 312 312 313 313 313 317 317 316 314 313 313 312 311 310 310 308 307 307 307 306 306 306
291 294 297 298 296 296 297 299 298 300 301 306 308 310 311 310 311 311 312 313 315 312 313 313 312 314 315 316 316 315 314 313 312 309 309 309 309 307 307 307 306 307 305 304
294 295 297 298 296 297 298 299 301 301 304 306 310 307 311 309 310 312 312 311 312 312 312 309 310 313 314 314 315 315 315 312 311 307 306 306 306 306 306 307 307 307 304 300
294 294 295 297 298 300 301 300 303 304 307 308 309 308 310 309 311 312 309 311 307 313 311 311 313 315 312 311 311 312 313 314 312 310 310 311 311 308 307 305 304 303 300 299
294 294 294 297 299 299 302 304 303 307 308 308 309 309 308 309 310 311 308 310 308 313 304 309 312 312 309 307 307 309 311 313 313 310 308 309 309 308 307 306 303 300 300 300
294 294 295 296 298 303 304 304 306 308 303 304 307 307 308 308 308 306 307 310 311 303 308 309 310 308 307 305 306 308 310 312 311 309 308 308 307 307 307 306 302 300 300 300
293 294 295 298 300 300 301 301 301 300 301 303 305 305 306 305 307 305 309 308 306 308 309 309 308 305 304 304 305 307 308 309 309 309 308 307 307 306 305 304 301 301 300 299
293 294 297 298 296 296 298 298 298 300 301 301 304 304 304 304 305 304 306 307 308 308 310 308 305 304 303 305 306 306 306 306 306 308 307 306 305 305 304 301 301 300 299 297
294 293 294 296 295 294 295 296 296 299 300 303 304 304 306 308 306 306 307 307 308 309 305 304 305 304 304 305 306 306 306 305 306 306 305 305 305 304 303 300 300 298 297 295
293 295 295 295 293 292 294 294 295 296 299 303 302 306 310 300 305 305 304 306 307 300 301 302 302 303 304 305 306 306 305 305 304 303 303 303 303 302 301 299 297 296 294 294

GFSNW_850_thetae_009.txt.gz
Theta_e
298 298 297 299 301 303 303 302 306 305 304 305 307 312 309 311 311 313 313 313 313 313 313 314 314 314 312 311 312 313 312 312 314 313 311 311 311 312 311 314 314 314 314 314
297 298 298 299 302 304 304 304 304 305 305 310 311 308 310 312 312 314 314 313 313 313 313 314 314 313 311 310 312 313 312 313 314 316 314 312 312 312 312 313 313 315 316 314
297 298 298 298 302 304 304 302 307 305 305 309 311 311 313 314 313 314 314 313 313 313 313 313 314 313 312 310 311 311 312 313 315 315 318 314 315 314 313 314 316 315 315 313
297 296 296 298 301 304 304 303 308 308 310 310 311 312 313 314 314 314 313 313 313 313 314 313 313 313 313 311 311 311 312 315 314 313 313 314 314 314 314 314 315 316 314 313
297 297 296 297 300 305 304 303 306 308 309 310 311 311 313 313 313 313 313 313 313 313 313 314 314 314 313 313 312 312 312 314 314 313 313 314 316 315 316 316 315 315 314 314
296 297 296 294 300 304 303 304 305 307 308 310 311 312 312 313 313 313 313 313 314 314 314 313 313 313 312 313 313 313 313 313 313 315 314 315 320 318 318 316 315 315 316 314
296 296 297 293 294 302 303 303 304 308 311 310 310 311 311 311 313 314 313 313 314 314 314 313 313 313 313 313 312 312 314 312 312 316 316 324 319 316 316 316 316 315 315 315
296 296 296 296 291 297 302 302 304 305 311 311 310 310 312 311 311 312 313 312 313 312 314 315 315 316 314 314 314 313 313 314 315 318 317 316 320 317 318 318 318 314 313 313
289 293 292 293 292 292 300 302 304 305 308 311 310 311 311 313 313 313 312 313 313 314 315 315 317 319 316 316 315 313 314 314 315 315 318 320 319 315 314 314 320 313 314 314
289 289 292 290 292 291 294 300 301 304 305 310 311 311 312 311 312 314 313 312 312 312 315 316 318 318 315 317 317 315 315 315 315 315 318 317 317 314 316 321 318 313 312 313
290 291 293 294 294 293 292 299 299 301 301 306 309 311 312 314 313 315 313 313 313 313 314 315 316 317 316 316 316 316 316 316 316 315 317 318 315 316 318 316 314 312 313 313
292 293 294 294 294 294 294 297 298 299 301 305 308 310 311 312 313 313 312 315 314 313 313 313 314 316 316 316 317 315 318 317 319 317 319 317 316 315 315 313 312 312 311 315
295 294 294 294 294 294 295 296 297 298 300 305 308 311 312 311 311 311 314 313 313 313 313 313 314 316 315 319 317 317 316 315 317 318 319 318 317 315 313 309 309 309 309 311
295 295 296 295 294 294 294 296 296 297 298 302 310 310 311 312 312 312 313 313 312 312 312 312 312 313 315 316 316 317 317 316 318 318 318 318 315 312 310 307 307 309 308 307
294 295 295 294 294 294 294 295 295 294 298 303 307 310 310 310 311 312 312 313 313 312 313 312 313 312 314 314 315 316 316 317 319 319 317 317 315 310 308 307 306 305 305 303
293 294 294 294 294 294 295 297 298 298 296 300 309 310 311 311 311 311 311 312 312 312 312 312 312 312 313 316 317 316 315 315 315 317 314 312 310 308 307 306 305 304 305 305
294 293 294 294 294 294 295 297 298 298 299 301 307 311 310 311 311 311 311 311 312 311 311 312 312 312 313 314 315 316 316 316 315 314 312 312 309 310 307 306 305 305 304 303
289 293 295 296 296 296 296 295 298 298 300 301 308 311 311 309 311 312 310 311 311 312 312 312 312 313 313 316 315 315 315 316 314 313 312 311 310 308 306 305 306 305 303 302
290 296 297 297 296 297 297 296 294 298 299 302 309 311 312 310 312 312 311 312 314 312 314 313 312 314 315 315 316 316 316 314 314 311 309 309 308 306 306 305 303 304 301 301
293 295 297 297 296 296 297 298 299 299 301 303 309 309 311 310 312 313 313 313 313 315 314 310 312 313 313 314 314 314 315 313 312 309 306 306 306 306 305 305 304 304 304 303
295 295 296 297 297 299 299 300 301 301 305 307 309 310 311 309 312 314 311 311 310 314 312 312 315 315 314 312 310 309 312 312 313 311 310 310 310 308 306 304 303 304 303 302
294 294 295 298 299 299 301 303 302 306 309 308 310 310 310 310 309 312 310 311 310 314 307 310 313 313 311 309 307 307 308 309 310 312 311 310 309 308 306 305 305 304 301 299
294 295 295 297 300 303 305 305 304 307 302 302 305 309 309 308 309 309 309 311 311 306 310 311 312 312 308 304 303 305 308 307 308 310 310 308 308 306 307 307 305 304 299 299
294 295 299 301 302 301 301 302 301 300 300 301 303 306 307 306 309 309 311 309 307 310 309 311 313 307 303 303 304 306 307 307 306 307 308 308 307 305 304 306 305 301 300 299
294 294 300 299 298 298 298 297 298 299 300 300 303 305 305 306 307 307 308 308 309 309 311 312 306 302 301 302 304 304 306 307 307 306 306 306 306 305 304 304 301 300 300 299
293 294 296 296 297 298 297 297 297 298 298 301 302 304 307 308 309 308 308 308 309 312 305 302 299 300 301 301 302 303 304 305 305 305 305 304 304 304 304 302 300 300 299 298
293 295 295 296 295 296 296 296 296 296 298 303 302 306 309 302 307 307 307 308 306 299 298 298 298 299 300 301 302 302 302 302 303 304 304 303 303 303 302 300 299 299 298 296

GFSNW_850_thetae_012.txt.gz
Theta_e
298 298 298 298 301 303 304 302 306 305 305 306 306 310 307 311 312 314 313 313 312 311 311 313 312 314 313 312 312 312 311 313 310 312 310 310 311 311 311 313 309 311 312 312
298 297 296 297 301 303 304 304 305 305 306 309 310 308 310 312 313 314 314 313 314 311 312 314 313 313 310 312 312 312 311 312 310 313 313 311 312 311 311 311 311 312 313 312
297 297 295 296 303 304 304 304 306 305 305 308 309 310 313 314 313 314 313 313 313 313 313 313 313 313 311 310 312 311 312 313 310 311 312 312 312 313 313 313 315 313 314 313
297 296 295 294 304 304 305 306 308 307 311 311 310 311 313 314 314 314 313 313 313 313 314 313 313 312 312 311 311 311 311 311 310 312 312 311 312 312 313 314 314 315 314 314
296 293 297 293 304 305 305 306 306 308 310 311 310 312 313 314 313 314 312 313 313 312 313 314 313 313 312 313 311 311 311 312 312 310 311 311 312 312 313 315 316 317 317 317
296 294 296 292 299 303 303 304 306 307 309 311 311 313 312 313 313 313 313 314 313 315 314 314 313 313 313 313 312 312 313 313 312 310 313 312 316 316 317 317 316 316 317 316
292 288 289 292 292 301 302 302 304 306 311 311 311 311 311 313 314 314 313 313 314 314 314 314 313 313 313 313 312 312 313 311 311 314 312 316 317 316 317 317 316 316 315 314
291 291 288 289 291 292 302 302 304 305 311 311 310 311 312 311 311 313 313 313 313 313 314 315 315 316 315 314 313 312 312 312 314 315 312 313 316 317 318 317 317 314 314 314
294 294 289 289 289 291 293 302 302 304 306 311 312 311 311 312 312 312 313 312 312 313 315 314 316 318 316 316 314 313 313 312 314 315 316 317 317 315 315 314 319 312 313 315
296 295 294 290 291 289 291 300 300 302 305 308 310 311 312 311 312 313 313 312 312 313 314 316 317 317 315 316 316 315 315 315 315 315 316 315 314 313 315 319 316 313 312 313
296 295 296 295 293 293 292 294 300 300 300 304 308 310 312 313 314 314 313 313 312 313 314 314 315 316 316 315 315 314 314 315 316 314 316 314 314 315 317 315 314 313 312 314
296 295 296 296 295 293 294 295 294 297 300 302 307 308 311 312 313 314 313 314 313 314 313 313 314 314 315 315 316 314 316 314 316 313 314 313 316 316 315 314 312 311 311 315
296 295 295 295 295 295 293 294 295 297 298 302 304 310 310 310 311 312 314 313 312 313 313 313 313 315 314 316 315 316 313 313 315 316 317 315 316 315 313 312 309 310 310 313
294 296 295 295 295 295 294 294 294 296 297 299 307 309 311 311 311 311 311 314 312 312 312 312 312 313 312 315 314 315 315 315 315 315 314 316 313 312 310 309 308 309 310 310
294 295 295 294 294 295 293 293 294 295 297 300 304 308 310 311 311 312 312 313 313 312 313 313 312 311 311 311 312 313 314 314 316 317 316 316 311 311 309 308 307 307 307 305
294 295 295 294 295 294 293 294 297 295 295 298 306 309 310 310 310 311 312 312 312 312 312 312 312 312 311 313 314 312 314 314 315 314 314 313 312 310 308 307 306 305 306 306
296 294 294 295 295 294 293 296 297 298 296 299 303 309 310 311 311 311 311 311 312 312 312 312 312 313 312 314 314 313 314 314 314 315 315 312 312 310 308 306 305 304 304 303
292 292 296 297 296 295 294 294 296 297 298 299 303 310 310 310 311 312 310 311 311 311 312 312 312 312 312 314 312 313 313 313 314 315 313 312 312 310 307 305 305 303 302 302
290 294 297 297 296 296 296 295 295 297 297 299 305 309 310 310 312 312 310 311 313 312 312 312 312 313 314 312 313 314 315 315 315 314 313 311 309 308 307 305 304 304 302 303
294 296 297 297 296 296 297 297 299 298 299 300 306 309 311 310 312 312 313 312 312 311 312 310 311 313 312 313 313 313 313 314 314 312 309 308 306 307 306 305 304 305 306 304
295 295 296 296 296 297 298 299 299 300 303 304 308 310 310 310 310 312 311 309 308 312 309 310 310 313 311 309 308 306 306 310 313 313 311 311 310 308 306 304 304 306 305 304
294 295 296 298 298 298 300 302 301 303 307 307 309 309 310 309 310 310 309 308 307 311 306 309 311 309 305 303 303 303 305 307 310 311 311 310 309 308 307 304 304 304 305 303
294 295 295 297 299 302 304 305 305 306 301 302 305 307 308 308 309 307 307 309 309 305 308 310 304 305 302 301 302 303 305 306 308 308 309 308 308 309 306 305 304 304 304 301
294 294 295 298 301 300 302 301 301 300 300 301 303 306 308 306 306 307 309 308 305 308 308 306 303 301 300 300 301 302 303 305 306 308 307 306 307 308 306 305 305 307 303 299
294 293 298 298 298 298 298 298 298 299 300 300 304 305 306 304 306 306 306 307 307 308 305 303 301 299 298 298 299 301 302 303 304 305 305 305 304 306 307 306 306 304 300 299
293 293 295 296 297 297 297 297 298 298 298 300 302 303 306 307 307 307 307 308 308 303 298 299 298 297 297 297 298 300 301 302 302 302 303 303 303 303 303 302 302 300 298 299
293 294 295 297 296 297 297 296 297 296 299 302 301 306 308 302 307 306 306 307 302 296 297 297 298 297 297 297 298 299 301 302 303 302 300 301 301 301 302 301 299 297 298 298

GFSNW_850_thetae_015.txt.gz
Theta_e
298 298 298 298 303 304 304 304 305 304 305 306 305 309 308 309 310 311 313 311 310 309 312 311 310 310 311 310 310 311 311 311 309 309 308 308 309 309 309 307 305 307 305 311
297 297 297 299 304 303 304 305 305 305 305 309 308 308 311 312 314 314 314 313 311 310 309 313 311 311 309 311 311 310 310 309 306 312 311 310 310 309 309 309 309 310 311 310
297 298 295 299 305 304 304 304 302 304 306 307 309 309 313 312 312 313 313 312 310 310 312 311 312 311 310 311 311 311 310 311 305 309 307 311 309 311 310 311 313 312 311 311
294 291 292 295 305 305 305 306 306 307 302 307 307 311 312 313 314 313 312 312 312 312 312 312 311 311 310 310 311 311 311 307 307 310 310 310 310 311 311 311 312 314 313 313
293 289 290 292 302 305 305 306 305 306 308 308 309 311 312 314 313 313 312 312 312 313 313 313 312 312 311 310 310 310 309 309 310 308 309 310 310 310 310 311 311 312 313 314
293 290 289 290 293 303 304 304 305 305 307 307 310 310 312 313 313 312 312 312 313 314 313 313 313 312 312 310 311 311 312 309 305 304 310 310 312 312 312 314 315 316 318 316
292 291 290 289 291 294 303 303 304 305 307 308 310 310 311 312 312 312 312 313 314 314 313 314 312 312 313 312 311 311 310 310 306 307 308 312 315 313 315 315 315 314 315 315
296 292 291 290 290 291 295 302 303 304 307 307 309 310 310 311 312 312 312 313 313 313 313 313 314 315 313 313 311 311 311 311 312 311 308 310 314 315 316 316 315 312 314 316
297 297 294 294 292 290 292 302 301 302 304 309 309 310 311 308 309 310 313 312 311 313 313 312 313 317 315 314 314 312 312 312 313 314 314 314 315 314 314 313 317 312 312 315
297 296 297 295 295 291 291 298 299 301 303 306 306 310 311 311 312 311 312 312 312 313 311 314 313 312 314 314 313 315 315 314 314 314 315 312 310 312 314 317 313 312 311 313
297 295 296 296 296 294 292 292 297 299 300 302 303 305 308 311 312 309 311 311 311 310 313 312 313 313 314 313 312 312 313 313 315 315 315 312 311 313 317 313 313 313 312 312
296 296 296 296 295 295 295 292 293 295 297 300 303 306 307 308 312 313 312 313 312 312 311 310 313 314 312 312 314 311 315 311 312 311 311 309 313 314 315 314 312 311 311 313
296 296 296 296 296 295 295 295 293 294 297 297 299 304 308 309 311 312 312 312 312 312 313 311 312 314 312 313 312 315 314 312 314 313 313 311 315 314 313 311 310 309 310 313
294 295 295 295 294 294 295 296 294 294 295 297 301 306 309 310 310 310 311 313 312 313 312 311 311 312 311 312 313 313 313 313 314 312 313 313 312 312 311 309 309 309 311 312
296 295 295 295 294 294 295 293 293 292 294 298 299 304 309 311 311 311 311 312 312 312 312 312 312 311 311 310 310 310 311 311 314 314 314 314 312 312 310 308 308 308 309 307
295 295 295 294 295 295 295 293 296 295 294 296 301 306 309 310 311 311 312 312 313 313 312 312 312 312 311 312 312 311 312 312 313 313 314 313 312 312 310 308 307 306 306 306
296 295 294 295 296 295 295 294 296 296 295 295 300 306 310 310 311 311 311 311 312 312 312 311 312 312 312 313 312 310 312 312 312 312 313 312 311 312 310 307 306 305 304 303
292 293 294 296 295 294 294 293 294 296 296 297 300 307 311 310 311 311 310 311 312 312 312 312 311 311 311 312 311 312 313 314 314 315 313 314 313 311 309 306 305 304 303 302
291 295 296 297 296 296 295 295 295 295 297 297 300 308 310 311 311 311 310 311 312 311 312 311 311 311 312 312 312 312 310 310 313 314 312 311 310 309 307 305 304 304 302 302
294 296 297 297 295 296 296 296 298 297 298 297 302 308 310 310 311 311 311 311 311 311 312 311 311 311 311 305 303 303 303 304 307 311 312 310 308 307 306 305 305 305 304 303
294 295 295 296 296 297 298 298 298 299 302 302 305 309 309 310 309 311 310 307 306 311 309 309 308 312 304 301 302 303 304 304 306 308 310 311 312 309 306 304 304 304 304 304
291 294 295 297 297 298 299 300 301 302 306 306 308 308 309 309 310 309 308 307 306 309 305 307 309 307 300 300 300 301 303 305 306 308 310 311 310 308 307 305 306 306 306 304
294 295 294 296 298 298 302 304 305 306 301 302 304 305 308 308 309 306 306 308 308 303 307 309 303 301 299 298 298 300 302 304 304 307 308 309 308 308 306 305 304 304 304 304
293 293 295 297 300 300 300 300 300 300 300 300 303 305 304 306 305 306 308 307 304 307 308 304 301 298 297 298 298 298 300 302 304 304 305 306 306 307 307 305 305 304 304 307
293 293 294 297 298 298 298 298 298 299 300 301 303 304 305 301 304 304 304 307 307 307 302 301 298 297 297 297 298 298 299 300 301 303 304 304 304 306 307 305 304 303 305 309
292 293 294 295 296 297 297 296 297 299 298 301 302 303 305 306 305 306 306 306 305 299 296 297 297 297 297 297 298 299 299 300 300 301 302 302 303 303 304 305 304 303 305 305
293 293 294 295 296 297 297 296 297 297 298 301 301 305 307 302 306 305 304 305 299 296 296 296 296 296 296 297 299 299 299 300 300 300 300 301 302 301 301 302 302 302 303 299

GFSNW_850_thetae_018.txt.gz
Theta_e
295 293 298 304 304 303 303 304 299 304 306 306 306 307 306 308 311 311 312 309 309 311 311 310 310 310 309 309 309 310 310 308 303 309 308 307 308 308 307 302 303 304 305 309
290 291 296 305 303 303 303 304 304 305 305 308 309 308 311 312 314 313 313 311 309 309 309 310 309 310 309 309 309 309 309 308 304 309 310 309 309 308 308 307 305 302 310 309
290 290 293 303 305 305 304 304 299 305 306 307 308 310 310 312 312 312 311 309 310 310 310 310 311 310 309 310 310 310 310 308 304 307 305 308 307 310 308 308 310 309 309 309
291 290 290 296 304 305 305 306 306 306 304 306 308 310 311 312 313 312 311 311 310 311 312 311 311 310 309 310 312 312 309 306 306 308 308 308 309 309 309 308 310 311 311 311
292 291 290 291 302 304 304 304 305 305 305 308 308 309 311 312 312 312 312 313 312 311 313 312 311 310 309 309 309 309 309 310 309 310 307 308 308 309 309 310 310 311 311 311
294 292 291 290 294 303 304 304 305 305 306 305 308 308 311 312 312 311 312 312 313 313 313 312 311 310 310 309 308 308 309 308 307 303 307 308 310 309 310 310 309 310 315 314
296 294 292 291 290 294 303 302 303 305 306 305 308 309 311 312 311 311 312 313 313 313 313 312 312 312 312 310 310 311 311 308 303 302 307 310 312 309 311 310 312 312 313 314
297 296 295 293 291 290 299 302 302 302 304 306 308 308 310 311 312 312 312 313 313 313 313 311 314 314 312 312 311 310 310 311 304 307 307 309 313 315 315 315 314 313 313 312
297 296 296 295 295 290 292 299 300 301 302 305 307 308 309 307 308 308 312 312 311 313 311 311 312 315 314 315 314 311 310 311 312 312 313 313 311 313 314 312 315 312 310 311
296 297 296 296 296 295 292 294 295 300 302 304 305 307 310 310 308 307 311 311 311 312 309 312 311 310 313 315 314 315 314 314 315 315 314 310 308 309 313 316 312 312 312 311
295 296 296 296 296 295 295 293 294 294 299 300 302 304 306 309 310 307 309 310 310 309 311 310 312 313 313 313 312 313 313 314 316 314 314 312 310 312 316 312 313 313 312 311
296 296 296 295 295 296 295 295 294 293 294 294 298 301 303 306 309 309 311 310 309 310 308 307 311 314 311 310 314 309 314 310 311 312 311 309 311 313 314 313 312 311 310 311
297 295 296 296 295 295 294 295 295 294 294 294 295 293 300 303 308 310 311 312 312 312 312 309 311 312 311 312 312 313 312 310 313 311 311 310 311 313 313 312 310 309 309 311
298 295 295 295 295 294 295 296 294 295 292 294 295 300 302 305 308 310 312 313 312 312 312 310 309 311 310 309 309 311 311 312 313 312 311 313 313 313 313 312 310 309 309 311
297 295 295 295 295 294 295 295 295 294 294 295 295 295 302 306 310 310 311 312 312 312 311 310 311 309 310 310 310 310 309 309 312 312 313 313 314 313 313 311 309 308 309 310
297 295 295 294 294 295 296 294 295 295 293 293 295 299 304 309 311 311 310 312 312 312 312 312 311 311 311 312 312 310 311 311 311 310 312 312 312 313 313 311 309 307 307 307
295 294 294 294 295 296 295 294 294 294 294 295 297 300 306 309 311 311 312 312 312 312 312 311 311 311 311 312 312 310 311 312 312 313 312 311 312 313 311 310 308 306 306 305
291 292 295 296 294 294 294 294 294 294 294 295 298 301 310 311 310 310 311 311 311 311 311 312 311 311 311 311 309 310 309 308 310 311 312 312 312 312 311 310 307 305 305 303
291 295 296 296 295 296 295 295 295 295 296 297 299 304 310 311 311 311 311 311 311 311 311 310 311 311 312 308 303 302 302 302 302 304 309 311 311 310 310 308 306 304 303 301
293 296 296 296 295 295 295 296 296 296 297 296 298 302 309 310 310 310 310 311 311 311 312 310 311 311 308 303 301 300 301 302 303 303 306 308 309 310 309 308 305 304 303 302
292 295 294 295 295 296 297 297 297 299 301 299 301 306 310 309 308 311 310 307 306 310 307 310 308 312 303 300 300 300 301 302 303 304 305 306 309 309 309 307 305 303 303 305
291 293 295 296 296 297 298 299 300 301 304 304 305 306 308 309 310 308 307 305 306 310 305 307 308 305 299 299 299 300 300 301 303 304 306 308 309 309 308 307 305 304 304 309
293 294 294 295 297 298 300 302 303 305 300 301 302 304 307 309 309 306 306 308 308 302 307 308 305 299 298 297 298 299 300 301 304 304 306 307 307 308 308 306 304 304 308 310
293 294 294 296 298 299 300 300 300 300 300 301 302 305 304 305 305 306 308 306 303 306 307 307 300 297 297 297 297 298 299 300 301 304 305 306 306 306 307 306 306 303 305 305
293 293 294 296 297 297 298 298 298 299 300 300 303 304 305 302 305 305 304 307 307 306 302 300 297 297 297 297 297 297 298 299 301 302 305 305 304 305 305 306 305 303 302 302
292 292 293 295 295 296 297 297 297 299 299 300 301 303 305 306 304 306 306 306 305 298 297 297 296 297 297 296 296 298 298 298 299 300 301 301 302 303 303 304 305 304 304 304
292 292 293 293 294 296 296 296 296 297 298 301 300 305 305 302 306 305 304 305 300 297 296 296 295 297 297 296 295 296 298 299 299 300 300 300 300 300 300 302 303 304 304 302

GFSNW_850_thetae_021.txt.gz
Theta_e
291 293 301 303 303 303 304 304 299 305 306 304 304 307 306 308 311 310 311 308 310 311 309 310 309 309 308 308 307 309 309 306 304 309 307 306 307 308 306 303 301 302 303 308
292 291 295 304 304 304 304 304 304 306 307 309 310 308 311 310 312 312 312 309 310 309 308 310 308 309 308 308 308 308 308 305 302 309 309 308 309 307 306 304 302 301 307 308
292 292 291 300 304 305 305 305 300 306 307 307 308 309 309 311 311 311 309 309 309 309 310 308 309 309 309 308 309 309 309 306 303 306 304 306 306 308 307 306 306 307 308 308
293 292 291 292 304 305 305 305 305 306 307 309 309 309 310 311 312 311 310 309 309 310 310 310 310 309 309 310 311 310 308 306 304 307 307 307 308 309 308 305 309 308 309 308
295 293 292 291 299 305 305 304 305 305 305 305 306 307 310 311 311 311 312 311 311 310 311 310 310 309 308 311 309 310 308 310 307 308 307 307 308 308 308 308 309 308 309 309
296 294 292 291 291 303 304 303 304 305 305 303 306 307 310 311 311 311 311 311 311 312 312 311 309 309 309 308 308 308 308 308 307 305 305 307 309 308 308 308 308 308 309 310
297 296 294 292 290 294 301 301 302 303 304 304 306 306 310 311 310 311 311 312 312 312 312 311 312 311 309 308 309 309 310 309 307 302 305 308 309 308 308 309 309 308 309 310
296 297 295 294 294 290 294 299 301 302 304 305 305 307 308 310 310 311 311 312 312 313 312 310 312 313 312 312 310 310 309 310 304 306 308 306 311 313 313 314 313 310 310 311
297 297 296 296 295 294 292 293 297 300 302 303 305 306 308 307 307 307 311 312 312 312 309 309 312 314 313 314 313 310 310 310 311 311 312 311 310 313 313 311 313 311 311 310
297 296 296 296 295 296 294 294 292 296 299 302 303 304 307 309 307 305 309 311 311 311 308 311 311 310 313 313 315 315 313 314 313 313 314 309 307 308 313 315 312 312 312 311
299 297 296 296 295 295 295 294 293 293 295 296 298 303 304 305 308 307 308 309 309 308 309 309 309 311 313 313 312 313 314 314 315 314 314 311 310 311 315 312 312 312 312 311
299 298 297 295 296 296 296 295 295 294 294 292 293 294 298 301 303 306 310 308 308 309 307 306 307 311 311 310 315 308 314 309 310 310 310 308 310 312 312 311 312 311 309 309
297 300 298 295 295 295 295 295 295 295 295 294 293 294 293 294 295 304 303 311 311 311 311 307 309 311 311 312 310 310 309 310 311 310 311 308 311 313 313 312 312 310 309 309
296 299 298 296 294 295 295 295 294 295 294 293 293 295 294 299 299 299 302 309 311 312 311 309 308 309 308 308 307 311 310 310 312 311 310 312 313 313 313 312 312 310 309 309
295 297 297 295 295 295 294 294 295 295 295 292 293 293 294 294 299 305 307 306 309 311 310 309 309 308 308 307 309 308 308 307 309 309 310 311 312 312 312 312 312 311 309 309
295 297 295 294 294 295 295 295 294 294 295 295 291 293 293 299 302 305 309 310 310 312 311 310 311 311 309 309 312 308 309 310 312 310 311 311 311 312 312 312 311 310 308 308
297 296 291 294 295 295 295 294 294 294 294 292 293 295 299 303 305 309 308 311 312 312 312 311 311 311 311 312 311 309 310 310 310 310 308 311 312 312 312 311 310 309 307 307
296 291 295 295 294 294 294 294 294 294 293 294 296 298 301 305 309 310 309 311 310 311 311 311 310 310 311 310 307 304 304 305 307 308 306 305 309 311 311 310 309 308 306 306
293 294 296 296 295 295 295 295 295 295 294 296 298 300 307 307 310 310 311 310 309 310 309 310 311 310 312 305 302 302 301 300 301 303 304 304 308 308 309 309 308 306 305 304
290 295 296 295 295 295 295 296 296 295 296 295 296 298 303 310 310 310 310 310 310 309 310 310 310 310 303 301 300 300 300 300 301 301 303 304 306 308 308 309 307 305 304 303
290 294 294 294 295 296 297 297 298 298 297 298 298 300 309 309 309 311 309 307 306 310 308 311 308 308 302 300 300 299 299 300 301 301 302 303 305 306 308 308 307 305 303 303
291 291 293 294 295 296 298 298 299 301 303 303 302 305 306 308 309 308 307 305 306 309 305 308 308 303 298 298 299 299 299 300 301 302 302 304 306 308 308 308 307 305 303 303
292 293 294 294 297 298 298 299 300 304 301 301 301 304 306 308 308 305 305 307 305 302 307 308 305 298 298 298 298 299 298 299 300 302 303 304 306 307 307 307 306 304 303 303
292 293 294 295 295 296 298 299 294 299 300 300 300 303 304 305 305 305 308 305 304 306 306 306 299 297 298 298 298 298 298 298 299 300 305 305 305 305 305 305 305 305 303 302
292 292 292 291 296 297 298 298 298 298 299 300 302 303 305 303 305 305 304 307 306 306 303 297 297 298 297 296 296 297 298 298 299 300 300 301 302 303 304 305 305 305 303 303
292 292 290 294 294 294 297 297 297 297 298 300 300 302 305 307 303 306 306 305 306 300 297 297 297 298 297 296 294 295 297 298 299 299 300 301 301 302 302 303 304 304 303 303
292 291 292 293 293 294 296 296 296 297 297 301 300 305 306 302 304 303 301 303 300 298 298 296 296 297 297 296 293 293 295 296 297 299 299 300 300 301 301 301 301 302 302 302

GFSNW_850_thetae_027.txt.gz
Theta_e
298 295 293 292 296 304 304 304 302 308 308 306 307 310 308 309 310 311 308 308 308 308 308 309 309 309 308 308 307 309 307 306 309 310 306 306 307 307 304 306 305 303 305 308
301 301 294 293 293 304 305 305 305 308 308 309 309 307 308 309 310 310 310 309 309 307 308 309 308 308 307 307 307 308 307 305 305 310 308 307 308 306 304 302 302 305 309 309
301 300 298 293 293 304 305 305 300 307 308 307 308 308 308 309 310 309 307 308 307 307 308 307 308 308 308 307 308 309 307 305 304 306 305 307 308 307 305 305 306 306 306 306
300 300 298 294 293 304 305 305 304 304 304 304 304 306 308 309 310 309 308 308 308 308 309 309 309 308 309 308 310 308 307 305 303 306 306 306 307 308 306 305 306 307 306 306
299 300 297 294 293 298 305 302 303 304 304 303 303 304 308 310 310 310 309 309 310 308 308 307 308 308 308 308 308 308 306 308 304 303 306 306 308 307 306 307 307 306 307 308
299 299 297 296 293 293 301 300 301 302 303 300 303 304 308 310 308 310 310 310 310 310 310 310 309 308 308 307 307 307 308 307 302 305 305 306 308 306 307 307 306 307 309 308
299 298 297 296 296 292 294 297 300 302 301 300 303 303 304 308 308 310 311 311 311 311 310 308 308 307 307 307 306 307 307 308 304 302 304 307 307 306 306 307 307 306 306 307
298 299 299 297 296 296 293 293 297 299 302 302 301 303 303 306 308 309 310 312 312 311 310 308 309 311 311 310 308 308 308 308 306 306 308 305 310 308 307 308 312 306 307 307
298 299 299 297 296 295 295 294 293 296 298 297 301 303 304 304 303 304 310 311 312 311 306 308 310 308 308 310 312 308 307 307 308 308 308 309 307 312 310 310 315 310 307 307
298 298 299 299 298 296 295 295 294 293 295 297 299 300 303 305 305 302 304 310 310 310 307 310 309 307 307 310 310 313 313 313 313 310 312 307 305 309 311 315 313 310 311 311
297 298 298 299 299 297 295 295 295 295 294 293 293 296 298 300 304 306 305 307 307 306 310 311 310 307 308 307 307 310 310 312 311 310 310 309 308 309 312 311 310 310 311 311
298 297 298 298 298 298 296 295 295 295 294 294 295 294 294 294 295 296 301 306 305 307 305 303 303 307 306 308 313 306 310 306 309 307 307 305 309 311 311 310 310 311 311 310
298 298 297 298 298 297 295 295 295 295 295 294 294 295 295 294 294 295 297 303 309 308 307 304 305 308 305 310 309 307 307 307 308 309 308 306 309 311 312 311 311 311 311 311
298 298 298 297 298 298 296 295 295 295 294 295 294 294 294 294 296 294 294 298 304 301 305 308 307 306 306 304 305 306 306 307 307 308 308 310 310 311 311 311 311 311 311 310
298 298 298 298 298 296 294 294 295 295 295 295 295 294 294 294 294 295 296 295 294 295 301 309 308 305 305 303 304 305 305 306 310 310 309 309 310 311 311 311 311 311 311 310
298 298 297 297 293 295 295 295 294 294 294 293 294 294 294 293 295 294 294 294 295 295 300 309 308 308 307 304 307 306 307 308 309 309 310 310 309 311 310 308 308 309 310 309
298 298 297 294 296 295 295 295 294 294 293 294 291 290 294 297 296 295 294 293 295 298 299 308 308 309 308 306 307 307 308 308 309 308 307 307 309 309 309 308 308 310 309 308
297 297 297 295 295 294 294 294 294 295 294 293 293 290 296 299 300 298 298 298 297 302 304 308 306 309 307 308 306 306 306 306 306 305 304 304 304 304 304 305 307 309 309 307
297 298 292 295 296 295 294 294 294 295 294 294 295 296 297 301 302 302 302 303 304 304 308 309 308 309 310 306 306 305 305 304 303 303 303 303 303 303 304 304 305 306 307 307
296 293 296 295 295 294 294 296 295 295 295 294 294 296 298 300 301 304 304 302 306 306 308 309 310 307 302 302 302 302 301 301 301 301 302 302 304 303 304 305 305 306 307 306
296 294 292 294 293 293 295 296 297 296 297 296 295 296 299 302 304 309 306 306 305 309 309 310 309 310 300 299 300 300 300 300 300 300 301 301 301 302 303 305 305 306 307 307
295 294 293 294 294 295 297 297 298 298 299 301 300 301 300 303 307 307 305 306 305 306 306 309 308 301 297 298 298 298 299 299 300 300 302 303 303 303 303 304 306 307 307 306
293 293 293 294 295 297 297 297 297 300 299 299 299 300 302 304 306 305 305 306 306 301 308 306 299 296 297 297 297 297 298 299 299 300 301 303 304 303 303 303 304 305 305 305
292 292 290 292 293 296 296 295 297 298 296 297 297 300 303 303 304 304 304 303 302 306 306 301 298 297 297 296 297 298 298 298 298 299 300 301 304 304 304 305 305 306 305 305
292 291 288 290 294 294 295 296 296 297 296 296 297 299 302 303 303 304 302 305 307 306 302 294 298 297 296 295 295 296 296 296 297 298 299 300 300 302 303 303 304 305 304 303
291 291 290 291 291 292 295 296 296 296 296 296 296 300 303 304 304 305 305 304 302 301 292 299 298 298 296 295 293 293 293 292 292 294 296 297 298 299 299 300 300 301 303 302
291 290 291 291 291 291 292 294 295 295 295 297 298 302 305 301 304 303 299 302 299 299 300 299 299 298 298 297 293 291 290 290 290 291 291 293 295 297 298 299 299 299 300 301

GFSNW_850_thetae_030.txt.gz
Theta_e
299 300 303 294 293 301 304 304 312 308 308 312 311 312 310 310 312 311 310 310 311 312 311 312 313 311 312 309 310 312 309 312 313 313 309 308 309 311 310 313 313 310 312 313
299 299 302 295 293 303 304 305 306 309 308 314 313 310 311 310 312 311 311 311 310 309 311 312 311 311 308 309 310 311 310 311 313 312 311 309 311 310 308 307 309 312 314 313
299 298 301 296 293 301 304 305 311 309 308 307 311 312 312 312 310 310 309 310 309 310 310 310 311 310 310 308 309 309 309 309 312 312 313 311 312 311 309 310 313 311 311 311
299 298 299 295 293 296 304 305 305 305 311 310 309 309 311 312 313 311 309 310 310 310 311 311 311 310 309 309 310 309 310 313 309 309 309 310 311 311 309 310 311 313 311 310
299 298 298 295 293 295 303 303 304 304 305 304 308 308 312 312 312 312 311 311 310 310 311 310 311 311 311 311 310 310 309 313 309 310 308 309 310 310 310 310 310 310 311 311
299 299 298 297 295 293 296 300 301 302 304 306 308 309 310 311 310 311 311 312 312 312 312 311 310 309 310 310 310 310 311 310 311 313 308 309 311 310 311 310 310 310 311 311
299 299 299 298 296 294 293 296 299 302 306 305 307 306 306 309 309 311 311 312 312 310 308 308 308 309 309 310 309 310 311 311 310 312 309 314 310 308 309 310 310 309 310 310
299 298 299 299 298 295 295 293 294 300 303 303 303 305 304 306 307 310 311 312 311 310 310 312 312 312 311 311 310 310 310 311 311 313 311 311 311 309 310 311 314 309 310 310
298 298 298 299 298 297 295 295 294 294 298 300 300 303 304 306 309 310 310 311 311 311 312 313 313 313 311 313 312 310 310 310 311 310 312 313 312 314 311 310 318 311 309 310
298 298 298 299 299 298 296 295 295 295 295 295 298 301 303 305 306 308 306 309 311 310 313 314 314 313 310 313 312 313 312 312 312 312 312 311 310 312 312 317 317 311 311 312
299 298 298 298 299 298 297 296 295 294 295 294 294 296 298 298 301 308 306 310 309 310 313 313 312 312 312 312 311 311 312 312 313 313 311 312 309 309 312 313 310 311 311 311
298 298 298 298 298 298 297 296 295 295 296 295 296 295 295 294 295 299 301 305 307 309 313 311 311 312 311 313 313 310 312 311 311 311 311 309 309 312 311 311 310 310 310 311
298 299 298 298 298 298 298 296 295 296 295 295 294 295 295 295 295 294 296 301 306 306 305 307 310 312 312 314 313 312 311 309 311 311 312 310 309 310 310 311 311 310 310 310
298 298 298 298 298 298 297 297 295 294 295 295 294 294 294 294 293 294 294 296 300 297 299 307 311 312 309 312 311 312 311 310 311 312 311 311 310 310 311 310 310 310 311 311
298 298 298 298 297 296 294 295 295 295 296 295 295 295 294 294 294 294 294 294 294 295 296 302 310 309 309 307 308 311 309 312 312 313 312 312 312 310 310 311 310 310 311 310
298 298 298 297 297 295 296 295 294 294 295 294 295 294 294 293 295 293 294 295 294 296 295 299 305 308 310 312 312 310 308 308 309 311 309 310 310 310 309 310 309 309 309 308
298 298 298 297 295 296 295 295 294 294 294 293 294 294 294 295 296 295 294 295 295 295 296 298 304 309 308 310 312 310 308 308 308 310 309 308 308 308 308 307 306 307 308 309
298 298 297 298 295 295 295 294 294 294 294 293 293 294 296 297 297 297 295 294 294 297 298 302 304 308 309 312 310 307 306 306 307 307 307 306 305 304 304 304 304 305 308 308
297 296 296 295 296 295 294 294 294 295 294 294 294 297 300 299 300 300 298 297 297 299 303 305 306 307 313 311 308 306 305 305 304 305 304 304 303 304 304 304 304 304 306 307
297 295 295 296 295 294 293 296 295 295 295 294 295 295 298 298 301 302 302 301 304 305 306 307 308 310 304 304 305 304 304 304 303 302 302 303 304 304 304 304 304 304 305 306
296 296 293 293 293 293 294 296 297 297 297 295 296 296 298 299 301 304 302 303 304 310 308 309 309 311 303 299 300 301 301 302 301 301 302 302 303 304 304 304 303 304 305 306
295 294 293 294 294 295 296 298 298 299 300 299 299 300 299 300 304 307 306 306 307 309 307 310 311 305 297 298 299 299 299 300 300 300 301 302 303 303 302 302 302 303 305 306
293 292 293 294 295 297 299 299 300 301 298 298 297 299 300 302 305 305 305 307 308 302 308 308 307 298 296 297 298 298 298 299 299 299 300 302 304 303 302 302 301 302 304 304
294 291 289 294 296 297 298 298 298 298 296 296 295 297 300 302 303 305 306 305 304 308 308 307 303 297 297 297 297 297 297 297 298 299 300 301 304 304 303 303 304 306 306 306
294 292 292 292 294 294 295 295 295 296 296 295 295 296 299 302 303 305 304 306 307 306 306 305 299 298 297 296 297 296 296 296 297 298 298 299 300 300 301 301 302 303 304 304
293 291 291 291 291 292 294 294 294 295 295 295 295 298 302 305 304 307 307 306 306 306 303 299 299 298 296 295 294 294 293 291 292 293 293 294 296 297 298 299 299 300 301 302
292 290 291 291 291 291 292 293 295 295 295 297 297 300 305 300 306 305 303 306 305 300 300 300 300 299 297 294 293 291 291 290 290 290 290 291 292 293 295 296 297 298 298 299

GFSNW_850_thetae_033.txt.gz
Theta_e
300 299 297 301 295 295 304 306 315 309 308 314 314 314 312 311 313 312 311 312 312 314 313 314 314 314 314 312 312 313 311 315 315 314 311 311 312 314 314 316 316 313 314 314
299 299 298 299 294 293 304 308 310 309 309 316 314 313 313 312 313 312 312 312 312 312 313 314 314 313 310 311 312 313 312 314 315 313 313 311 313 312 312 311 312 316 316 314
299 298 298 298 294 294 304 308 313 313 312 312 313 313 313 314 312 311 311 311 311 312 312 312 313 313 311 310 311 309 310 312 314 316 316 314 313 313 312 312 315 314 312 313
299 299 299 298 293 295 304 307 307 307 315 313 313 313 313 314 314 313 311 312 311 312 312 312 312 312 311 310 310 311 312 316 311 311 311 312 313 313 312 312 312 314 313 312
299 299 299 297 293 295 303 303 304 305 310 309 311 310 314 314 313 313 312 312 311 311 312 312 312 312 312 311 311 311 311 313 312 312 311 311 312 312 312 312 311 311 312 312
299 298 299 299 295 293 298 299 301 302 307 310 312 313 312 313 312 312 312 313 312 312 312 312 312 311 311 312 312 312 312 313 313 314 310 310 312 312 312 312 312 312 312 312
299 298 298 298 298 295 295 293 299 302 309 308 310 309 309 311 311 313 313 313 314 310 309 310 311 311 311 311 311 311 312 313 313 314 311 315 313 311 311 312 312 311 311 312
298 298 298 298 299 298 295 294 295 299 302 302 306 307 308 308 310 311 312 313 312 311 312 313 313 312 312 312 311 311 311 311 313 314 314 313 311 310 310 312 314 311 311 311
298 298 298 299 299 299 297 296 294 296 298 302 301 303 305 308 311 311 312 312 312 312 314 314 313 314 313 313 313 311 311 311 312 311 313 314 313 313 311 312 319 312 311 311
299 299 298 298 299 299 298 297 296 294 297 296 298 301 304 305 308 309 310 311 313 312 314 314 313 313 311 313 312 312 312 312 313 311 312 312 311 314 312 318 318 313 312 313
298 299 298 298 298 298 298 297 295 295 297 297 296 296 297 297 300 307 307 311 311 313 314 314 314 312 313 311 312 312 312 312 312 311 312 312 310 313 315 314 312 312 313 313
298 299 298 298 298 298 298 298 296 296 295 297 296 296 295 295 296 298 302 305 308 310 314 313 313 312 312 313 313 311 312 311 312 312 313 311 310 312 312 312 313 312 312 311
298 299 298 298 298 298 299 299 296 296 295 296 296 296 295 294 295 295 295 299 304 303 301 308 312 313 312 314 313 313 311 311 311 312 312 311 310 312 311 311 311 311 310 310
299 298 298 298 297 297 298 295 296 295 295 296 296 295 295 295 294 295 295 295 298 297 297 302 311 312 311 312 312 313 313 312 312 312 312 312 311 311 312 311 311 310 310 310
298 298 297 298 298 296 295 296 296 295 295 297 296 296 295 294 294 294 294 295 295 296 297 300 307 310 311 311 311 312 311 313 313 313 312 312 313 312 311 311 311 310 310 310
298 298 298 298 298 296 295 296 294 294 294 294 296 296 295 294 294 294 295 295 295 295 297 297 300 303 308 313 312 311 311 311 312 312 312 312 312 311 310 309 308 309 310 309
298 298 298 297 298 296 295 296 294 294 294 294 295 297 296 294 296 296 296 295 296 296 296 297 299 302 300 311 312 311 311 311 310 311 310 310 309 310 308 308 307 306 306 306
298 297 297 295 296 295 295 294 294 294 294 293 295 296 297 297 298 298 296 296 296 296 296 297 299 300 300 309 311 310 310 309 308 307 307 307 308 307 306 305 305 305 305 305
297 296 295 296 296 295 295 294 294 295 295 295 296 298 303 299 299 300 297 296 296 296 297 298 300 303 307 310 310 310 308 307 308 305 306 306 305 305 305 305 305 303 303 304
297 296 295 297 295 294 294 296 295 295 295 294 295 297 299 298 300 301 301 299 302 300 301 302 305 307 307 307 305 307 305 305 306 304 303 303 304 305 304 304 302 302 302 304
296 295 295 294 294 294 295 297 297 298 298 296 297 297 299 299 301 304 301 303 305 308 307 308 309 311 307 304 303 301 302 303 303 303 303 303 304 304 304 303 301 301 302 304
295 294 294 294 295 296 297 300 299 300 302 299 299 299 299 299 299 301 302 305 304 310 302 307 312 306 299 299 298 299 300 301 301 301 302 303 305 305 303 302 302 301 301 303
294 292 293 295 296 300 301 300 302 301 300 299 297 297 298 300 302 304 305 308 309 304 309 310 309 300 298 297 298 298 299 299 300 301 302 303 305 304 302 303 302 302 301 301
295 293 294 298 300 300 301 300 300 299 297 297 296 296 298 300 302 304 307 306 305 308 309 309 307 301 298 297 297 296 297 298 299 300 301 301 301 303 302 303 303 304 304 304
295 294 298 296 297 296 296 296 295 295 295 296 296 296 297 300 303 305 305 307 307 306 307 308 303 299 298 297 297 296 296 297 298 298 298 298 299 299 298 300 300 300 301 303
295 293 295 294 294 297 295 295 295 295 295 295 296 297 300 303 304 306 308 308 308 308 306 301 299 298 297 297 297 295 293 292 292 292 293 293 294 294 295 296 297 298 298 299
293 294 293 294 294 294 295 294 295 294 295 297 297 300 304 300 304 306 306 308 306 301 300 299 299 299 296 295 294 293 291 291 290 290 290 290 291 291 291 292 293 295 296 297

GFSNW_850_thetae_036.txt.gz
Theta_e
299 299 298 299 297 295 302 309 313 310 309 314 315 315 313 312 313 312 312 312 313 313 313 314 314 314 314 312 312 313 312 313 315 316 312 312 314 315 315 317 314 310 310 310
299 299 299 298 294 293 302 308 310 311 309 315 313 312 313 313 313 313 312 312 312 312 313 314 313 313 311 311 312 312 311 313 313 313 313 311 312 312 314 311 312 315 312 309
300 299 299 297 293 296 304 308 311 313 313 313 314 314 313 314 312 312 311 312 311 312 312 312 313 312 312 310 311 309 310 312 312 311 312 313 312 313 311 310 311 313 312 311
300 299 298 299 293 299 306 306 307 306 313 313 313 313 314 314 315 313 311 312 312 312 312 312 312 312 311 311 310 311 312 310 309 311 312 312 313 313 312 310 313 310 312 310
299 298 299 299 296 298 299 303 303 304 308 310 311 310 313 314 313 313 312 312 312 311 312 312 312 312 311 311 310 311 311 310 310 309 311 311 311 311 311 312 311 311 311 311
299 298 298 298 299 294 295 297 301 302 308 311 311 311 312 312 313 312 312 313 314 312 313 312 312 311 311 311 311 310 311 309 308 310 310 310 309 310 311 311 310 310 311 310
298 298 298 299 299 297 295 294 299 302 308 308 309 309 309 311 311 312 313 313 314 310 310 311 311 311 311 311 310 311 311 311 310 310 310 310 311 310 310 311 311 309 310 310
299 299 298 299 299 299 298 296 294 298 301 300 303 304 307 308 310 311 312 314 313 311 312 312 312 312 311 311 311 310 310 311 312 310 310 311 311 310 310 311 311 310 310 309
299 299 298 298 299 298 298 297 297 296 297 298 298 299 300 306 308 310 312 312 312 312 313 314 313 314 312 313 313 311 310 310 311 312 311 313 315 310 311 310 316 312 310 309
298 298 299 298 298 298 298 298 296 297 298 297 297 300 302 302 305 308 309 310 312 312 313 313 314 313 311 312 311 312 312 311 311 312 311 310 314 312 312 317 316 311 310 311
298 299 299 299 298 298 298 298 298 296 297 297 297 297 297 297 298 301 302 308 311 311 313 312 313 313 311 310 311 310 310 311 312 312 312 309 313 313 314 313 313 313 313 313
299 299 299 298 298 298 298 298 298 297 296 296 296 295 296 296 296 296 298 302 304 307 310 311 311 311 309 310 311 309 311 309 309 309 309 310 311 311 313 313 313 312 313 312
299 298 298 298 297 298 298 298 296 296 296 296 297 297 296 295 295 296 296 298 302 300 299 303 310 312 310 309 310 310 309 310 310 310 310 309 310 312 312 312 312 312 312 311
299 298 298 297 298 299 297 296 296 296 296 295 296 296 296 296 296 294 295 296 296 296 297 300 306 311 310 309 309 311 311 309 309 310 309 312 311 311 311 311 311 311 310 310
300 298 297 297 298 297 296 295 295 295 295 296 296 296 295 295 295 294 295 295 295 296 297 298 301 303 308 309 309 310 310 310 310 310 311 310 312 311 311 311 311 311 310 310
298 298 297 298 297 297 296 297 295 294 294 295 296 296 296 295 294 295 295 295 295 296 296 297 298 299 302 307 309 309 310 311 312 311 312 312 312 312 311 311 310 309 310 310
298 298 298 297 296 297 296 295 294 294 294 294 295 296 297 295 296 296 296 296 296 295 296 296 297 298 302 305 307 309 310 310 311 311 311 311 311 310 310 309 308 308 307 307
298 297 296 296 296 296 296 294 294 294 294 294 295 296 297 297 299 298 296 296 295 296 296 296 297 298 298 300 305 308 309 310 310 310 310 308 309 308 307 306 306 306 306 306
297 297 296 297 296 296 295 294 294 295 294 295 296 297 301 300 299 299 297 297 296 295 296 296 296 298 300 300 302 307 306 309 308 308 306 306 307 306 305 306 306 305 305 304
296 296 296 297 295 294 293 296 296 295 295 294 295 296 298 298 299 301 300 298 300 299 298 298 299 299 300 301 306 305 304 306 306 306 304 304 304 305 305 306 306 305 304 303
296 296 296 294 294 295 296 297 298 297 298 296 297 297 298 298 300 302 301 302 302 305 304 302 306 307 305 304 305 303 305 304 303 303 304 304 305 305 305 305 305 304 303 302
295 294 293 295 296 297 297 297 299 300 302 300 300 298 297 298 299 299 301 303 303 307 301 306 310 303 300 300 300 302 303 301 301 301 302 302 305 305 305 304 303 302 301 301
294 293 293 296 296 294 296 296 297 299 300 299 298 297 296 297 300 300 304 306 307 303 306 309 305 300 299 298 298 298 299 299 300 300 301 302 304 305 304 303 303 303 303 303
295 294 290 295 296 297 297 297 297 299 298 296 296 297 297 298 300 303 305 306 304 307 308 307 299 300 298 298 298 297 297 298 298 299 300 301 302 303 304 302 300 301 302 304
295 294 293 292 298 297 296 295 295 295 295 296 296 296 296 298 301 302 304 306 305 307 306 304 300 299 298 297 297 296 296 296 297 297 297 299 300 299 299 298 298 298 299 300
295 294 293 295 294 297 296 296 295 296 294 295 296 297 299 301 302 304 305 307 307 306 301 300 299 298 296 296 296 295 293 292 293 293 292 292 293 293 293 293 294 294 296 297
294 294 294 295 295 295 296 295 295 294 293 293 295 297 298 296 301 304 304 305 303 302 302 302 299 298 297 295 295 293 291 291 290 290 290 290 290 290 289 289 289 290 292 294

GFSNW_850_thetae_039.txt.gz
Theta_e
301 300 299 297 294 294 303 310 311 310 308 310 308 305 311 312 313 312 311 311 311 311 312 312 312 312 312 311 311 314 312 312 315 316 313 313 313 313 312 312 312 307 307 310
300 299 299 298 294 297 303 307 309 311 310 313 308 311 312 312 312 312 311 311 311 311 311 313 311 311 311 311 310 311 311 311 312 313 313 312 313 313 314 311 310 311 308 307
299 298 299 298 294 300 306 307 308 310 312 312 313 312 312 313 311 312 311 311 310 311 311 310 311 311 311 310 310 309 310 311 308 310 309 311 311 313 314 313 313 312 313 309
299 299 299 299 294 298 305 304 305 305 309 309 308 312 313 313 314 312 311 311 311 311 311 311 311 310 310 310 310 310 309 306 306 310 311 311 311 311 310 309 310 310 311 308
299 299 299 299 297 294 296 302 301 303 304 308 309 309 313 313 312 311 311 312 311 310 313 310 311 310 309 309 309 310 308 306 305 303 310 310 310 310 310 311 310 310 310 309
299 299 299 299 299 298 294 295 300 302 305 306 309 310 310 312 310 312 312 312 313 311 311 311 311 310 309 308 308 308 309 303 301 305 309 309 308 308 309 310 310 310 310 309
299 299 299 298 299 299 298 296 298 299 302 299 303 303 306 308 308 310 311 313 312 310 311 311 310 311 310 309 308 308 309 307 301 301 306 306 306 308 308 309 310 308 308 308
299 299 298 298 298 298 298 297 297 297 297 297 298 299 300 304 308 309 312 312 312 311 312 310 311 311 311 310 309 309 308 308 305 306 306 308 310 309 309 309 310 308 308 307
298 298 299 298 298 298 298 298 297 297 296 296 296 297 300 302 303 308 312 311 311 312 310 311 313 313 311 312 312 310 309 309 308 311 309 312 314 309 310 310 312 310 309 308
298 298 299 299 298 298 298 297 298 297 297 298 297 297 299 298 299 302 306 304 310 311 309 311 312 312 310 310 310 310 312 309 309 312 312 309 308 309 311 315 314 310 309 309
299 299 298 298 298 298 298 298 298 297 296 296 297 297 296 296 297 297 299 305 308 309 310 309 308 310 309 309 307 308 308 308 309 309 310 309 312 311 314 312 312 310 310 310
299 299 298 298 298 298 298 298 296 297 295 296 296 297 296 296 296 296 296 298 303 303 308 308 307 309 305 306 309 306 309 307 307 307 308 307 312 311 312 312 312 313 313 313
300 299 298 298 297 298 298 296 296 296 296 295 296 296 295 295 295 296 296 298 300 298 298 301 307 309 307 307 306 308 308 307 307 308 308 308 309 311 312 312 312 312 312 312
300 299 298 297 297 297 297 295 296 296 296 294 296 296 296 296 296 295 295 296 296 296 296 297 303 307 306 306 306 307 307 307 307 307 307 309 310 311 311 312 312 311 311 311
299 297 297 297 298 297 296 294 294 294 294 295 294 297 296 294 295 295 295 295 295 295 296 295 297 300 303 304 304 306 308 308 308 308 309 309 309 311 311 311 311 311 310 310
298 297 297 298 297 297 296 297 295 294 294 295 295 295 296 295 295 295 295 295 295 295 296 296 296 297 301 302 303 304 305 308 310 309 311 312 311 311 310 311 311 311 309 309
298 297 297 296 296 296 295 294 294 294 294 294 294 295 297 296 297 297 296 296 296 295 296 296 295 297 300 299 299 301 304 305 307 309 311 310 311 311 311 311 310 309 308 307
298 297 296 296 296 296 295 294 294 295 295 294 294 295 297 298 299 298 296 296 296 296 296 296 296 296 295 296 297 298 298 302 305 309 311 311 311 310 309 308 307 307 306 306
298 297 297 296 295 295 294 295 295 295 295 294 295 295 297 299 299 299 297 296 295 295 295 295 295 295 295 297 297 298 300 304 301 305 307 307 307 306 306 306 306 306 306 306
297 297 296 296 294 294 295 296 295 296 295 295 294 296 297 298 298 300 299 297 296 297 295 296 296 296 297 298 299 304 304 302 300 303 305 305 305 304 305 305 305 305 305 305
297 296 295 294 295 296 296 296 297 297 297 297 297 297 298 297 299 300 301 301 298 303 300 299 302 306 302 301 301 302 302 303 303 303 303 303 304 304 304 305 304 304 304 304
297 294 293 295 295 297 291 286 296 295 297 299 299 298 297 297 298 299 299 302 302 302 300 303 307 304 300 299 300 300 300 302 303 300 301 302 303 304 304 304 304 304 304 303
297 294 294 296 296 289 288 291 290 290 298 299 297 294 296 296 298 300 302 305 306 302 305 308 305 301 299 298 298 297 299 299 299 299 300 301 302 303 303 303 303 303 303 303
297 294 288 289 287 287 289 289 288 299 298 296 295 295 296 296 298 301 304 305 303 304 304 305 302 299 298 297 297 296 296 297 298 298 299 299 300 302 302 301 300 299 300 301
296 295 290 286 295 297 297 296 295 295 295 295 295 295 296 297 298 301 303 305 305 305 305 303 300 298 298 296 296 296 296 296 296 296 296 297 298 297 296 295 295 295 296 297
296 294 291 294 293 294 296 296 295 295 294 295 295 294 296 298 299 301 304 306 306 302 301 302 301 299 298 298 296 294 292 291 292 292 294 293 292 292 292 291 290 291 292 293
294 294 294 295 295 294 295 295 295 295 293 288 294 289 291 292 297 297 301 303 300 301 300 300 300 299 299 298 296 293 290 290 290 291 290 290 290 289 289 289 289 289 289 290

GFSNW_850_thetae_042.txt.gz
Theta_e
299 299 299 296 294 297 307 310 306 309 307 308 305 303 310 312 312 311 311 310 311 311 311 311 311 311 312 313 312 314 312 312 314 315 314 313 313 312 313 316 312 306 305 308
299 299 299 296 295 300 305 308 309 310 310 305 305 309 312 311 312 311 310 310 310 310 310 311 310 310 309 312 311 312 310 310 311 313 312 312 315 313 313 310 308 306 307 307
299 299 299 297 295 297 305 307 307 308 310 311 310 311 311 312 311 311 310 310 309 310 310 309 311 310 310 310 309 310 310 309 307 311 310 312 313 313 312 311 308 311 308 309
299 299 300 298 296 295 305 305 305 304 308 310 308 310 312 313 313 311 310 311 310 310 310 310 310 310 310 309 309 309 308 306 305 309 311 309 310 312 313 313 314 315 314 313
299 299 299 300 299 296 296 301 301 303 303 305 307 309 311 313 312 311 311 313 311 310 311 310 310 309 308 309 308 309 306 305 303 303 309 309 310 309 312 314 314 313 309 309
299 299 299 299 299 300 298 297 300 302 303 302 309 309 310 310 308 311 311 312 311 310 309 309 310 309 309 307 307 307 308 303 300 302 308 308 307 308 308 310 310 311 310 310
299 298 298 298 298 298 298 297 297 298 299 300 301 300 303 302 305 309 310 312 311 310 311 311 309 309 308 308 307 307 307 304 299 300 304 304 306 307 307 309 309 309 308 307
298 299 298 298 298 298 298 298 298 297 296 296 297 298 299 303 305 308 311 311 311 311 312 308 309 308 310 309 307 306 306 306 303 305 302 306 309 308 307 307 307 307 309 307
298 299 298 298 298 298 298 298 298 297 296 295 297 296 300 299 300 305 310 309 311 311 308 310 311 309 309 311 311 306 308 308 306 308 309 311 310 309 308 308 309 309 308 307
299 298 298 298 298 298 298 298 297 297 297 297 297 296 297 297 296 297 303 300 307 310 307 310 309 306 309 311 309 309 311 310 311 309 312 308 306 309 310 312 311 310 308 308
299 299 298 298 298 298 298 297 296 295 296 295 296 296 295 296 296 296 297 304 306 307 308 308 307 308 307 307 306 307 307 307 308 309 310 307 309 311 312 311 312 310 308 308
300 298 298 298 298 298 297 296 296 295 295 295 296 296 295 296 295 296 296 296 302 302 307 307 307 310 306 305 308 305 308 306 306 306 308 306 309 311 311 312 312 312 311 309
300 299 298 297 297 297 297 296 295 295 295 295 296 295 296 295 296 296 296 297 298 299 297 300 305 307 306 307 304 306 306 305 307 307 307 305 309 312 312 312 312 312 313 313
299 299 297 297 298 297 296 295 294 294 295 294 296 296 295 297 298 296 295 296 296 296 296 296 299 305 304 305 305 305 306 306 305 305 306 308 310 309 310 311 312 312 312 312
298 297 298 298 297 297 296 294 294 294 294 294 295 296 295 295 295 295 296 295 295 295 296 295 297 298 299 299 302 303 306 307 306 307 307 308 309 310 310 311 311 311 311 311
298 297 297 297 297 297 296 297 295 294 295 295 296 296 297 296 295 295 295 295 295 295 295 296 296 296 299 298 301 302 302 302 306 306 306 308 308 311 311 311 311 311 310 310
298 298 297 297 298 295 295 294 294 294 294 294 293 295 297 297 298 297 296 295 295 295 295 295 295 295 299 298 298 298 298 298 298 298 303 307 310 311 311 310 310 310 309 309
298 297 298 296 296 296 295 294 295 294 294 294 287 293 297 299 299 299 296 296 296 295 295 295 296 295 295 295 295 296 296 297 298 301 301 303 307 310 310 310 309 308 307 306
297 297 297 295 294 295 295 296 295 295 295 295 294 292 294 298 299 299 297 296 296 295 295 295 294 295 294 296 296 296 298 300 302 301 301 302 305 307 307 307 306 306 306 306
297 297 296 295 294 295 296 296 296 295 297 297 294 295 292 297 298 298 299 297 296 296 296 295 295 295 296 299 300 299 299 302 301 302 299 301 301 305 305 305 306 306 305 305
297 296 295 295 296 296 296 297 296 296 296 297 297 297 296 296 298 299 298 301 298 300 300 297 296 301 303 300 299 299 299 300 302 301 301 300 301 302 304 305 305 304 304 304
296 295 295 296 296 297 291 286 294 293 293 298 297 297 296 296 297 299 299 300 301 302 298 300 304 303 299 298 297 298 298 299 300 300 300 300 301 303 303 303 303 303 303 303
297 295 295 296 294 289 286 288 288 287 296 298 296 293 295 296 297 299 302 303 305 300 304 306 302 301 299 297 296 297 297 297 297 298 299 299 300 302 302 302 303 303 303 303
297 296 288 287 286 286 286 286 286 297 297 295 294 293 295 296 295 300 303 303 304 304 304 302 299 300 300 298 296 296 295 295 296 296 297 298 298 299 299 299 298 298 298 299
297 295 291 286 293 296 296 296 295 295 295 294 294 294 295 293 295 296 300 304 305 300 299 298 300 300 300 299 297 295 293 293 294 295 295 295 296 297 295 294 293 293 293 294
296 295 290 293 293 293 295 296 295 295 295 294 294 293 294 295 297 298 298 302 297 297 297 299 300 300 300 299 298 296 293 290 290 291 293 293 292 290 289 289 289 290 291 291
295 294 295 295 295 295 295 295 294 295 294 288 290 287 290 293 295 296 296 296 292 300 299 298 296 296 297 298 297 298 296 291 291 292 293 293 292 293 292 289 288 289 289 289

GFSNW_850_thetae_045.txt.gz
Theta_e
300 300 299 297 295 301 308 309 304 307 307 308 305 300 308 311 311 311 310 309 310 310 310 311 310 313 312 312 311 311 310 310 312 315 313 313 312 311 310 309 309 304 304 308
300 300 299 298 295 298 306 308 308 308 308 304 304 306 311 311 310 310 309 310 309 309 309 311 310 310 309 312 311 311 309 308 314 314 314 312 315 313 311 309 306 306 309 311
299 300 300 299 296 296 306 307 302 307 308 310 309 309 310 312 311 310 309 309 308 309 309 308 309 310 309 311 311 311 310 309 307 310 309 313 314 315 312 310 309 313 311 310
299 300 300 299 299 296 304 305 303 303 302 308 307 308 310 312 312 310 309 310 309 309 309 310 309 309 309 309 309 308 308 310 305 308 310 309 309 312 314 312 314 312 315 309
299 299 299 299 299 297 298 301 302 303 303 303 307 309 311 312 312 309 310 312 309 309 310 309 310 308 308 309 307 308 305 305 303 302 308 309 309 308 312 313 313 313 312 312
299 299 299 299 299 300 299 298 302 302 300 301 309 304 308 308 308 311 310 311 310 309 308 309 309 308 307 307 306 306 306 302 300 302 305 306 307 307 307 310 312 312 313 313
299 299 299 298 298 298 298 298 296 299 297 300 299 298 300 302 303 308 308 311 310 310 311 310 308 308 306 307 305 306 304 302 298 299 303 305 306 305 306 307 309 310 310 308
299 299 299 298 298 298 298 298 298 296 295 294 296 298 300 303 304 305 310 309 309 311 310 307 308 307 309 309 306 306 304 304 302 303 303 305 308 307 307 306 307 306 308 308
299 299 299 298 298 298 298 297 297 298 296 295 297 296 298 298 298 304 306 307 310 310 307 308 309 308 308 310 310 306 308 307 305 306 307 309 306 309 307 307 308 308 306 306
299 299 298 298 298 298 297 296 295 297 297 296 297 295 295 296 295 298 300 298 306 308 306 309 309 306 308 310 309 309 310 310 310 310 312 307 304 306 308 311 308 310 309 307
299 298 298 298 299 298 297 296 295 295 295 296 296 296 296 295 295 296 297 302 302 305 306 307 306 306 305 306 306 307 308 306 308 310 311 308 306 310 310 308 311 311 311 308
299 299 298 298 298 297 296 296 295 295 295 295 296 295 295 296 295 296 295 296 301 300 305 304 307 308 306 303 307 304 307 305 306 306 307 306 307 310 311 311 311 311 312 309
299 298 298 298 298 297 296 295 294 295 295 295 296 295 296 296 296 296 296 296 298 299 297 299 304 306 303 306 304 304 304 304 305 306 306 305 308 308 309 311 311 312 312 311
299 298 298 298 297 297 295 295 294 294 295 294 296 296 296 295 296 297 296 296 296 296 296 295 297 303 302 303 303 304 305 305 304 304 304 306 308 310 310 310 310 311 312 312
298 297 297 297 298 298 296 295 295 294 295 294 296 297 297 297 296 295 296 295 295 296 296 295 296 297 298 298 300 302 302 302 304 305 302 303 305 307 308 308 309 311 311 311
298 298 297 298 298 296 297 296 296 294 295 295 292 297 297 297 297 296 295 295 295 295 295 296 296 296 297 296 298 300 300 298 296 297 296 297 298 302 307 309 309 311 311 311
298 298 298 298 296 296 296 296 296 295 295 295 294 295 297 298 298 297 296 295 295 295 295 295 295 295 298 298 297 297 297 297 297 298 299 299 299 302 306 307 308 310 310 310
297 298 296 297 297 297 297 297 296 296 296 295 285 289 297 298 298 298 296 296 296 295 295 295 295 295 294 295 295 296 297 297 299 300 301 300 301 301 305 307 308 309 309 309
298 297 296 297 297 297 297 298 298 297 297 296 293 289 291 297 298 298 297 296 296 295 295 295 294 295 295 297 297 297 299 297 298 301 301 301 302 302 302 303 305 306 307 306
297 297 296 295 297 297 297 297 297 298 298 297 294 295 290 296 296 296 300 297 296 296 296 295 295 296 296 301 298 297 297 297 299 300 300 301 301 299 301 303 303 304 305 305
297 296 295 296 297 297 297 296 295 296 294 297 297 296 296 295 296 297 298 300 298 298 299 297 297 301 300 300 298 297 296 297 298 298 299 299 299 298 301 302 305 303 303 304
297 296 297 296 297 297 290 285 292 292 293 296 297 296 294 295 296 298 299 299 300 302 296 299 302 298 299 300 299 298 296 296 296 296 297 298 299 299 300 300 301 302 303 303
296 296 297 296 293 289 285 287 286 288 296 296 295 292 294 295 296 298 301 302 304 299 301 304 298 299 300 299 298 299 297 294 296 296 296 296 298 299 299 300 300 301 301 302
297 296 288 287 285 286 285 286 286 295 296 294 294 292 293 295 293 297 301 302 302 303 299 299 296 297 299 300 298 298 297 294 291 294 295 295 296 297 298 298 297 296 296 296
297 296 291 286 294 296 297 296 295 295 294 294 293 293 294 294 295 295 299 300 299 292 294 292 297 299 296 295 297 297 297 296 291 291 292 294 294 294 295 294 291 290 292 293
296 295 289 292 292 291 294 294 295 294 295 293 293 292 294 295 296 296 297 299 299 290 289 298 298 297 295 294 294 294 296 296 294 292 290 292 293 292 290 288 288 288 289 289
296 295 296 296 296 296 296 295 295 295 294 287 289 286 289 292 293 294 295 298 290 298 296 296 295 293 293 293 293 293 293 295 296 296 294 294 293 293 293 295 293 288 288 288

GFSNW_850_thetae_048.txt.gz
Theta_e
300 300 300 299 296 299 308 308 306 307 307 308 305 299 305 310 310 310 309 308 309 309 312 312 309 311 312 312 310 311 309 309 314 316 313 311 311 311 309 308 308 304 304 308
300 300 300 300 299 296 306 307 307 307 307 308 303 304 310 310 309 309 308 309 308 308 308 310 309 309 309 312 310 310 309 310 313 312 313 312 315 313 310 307 304 305 308 311
300 300 300 300 301 297 305 306 301 306 307 307 307 309 309 311 310 309 308 308 307 308 308 306 309 309 310 311 311 311 309 307 307 310 308 310 312 314 312 310 314 315 312 311
300 300 300 300 301 298 303 304 302 302 301 306 305 307 309 311 311 309 309 309 308 309 309 309 309 308 308 309 311 310 309 306 305 307 308 309 310 311 313 314 313 314 315 313
300 299 300 300 300 301 299 301 301 303 301 302 305 304 308 310 310 310 310 311 308 308 309 308 309 308 307 308 307 307 305 306 303 303 307 309 309 308 310 312 313 313 313 313
300 299 299 300 299 300 299 300 302 301 298 300 308 301 305 303 305 309 310 311 309 308 308 309 308 307 306 306 306 306 305 301 299 302 304 306 306 307 307 309 311 312 313 313
300 299 299 299 299 299 299 298 296 299 297 296 298 299 301 302 302 308 309 310 309 310 310 309 307 306 305 306 304 305 303 302 298 299 302 303 305 304 305 306 307 309 310 311
300 299 299 299 299 299 298 298 298 296 295 294 295 298 299 302 303 305 309 306 307 310 309 306 307 306 308 308 306 306 303 302 301 302 302 303 306 307 306 306 307 304 307 308
299 299 299 299 298 298 296 296 298 298 295 295 296 295 297 296 297 304 304 305 308 308 306 307 308 307 307 309 309 306 306 305 304 305 306 308 304 308 306 305 307 306 306 304
299 299 299 299 298 298 297 296 296 297 296 295 296 294 295 295 295 297 299 298 304 307 304 309 308 306 306 309 308 309 309 309 307 307 308 307 304 305 307 310 307 309 310 309
298 298 299 299 298 297 297 296 295 296 296 295 295 295 296 295 295 295 296 301 302 302 305 307 305 306 304 305 305 306 307 306 307 308 309 305 305 309 310 307 310 310 311 311
299 298 298 298 297 297 297 296 295 296 296 295 295 295 295 296 295 295 295 297 300 300 305 304 304 305 305 302 306 302 306 304 306 305 305 304 306 308 309 308 308 310 311 311
298 298 298 298 297 297 297 296 296 296 296 295 296 295 295 296 296 296 296 296 298 298 298 299 303 305 303 304 302 303 303 303 305 305 305 303 306 306 306 306 305 307 310 311
298 297 298 298 297 297 297 297 296 296 296 296 296 295 295 296 296 296 296 296 296 297 297 295 297 301 300 301 301 302 304 303 302 302 302 303 306 304 302 304 304 308 308 311
297 297 297 297 297 297 298 298 297 297 297 297 297 297 297 296 295 295 296 296 295 296 296 294 296 296 297 297 297 298 299 298 300 300 299 297 297 297 299 299 302 306 307 309
297 297 298 298 296 296 297 298 298 298 298 298 293 297 297 297 297 297 295 295 295 295 295 295 295 295 297 297 297 298 298 297 296 296 296 297 299 299 299 301 301 303 307 309
297 297 298 297 297 297 297 298 298 298 298 298 295 295 297 298 298 297 296 295 295 295 295 295 295 295 297 298 298 297 297 298 299 299 298 300 300 300 300 300 301 302 307 308
297 297 297 297 298 298 298 298 298 298 298 297 284 288 297 296 298 298 297 296 296 295 295 295 295 295 294 296 297 299 298 298 298 297 298 299 300 301 301 301 302 303 306 306
296 296 296 297 298 299 299 299 298 298 298 297 293 291 288 295 296 297 297 296 295 295 295 295 295 295 297 300 299 298 297 297 297 296 298 298 299 299 300 299 301 302 305 303
296 296 296 297 297 298 298 298 299 299 298 298 294 293 290 295 295 296 298 297 297 293 296 294 296 297 298 299 300 299 297 297 296 296 295 297 298 298 299 298 300 302 303 302
297 296 296 296 297 297 297 297 294 295 293 296 296 295 289 294 291 293 298 298 298 295 298 298 298 298 299 299 299 298 297 296 295 295 296 295 296 296 297 298 299 300 300 300
296 297 297 297 297 297 289 283 291 291 291 296 296 295 294 295 295 298 298 298 299 298 296 299 299 296 297 299 298 298 297 296 293 293 295 296 296 296 296 297 298 298 300 300
297 297 297 296 292 289 285 288 285 287 294 295 294 291 294 295 295 297 298 301 302 298 300 298 295 298 296 297 295 295 296 296 296 293 292 295 295 296 296 296 297 297 296 297
297 296 290 288 287 286 285 287 287 294 296 294 292 292 292 294 293 296 299 299 301 300 296 295 289 297 297 296 295 294 294 295 296 295 293 291 293 295 294 294 294 292 293 293
297 296 291 287 292 293 292 294 295 295 294 294 293 292 293 294 295 296 297 298 301 292 291 288 297 296 294 294 293 293 293 293 294 295 295 294 291 293 294 294 293 288 289 290
296 295 289 291 292 290 292 293 294 294 294 293 293 289 290 294 295 295 294 298 298 291 286 296 294 293 293 292 292 291 291 291 292 293 295 296 295 293 293 293 291 290 290 289
296 294 294 295 296 294 295 295 295 294 294 287 289 286 288 291 293 293 295 297 291 296 294 293 292 292 292 291 291 292 292 292 292 291 292 294 295 293 293 293 293 294 291 287

GFSNW_850_thetae_051.txt.gz
Theta_e
301 300 300 300 299 299 307 308 308 307 307 307 305 302 303 309 309 309 309 308 309 312 312 309 310 310 310 311 310 310 308 310 315 316 313 311 310 310 308 311 310 305 306 311
300 300 300 300 300 297 308 308 307 307 307 307 302 303 308 309 308 308 308 308 308 307 310 311 309 309 309 311 309 310 309 308 314 314 312 310 315 312 309 306 305 306 312 312
300 300 300 300 300 298 306 307 301 306 306 307 306 307 309 310 310 308 308 307 307 306 308 306 309 309 311 311 311 310 309 307 307 310 308 309 312 313 311 309 309 311 312 312
300 300 300 300 300 299 304 305 301 303 308 306 304 306 308 311 311 308 309 308 307 307 309 308 308 308 309 310 311 309 307 306 305 307 308 310 310 311 313 313 313 315 314 313
301 300 300 300 300 300 300 302 302 303 300 301 305 303 306 308 308 309 310 310 306 306 308 307 308 307 307 310 307 311 305 306 304 304 306 308 310 308 309 312 312 312 313 313
301 300 300 300 299 300 299 303 303 302 297 299 305 301 303 303 305 308 310 310 308 308 309 309 308 307 305 305 305 305 306 306 304 306 304 305 307 307 307 308 310 311 313 312
301 300 300 300 299 300 300 300 303 300 297 295 297 300 301 303 303 307 308 308 309 308 309 308 306 305 305 305 303 304 302 301 298 299 302 303 305 303 305 306 306 307 308 310
301 300 300 299 299 299 299 300 298 299 294 294 296 297 298 301 303 305 308 305 306 309 308 306 307 306 308 306 305 304 302 302 302 303 302 303 306 307 306 307 307 304 305 305
300 300 300 299 298 298 298 299 299 297 296 294 295 295 295 296 298 304 303 303 307 308 306 306 308 307 307 309 308 306 305 305 306 305 306 308 304 306 306 305 307 306 305 306
300 300 299 298 298 298 298 298 298 299 296 295 295 294 294 295 295 297 298 299 304 306 305 309 308 305 305 308 308 308 309 309 309 308 310 306 303 305 305 308 307 307 308 309
299 299 299 298 298 298 298 297 297 299 295 295 295 295 296 295 294 297 296 300 301 302 306 306 304 305 302 304 304 306 307 306 307 308 310 305 304 307 309 305 304 305 306 306
299 299 298 298 298 298 297 296 297 297 296 295 295 295 296 295 295 295 296 298 299 299 305 304 303 304 303 300 305 301 305 304 305 305 304 303 303 304 303 301 299 301 302 306
298 299 298 298 298 297 298 297 297 297 296 296 296 295 295 295 296 296 296 296 297 297 297 300 303 304 302 302 302 302 302 302 303 304 302 298 299 301 298 298 297 298 300 302
298 298 298 298 298 298 297 298 298 299 298 295 295 296 296 295 296 296 296 296 297 297 297 295 297 300 299 301 300 301 301 299 298 299 300 298 301 300 301 300 299 299 299 300
298 298 298 298 297 298 299 299 299 299 299 297 297 296 296 296 297 295 296 296 295 296 296 294 296 295 295 295 295 296 297 295 295 296 297 296 297 297 300 299 300 300 300 299
297 298 298 297 296 298 299 299 300 300 300 299 293 296 296 297 297 296 295 295 295 295 295 295 295 295 296 297 296 297 297 298 297 297 298 297 297 299 299 299 300 300 300 302
298 298 297 296 296 297 298 298 299 299 299 300 293 294 297 297 298 297 296 296 296 295 295 295 294 294 296 298 298 298 299 300 298 297 297 297 297 298 298 299 299 299 300 302
297 297 297 296 297 297 297 298 298 298 298 297 284 286 296 295 297 298 297 296 295 295 295 295 295 295 295 297 297 299 300 299 297 296 296 296 297 297 298 298 298 298 300 302
297 297 297 297 298 299 298 298 297 297 297 296 291 284 286 295 295 296 297 296 294 294 294 295 295 295 296 299 299 299 299 298 296 295 294 295 295 295 296 297 297 298 300 301
296 296 296 297 298 298 298 299 299 299 296 297 291 292 288 294 294 296 297 296 296 290 295 294 296 296 298 299 299 298 297 296 295 293 293 294 295 294 295 296 297 297 299 300
296 295 296 297 298 297 297 296 294 294 292 296 295 295 290 294 290 291 297 295 293 291 293 296 293 295 297 297 296 295 295 296 296 295 293 292 294 295 294 295 296 297 297 298
296 297 297 297 297 296 289 282 290 290 291 295 295 295 294 294 295 296 297 296 296 293 294 293 294 293 296 295 296 294 293 294 294 295 295 294 293 293 294 294 295 296 296 296
298 298 297 295 292 290 286 289 287 288 293 294 294 291 293 294 295 295 296 298 297 296 298 293 292 296 294 295 296 295 293 293 292 293 294 295 295 293 292 294 294 294 295 294
297 296 291 291 289 287 287 288 287 292 294 293 292 292 292 293 293 295 296 296 300 302 295 292 286 296 294 293 293 292 292 291 291 291 292 293 294 295 295 293 294 294 295 289
297 296 293 290 289 291 291 293 294 294 294 294 292 292 293 290 294 295 296 297 297 297 291 287 295 293 293 292 292 292 291 291 292 292 292 292 292 293 295 294 293 293 294 291
297 294 291 290 292 288 291 294 294 294 294 293 293 287 285 292 295 295 294 288 288 290 286 294 293 292 292 292 292 291 291 292 292 293 292 292 292 290 293 294 293 292 292 292
295 292 294 295 295 295 295 295 295 294 294 288 288 286 288 291 293 293 294 291 290 297 294 293 292 292 291 291 291 291 291 291 291 291 291 292 291 290 290 292 294 293 292 293

GFSNW_850_thetae_054.txt.gz
Theta_e
304 301 301 300 300 304 306 308 309 307 306 309 307 308 308 309 310 309 311 310 311 312 310 308 311 312 312 312 312 313 311 315 316 316 314 313 313 315 315 317 317 314 314 314
303 301 301 300 300 300 307 308 306 307 307 311 310 308 309 310 310 309 310 310 310 311 312 312 311 312 311 312 312 313 312 314 316 316 314 313 316 314 313 313 313 316 316 315
302 301 300 300 300 298 307 307 308 306 307 307 307 311 311 312 309 310 308 309 309 310 310 309 312 312 312 311 312 310 311 312 314 316 315 315 315 315 314 314 317 316 316 315
302 301 300 300 300 299 306 306 307 306 308 309 308 309 310 312 312 310 310 310 310 310 311 311 312 311 311 311 312 310 311 314 310 310 311 313 314 315 316 315 315 317 315 315
302 301 301 300 300 300 303 303 305 304 303 303 308 308 309 311 311 311 312 311 310 309 311 310 311 311 311 313 311 312 309 313 309 310 308 311 312 312 313 314 315 315 314 315
301 301 301 300 300 300 299 301 304 304 299 304 309 307 306 307 307 310 310 311 311 312 311 310 309 307 309 310 313 311 312 311 311 312 307 308 310 309 310 311 312 313 315 313
301 301 300 300 300 299 300 303 305 303 302 304 303 302 304 306 306 310 308 309 311 308 308 307 306 306 307 308 307 308 309 309 309 311 308 310 307 305 306 308 309 309 309 310
301 300 300 300 299 300 299 302 303 301 300 300 300 301 302 304 305 308 308 304 305 308 307 310 311 311 310 308 307 307 307 309 309 311 310 309 310 309 309 309 311 309 310 310
301 300 300 299 299 299 299 299 299 300 300 299 296 299 298 306 305 308 304 303 306 308 310 310 311 312 311 311 310 306 307 308 310 310 311 311 308 307 306 307 312 307 307 308
300 300 300 299 299 298 298 299 298 299 297 295 295 298 299 296 299 304 300 299 304 306 311 312 312 311 307 311 311 310 310 310 312 311 311 309 307 306 306 311 310 305 304 304
300 300 300 300 299 299 298 298 299 299 296 295 295 296 296 295 296 305 298 303 304 307 310 311 310 310 308 308 307 309 310 310 311 310 310 309 302 308 310 304 301 299 299 301
300 300 300 300 299 298 298 298 298 298 297 295 296 296 295 295 295 296 298 301 301 302 307 306 306 307 306 306 310 304 310 307 309 308 308 303 300 303 300 299 299 299 298 300
299 300 300 299 298 297 298 298 297 298 296 295 295 295 295 296 296 296 297 298 298 298 299 303 304 306 305 309 307 306 305 302 306 305 304 301 301 302 301 299 299 298 299 300
300 299 300 299 298 298 298 298 299 299 299 298 296 296 296 296 296 296 296 297 298 297 297 299 303 304 300 303 303 303 302 300 299 301 302 301 300 301 299 299 299 298 299 300
300 300 299 298 298 299 299 299 300 299 299 299 296 296 296 296 296 296 296 296 296 296 298 299 299 297 298 297 299 301 298 300 301 303 300 299 299 299 298 299 298 298 298 299
300 299 298 299 298 298 298 300 299 299 299 299 299 296 297 297 296 295 295 295 295 295 297 297 296 296 298 299 299 298 297 297 298 298 298 298 298 297 297 297 297 298 298 298
299 298 298 298 298 299 299 299 300 300 300 300 297 297 296 297 297 296 296 296 296 296 296 297 296 296 298 300 301 299 299 300 299 298 297 297 296 296 297 297 298 297 297 298
299 298 297 297 297 298 297 298 299 299 298 296 296 295 296 296 297 297 296 296 296 295 296 296 297 297 297 300 300 299 299 299 298 298 296 295 295 295 295 296 296 296 297 299
298 298 298 297 298 298 298 298 298 297 296 294 293 298 298 295 295 297 297 296 298 295 297 296 296 298 300 300 299 299 299 298 297 296 296 295 294 294 294 295 295 296 296 298
298 297 296 298 298 297 298 298 298 297 296 296 293 292 296 294 295 297 298 297 298 299 297 295 297 300 298 298 298 298 298 296 295 296 295 294 294 293 293 294 294 294 295 296
297 296 296 298 298 298 297 295 296 294 295 295 293 294 295 294 297 297 296 296 297 300 298 299 300 300 299 297 295 295 294 293 293 294 294 295 294 292 293 293 294 294 294 295
297 298 298 297 297 295 295 289 292 295 297 294 296 294 293 294 295 297 297 298 298 299 295 298 299 300 296 294 294 294 294 293 292 292 292 292 293 294 293 294 294 294 294 294
298 298 297 295 292 294 295 293 294 296 293 293 292 293 293 294 295 295 297 299 300 297 299 300 299 295 293 293 293 292 292 292 291 291 291 291 292 292 293 294 294 294 294 293
297 297 294 295 296 293 293 295 294 292 294 293 293 292 294 293 294 296 297 298 299 300 301 301 297 294 293 292 292 292 292 291 291 292 292 293 292 292 292 291 292 293 294 293
296 297 295 294 289 289 291 293 293 293 293 293 293 292 293 294 295 295 297 297 297 299 300 297 294 292 292 292 292 291 291 291 291 292 291 291 290 291 292 291 290 291 293 293
297 294 292 290 292 289 291 293 293 294 293 293 293 291 292 294 295 295 296 295 295 298 294 293 292 292 292 292 291 291 291 291 291 291 289 288 288 288 289 291 291 290 292 292
295 292 294 294 295 294 294 294 295 294 294 294 291 292 293 292 294 294 295 295 296 295 294 294 294 292 291 291 291 291 290 291 290 288 290 292 291 289 288 288 290 289 290 292

GFSNW_850_thetae_057.txt.gz
Theta_e
311 304 301 301 300 303 307 309 310 307 307 309 310 311 312 310 311 311 311 311 311 311 309 310 312 313 314 313 313 314 313 315 315 316 315 315 315 315 316 317 318 315 315 315
310 303 301 301 300 303 307 309 308 307 307 313 312 311 312 311 312 312 312 312 311 312 312 312 313 314 312 313 313 314 314 315 317 316 315 314 316 315 315 315 316 318 317 315
308 302 301 301 300 299 308 309 308 307 307 308 311 313 313 312 311 311 310 311 312 313 313 313 313 314 313 313 313 310 312 313 315 317 317 315 315 315 315 315 317 315 315 314
307 302 301 301 300 299 307 308 311 309 309 310 311 312 313 312 312 312 311 311 312 312 313 313 313 312 313 313 312 312 314 317 313 312 314 315 316 315 315 316 315 316 314 315
305 301 301 301 300 299 306 307 308 307 310 310 312 310 313 312 313 313 312 312 311 311 312 312 313 313 313 313 313 313 313 314 312 313 311 312 314 314 314 316 316 316 316 316
302 301 301 301 300 300 304 303 305 308 306 310 312 312 311 311 312 312 312 312 313 313 312 311 311 310 312 311 313 314 314 313 313 315 309 310 312 311 312 313 313 313 314 313
301 301 301 301 300 300 300 300 306 307 309 311 311 308 309 311 310 312 310 311 312 309 307 308 309 309 310 310 311 312 314 313 312 313 310 312 308 307 308 309 309 310 310 311
301 301 301 301 300 299 299 301 305 306 308 308 306 308 308 309 310 310 309 306 305 308 309 311 312 311 311 310 310 310 310 311 312 314 311 310 310 309 310 311 311 309 310 310
301 301 301 300 299 299 299 301 304 304 305 304 303 306 308 311 310 310 307 304 306 309 312 312 313 313 313 312 311 308 309 310 311 310 311 311 310 308 308 309 312 307 306 306
301 301 301 299 299 299 299 302 301 302 300 297 299 305 306 304 306 310 305 304 308 309 312 313 312 312 310 312 313 311 311 311 312 312 311 310 306 307 308 311 310 303 302 302
301 300 300 299 299 299 299 298 300 301 298 296 297 297 299 300 301 310 302 306 307 310 313 312 312 311 310 311 310 311 311 311 311 310 311 311 303 308 309 305 303 303 302 301
301 301 300 299 299 299 299 299 299 300 299 296 296 296 296 297 297 300 302 305 305 305 310 309 309 309 309 310 311 307 310 309 310 310 311 305 303 303 302 302 301 301 301 301
300 300 300 300 298 298 299 299 298 299 297 297 297 296 296 296 296 297 302 300 300 302 302 307 307 309 307 310 309 309 307 304 308 307 307 305 303 303 302 301 301 300 300 300
300 300 300 299 298 298 299 299 299 300 300 301 297 296 296 297 297 296 297 300 300 299 300 304 307 307 303 307 305 306 304 302 302 303 303 303 303 303 301 300 299 300 300 299
300 300 300 298 298 298 299 301 301 300 302 300 297 296 296 296 296 296 297 298 298 299 301 303 303 300 301 300 301 302 300 302 303 304 302 301 301 300 299 298 298 298 297 298
299 300 299 298 297 299 300 300 299 299 298 299 300 296 297 296 296 296 296 296 297 298 300 300 299 297 301 302 302 301 300 300 300 300 300 299 299 299 298 297 296 296 297 297
299 299 299 298 299 300 300 302 299 300 300 299 299 298 296 297 297 298 298 297 297 299 299 300 299 299 300 302 303 300 300 301 301 300 299 298 298 297 296 296 296 295 296 297
298 299 298 299 299 299 299 300 300 300 297 297 301 298 297 297 299 298 298 298 298 298 299 298 300 299 300 303 303 301 300 300 299 299 298 297 297 296 295 295 295 295 295 295
299 299 298 299 299 298 298 299 299 297 296 297 300 301 300 296 297 298 298 298 301 297 300 299 299 301 302 303 300 299 299 298 298 297 296 296 296 295 294 294 294 293 293 294
299 299 300 299 298 298 298 297 298 296 295 295 296 295 298 297 298 298 298 298 300 301 300 297 300 302 301 299 298 298 297 297 296 296 295 295 294 295 294 294 293 293 293 293
299 299 297 297 297 298 296 296 299 297 300 297 295 297 297 295 299 299 298 298 298 301 301 301 303 302 300 298 297 297 296 296 295 294 294 294 294 294 294 293 293 293 292 293
298 299 297 298 297 295 299 295 296 300 300 297 298 296 296 295 296 298 298 299 298 301 297 299 301 301 297 295 294 294 294 294 293 292 291 292 292 292 292 292 292 292 292 292
299 299 297 296 293 299 302 298 298 299 296 294 294 295 296 295 296 296 298 300 300 298 300 301 301 296 294 294 292 292 292 292 292 292 291 292 292 292 291 290 291 291 291 291
298 297 296 302 299 298 300 301 301 296 296 295 296 295 296 295 297 297 298 299 299 300 300 301 298 295 293 292 292 292 292 291 291 291 291 292 291 289 288 288 288 288 290 291
296 297 299 297 291 292 291 293 294 294 294 294 295 295 296 296 297 297 297 298 298 300 301 300 296 293 293 293 292 292 291 291 291 291 290 291 289 289 292 293 291 289 288 290
296 294 293 292 294 293 294 294 292 293 294 294 295 295 296 296 297 297 297 297 298 300 299 297 293 294 294 292 291 291 291 290 290 290 290 289 289 292 292 292 292 291 288 288
295 294 293 296 296 296 295 295 294 294 295 298 296 297 296 294 296 296 296 297 298 297 295 294 294 293 292 290 290 290 290 290 290 290 289 290 291 290 290 290 289 288 288 288

GFSNW_850_thetae_060.txt.gz
Theta_e
320 318 306 301 301 302 307 308 310 307 306 309 311 312 312 311 311 311 311 311 312 311 310 311 312 314 314 313 313 314 314 314 315 317 315 315 315 315 314 314 315 313 312 312
319 316 303 301 301 302 308 308 307 307 307 312 311 312 312 312 311 312 312 312 311 312 311 312 312 313 313 313 314 314 314 314 313 314 314 314 316 315 315 315 314 315 313 312
318 314 303 301 301 304 309 308 307 307 307 308 310 312 312 312 311 311 311 312 312 313 312 313 313 313 313 313 313 311 311 314 314 314 315 313 314 314 314 314 312 314 314 313
318 311 301 301 301 304 309 309 310 307 308 309 311 313 312 312 312 312 311 312 312 312 313 312 311 312 313 313 311 312 313 315 310 312 314 314 315 313 313 312 313 313 313 312
316 308 301 300 300 304 308 308 309 308 310 310 311 311 313 313 313 313 312 312 312 311 312 312 312 312 312 313 313 313 312 312 311 309 311 312 313 313 314 315 315 314 313 313
315 307 300 300 300 299 306 307 307 309 310 311 312 312 312 313 312 312 312 312 313 313 312 309 311 311 311 312 312 313 313 309 309 311 309 309 309 310 312 313 313 313 314 311
313 302 301 300 300 299 304 304 306 308 308 310 311 311 311 312 312 312 310 311 312 309 308 308 309 310 310 310 311 312 313 312 308 308 308 308 307 307 308 309 310 309 309 309
310 303 301 301 300 300 302 301 307 307 309 308 309 310 310 310 311 310 308 306 307 308 310 310 311 311 310 310 309 309 310 311 310 311 308 309 309 309 309 310 310 307 307 306
306 302 301 300 300 300 301 300 305 306 307 304 307 309 310 310 310 309 306 306 308 309 311 312 313 313 312 311 310 308 309 308 309 308 309 310 308 308 308 308 310 304 303 303
301 301 300 300 300 299 299 300 304 305 300 299 302 305 307 307 308 309 306 306 309 310 311 312 311 310 309 311 311 310 309 309 309 309 309 309 304 306 308 310 306 304 303 303
302 301 300 300 299 299 299 301 303 303 299 298 299 300 301 303 303 307 303 306 307 310 312 311 310 310 308 309 310 310 310 308 309 309 311 308 303 307 308 303 302 301 302 301
303 300 300 299 298 299 300 301 302 302 301 297 297 298 299 300 300 302 304 306 306 306 309 308 308 308 308 308 309 307 308 306 307 308 308 304 303 303 302 301 301 301 300 300
300 300 300 299 298 298 299 299 300 302 297 297 297 296 296 296 299 301 303 302 302 303 305 307 306 309 305 307 307 308 306 303 306 304 305 303 303 303 301 300 299 299 299 299
299 299 299 298 299 298 299 299 300 300 300 299 296 296 297 297 297 297 301 302 302 303 303 305 305 305 303 304 304 304 302 301 301 301 301 303 302 301 300 299 298 298 297 297
299 299 299 298 298 299 299 300 300 301 302 299 297 297 296 297 297 297 299 299 300 301 302 301 301 301 300 300 299 300 300 300 300 302 301 300 300 300 299 298 297 297 296 296
298 298 298 298 298 298 300 300 299 300 300 299 298 297 296 296 297 297 297 298 299 300 301 300 299 298 300 299 300 300 301 300 300 301 300 300 299 298 298 296 296 296 296 295
298 298 297 297 299 301 301 302 299 299 298 297 297 297 297 297 298 298 298 297 298 300 299 300 299 299 299 300 301 300 300 301 301 300 299 298 298 297 297 296 295 294 294 294
298 299 297 298 299 301 299 299 300 297 297 298 296 294 297 298 298 298 298 299 299 299 299 299 299 299 299 299 301 301 300 300 299 298 298 297 296 296 295 294 294 293 293 293
298 297 297 298 300 299 299 300 299 296 296 298 299 296 294 297 297 298 298 298 299 298 299 299 299 299 297 301 302 299 299 298 297 296 294 294 294 294 293 294 293 293 293 293
297 298 300 300 298 298 299 299 297 296 295 296 295 297 293 297 298 298 298 298 300 300 299 298 298 299 302 300 299 299 297 295 295 294 294 293 293 293 293 293 293 293 292 292
298 299 298 297 298 298 297 297 297 298 298 297 296 297 294 297 298 298 298 298 298 300 300 300 301 299 299 298 297 296 296 295 295 293 292 292 292 292 292 292 292 290 290 291
299 299 298 297 297 296 297 295 296 298 296 297 297 296 296 296 297 298 297 297 298 300 297 299 299 299 296 296 294 293 293 292 292 292 291 291 291 291 291 291 289 288 288 288
299 298 298 296 294 299 298 294 295 295 296 295 294 294 295 295 296 296 297 296 298 298 299 299 299 296 294 294 293 293 292 292 291 291 291 291 290 291 291 288 290 292 292 292
298 297 293 297 296 299 301 300 298 297 296 296 295 296 296 296 297 296 293 298 298 299 296 294 291 295 294 293 293 292 291 291 291 290 290 290 290 291 289 289 292 291 291 290
297 298 295 297 293 293 294 294 295 295 296 295 295 295 296 294 293 296 295 294 293 295 294 293 296 293 293 294 293 291 291 290 290 290 290 290 290 289 289 291 291 291 290 290
296 293 292 293 294 294 295 294 294 295 296 296 295 294 290 293 293 293 291 293 292 292 294 298 295 293 294 293 291 290 290 290 290 290 290 290 289 289 290 291 291 290 289 289
295 294 293 295 296 296 295 294 294 294 297 294 295 290 293 293 291 293 293 290 291 297 296 295 294 293 291 290 291 290 290 290 290 290 290 291 291 290 290 290 289 289 288 288

GFSNW_850_thetae_063.txt.gz
Theta_e
320 320 318 314 301 304 307 308 306 306 306 308 309 310 311 310 310 310 310 310 311 311 309 310 312 314 313 312 312 313 313 312 316 315 314 313 314 315 314 312 314 310 308 309
314 319 317 313 301 305 307 309 306 306 307 306 309 310 311 312 311 312 312 311 310 311 311 311 313 312 312 313 312 312 312 312 314 313 312 313 315 314 314 313 312 312 309 310
311 319 316 312 300 305 308 307 306 306 306 308 309 310 311 312 311 312 312 311 311 312 311 310 312 313 313 313 311 311 311 311 308 310 313 312 314 314 314 311 309 313 313 312
312 319 315 307 300 306 308 307 305 306 307 305 307 311 310 311 311 311 310 310 312 312 311 311 312 311 313 312 311 312 311 310 307 311 313 313 313 312 313 311 311 312 312 312
312 317 310 305 300 307 308 309 308 306 305 308 308 310 312 311 313 311 311 312 310 310 311 312 311 311 311 312 312 312 309 308 308 306 311 311 312 312 312 312 312 312 312 312
309 316 312 303 302 307 308 308 308 309 307 306 307 309 311 312 311 311 310 311 310 311 310 308 310 311 310 311 310 310 310 305 304 307 308 307 307 308 310 312 312 313 314 310
307 314 313 302 301 306 306 307 307 307 306 307 308 310 311 310 311 310 308 311 309 309 309 309 309 310 310 309 309 310 310 308 302 302 305 304 305 306 307 309 308 307 307 306
307 311 314 301 299 304 304 305 307 307 304 306 309 310 308 309 308 307 306 306 307 309 309 307 308 308 309 308 306 306 308 308 306 306 304 307 308 308 308 309 308 303 304 302
306 305 306 300 299 301 303 303 306 306 304 301 301 308 309 306 305 306 304 307 308 310 308 309 309 309 309 309 309 307 307 306 306 306 307 309 307 306 307 307 308 302 302 301
305 305 304 300 299 299 301 302 305 306 301 299 303 304 306 307 306 303 305 306 308 309 307 309 308 306 308 309 309 309 307 306 306 306 305 307 303 303 308 308 304 301 301 301
305 304 300 299 299 299 301 300 304 305 299 298 300 302 303 304 305 303 303 305 307 307 308 308 307 306 306 307 307 307 307 305 306 307 311 309 303 304 307 301 301 301 300 300
305 302 300 299 299 299 300 300 302 303 303 296 298 300 301 302 304 304 304 304 305 305 306 305 304 306 304 305 307 305 307 305 306 305 305 302 301 300 300 300 300 299 298 298
304 301 299 298 298 299 299 301 302 303 297 296 297 297 297 299 302 303 304 304 304 304 305 304 303 306 302 305 304 305 304 302 304 303 301 300 300 300 300 299 299 298 298 298
302 300 298 297 298 298 299 301 302 302 299 295 295 296 297 297 298 301 303 303 303 304 304 303 301 303 302 302 302 303 302 301 300 300 301 300 300 300 299 298 297 297 296 296
301 300 298 297 298 298 299 301 301 301 301 296 296 297 297 297 297 299 301 301 302 301 302 297 299 298 298 297 296 298 299 298 298 299 300 300 300 299 298 297 296 295 295 295
300 299 298 297 297 298 299 300 301 302 300 300 294 296 296 297 296 298 300 300 300 300 300 298 298 298 299 296 297 298 300 301 301 300 300 300 299 297 297 296 295 294 294 293
300 299 298 297 298 299 300 301 300 300 299 299 295 294 297 298 298 298 297 297 299 299 299 298 298 298 299 298 299 298 300 301 301 300 298 298 298 296 296 295 294 293 293 293
299 298 297 298 299 300 300 299 299 298 298 297 289 289 296 298 298 298 298 298 299 299 298 298 297 298 298 297 299 300 300 300 298 298 297 295 295 294 293 293 293 293 293 293
298 297 297 299 299 299 298 296 296 296 296 298 293 292 290 297 297 297 298 298 296 297 297 297 298 297 296 298 300 299 299 298 298 295 294 293 293 292 292 292 292 292 292 291
297 297 299 299 299 299 298 299 296 296 295 295 292 295 289 297 298 297 298 298 299 294 297 297 297 297 300 299 299 299 297 294 293 293 292 292 292 291 291 291 292 292 290 288
297 299 298 298 299 297 297 297 296 297 293 296 296 296 292 297 293 295 297 298 298 299 298 297 298 298 297 297 296 295 294 293 293 292 292 291 291 291 291 291 291 291 289 291
299 299 298 298 297 296 294 292 294 294 294 296 295 296 296 297 297 296 297 295 297 300 297 298 299 298 296 296 295 294 292 292 292 292 291 291 290 290 290 290 291 288 292 291
299 299 298 297 294 293 288 294 292 291 295 295 295 292 295 295 296 296 293 292 293 296 298 297 295 297 295 293 292 292 292 291 291 291 290 290 290 290 290 290 289 289 291 291
298 297 292 289 289 293 297 294 291 296 295 295 296 295 296 296 294 294 289 297 296 292 290 292 289 295 294 293 293 293 292 291 290 290 290 290 290 290 290 289 289 290 290 291
297 296 289 290 293 294 295 296 296 295 295 295 295 295 295 290 291 294 292 290 288 290 292 290 297 294 293 293 294 292 291 290 290 290 290 290 290 290 290 290 290 290 289 289
295 293 290 293 294 294 294 295 295 295 296 295 295 290 288 291 290 289 288 289 289 290 288 298 295 293 293 294 292 291 290 290 290 290 290 290 289 289 289 288 288 288 287 287
295 292 293 295 294 294 295 295 295 296 296 291 291 288 290 290 288 291 289 288 288 297 297 297 296 294 293 291 290 290 290 289 289 289 289 288 288 288 288 288 288 287 287 286

GFSNW_850_thetae_066.txt.gz
Theta_e
304 307 313 313 311 304 306 307 304 305 305 306 308 309 311 310 309 309 309 309 310 309 308 310 312 313 312 312 311 312 311 311 313 314 312 313 314 314 311 308 311 308 305 309
303 306 308 311 306 304 306 307 306 305 306 308 308 310 312 311 310 310 310 310 310 310 311 311 312 312 312 313 311 312 311 310 306 310 310 312 315 314 313 312 310 312 309 309
305 306 308 305 307 305 306 306 306 306 306 306 308 310 312 312 311 311 311 311 310 310 310 309 312 313 313 312 310 311 310 309 308 309 310 312 313 314 313 311 310 312 312 310
304 308 308 307 303 306 308 306 303 306 306 306 305 308 309 311 311 310 310 310 311 311 310 310 311 312 313 311 311 311 309 308 306 310 311 312 312 313 312 311 311 313 312 311
301 310 309 307 304 308 307 307 305 305 303 306 305 309 309 310 311 309 310 310 310 309 310 309 310 311 311 311 310 310 307 306 307 305 308 308 311 311 311 312 311 312 311 311
302 303 307 307 306 307 307 308 307 307 305 303 306 309 310 311 309 309 309 310 309 309 308 308 309 310 310 310 310 309 308 305 303 308 305 306 308 308 310 311 310 311 313 309
306 305 307 304 305 306 307 308 308 307 305 305 307 309 310 310 310 309 307 310 308 310 308 309 310 309 308 308 306 309 308 305 301 300 303 305 305 305 307 308 306 305 305 303
305 307 306 304 304 307 305 307 308 308 303 305 308 309 307 307 307 306 306 306 307 309 309 306 307 306 308 308 305 306 307 306 304 304 303 305 307 307 307 308 304 300 301 300
302 304 304 303 302 306 304 306 306 307 304 300 302 308 308 305 304 304 304 307 308 309 306 307 308 308 307 309 309 306 304 304 304 305 307 308 306 305 305 306 307 300 301 300
306 304 304 302 302 306 306 302 305 306 300 298 302 305 306 307 304 302 304 307 308 309 305 307 308 306 306 308 308 307 306 305 305 305 304 305 303 303 305 306 304 300 301 300
306 305 305 302 301 301 305 303 304 304 300 297 300 303 305 305 305 303 304 306 307 306 306 307 305 305 305 306 305 305 306 304 305 305 308 309 302 303 307 301 300 300 300 300
304 305 304 302 299 300 301 300 303 304 304 297 298 300 302 303 304 304 303 304 305 305 304 304 302 305 302 303 307 304 307 304 305 304 305 300 301 302 301 301 301 300 300 299
304 302 302 300 300 300 300 300 303 304 299 297 298 298 298 300 303 304 305 304 305 305 305 303 302 306 301 304 303 304 303 302 302 303 300 299 300 300 300 300 299 298 298 297
303 301 300 299 300 300 300 300 302 302 300 296 296 297 298 298 301 303 304 305 305 305 304 303 300 303 301 301 301 302 302 301 299 299 297 299 299 299 299 298 297 296 296 296
303 301 299 299 298 299 299 301 302 302 301 295 296 297 297 297 299 302 303 303 304 303 302 297 299 298 297 295 296 297 299 298 299 299 299 299 299 299 298 296 295 294 294 293
301 300 299 299 298 298 300 300 301 301 302 299 296 296 297 297 298 300 301 301 302 301 299 297 298 298 298 295 296 297 299 300 301 300 300 300 300 297 297 295 294 293 293 293
300 299 299 298 298 299 300 300 301 301 301 300 294 294 297 297 297 297 298 298 299 299 298 297 297 297 298 297 298 297 299 300 300 300 298 298 297 296 295 293 293 293 293 292
300 299 298 297 298 299 300 300 300 299 298 297 289 294 296 297 297 298 298 298 298 298 298 297 296 297 297 296 297 299 300 300 298 297 295 295 294 294 293 292 292 292 292 292
299 298 297 298 299 299 299 299 299 296 296 295 290 291 293 297 297 297 298 299 296 297 296 297 297 296 295 297 298 299 299 299 297 295 293 293 292 292 291 291 291 291 291 291
297 297 298 299 299 299 296 295 296 295 295 297 291 294 293 296 298 297 297 297 295 289 296 297 296 296 298 299 299 299 298 295 293 293 292 292 292 291 291 290 290 291 291 290
298 298 298 299 297 297 297 296 295 295 292 295 295 294 294 296 292 297 297 297 297 297 293 295 294 296 296 298 298 297 294 293 293 292 292 291 291 290 290 290 290 290 290 289
299 299 298 298 297 296 293 289 293 294 292 294 294 295 297 297 297 295 296 292 296 293 297 298 297 294 297 296 295 294 293 292 292 291 291 291 290 290 290 290 290 290 289 289
299 300 300 297 294 293 290 294 294 295 293 294 295 291 295 295 296 296 292 291 291 296 297 293 293 296 297 296 294 292 292 292 291 291 290 290 290 290 290 290 289 289 289 290
297 297 294 292 291 292 293 295 291 293 295 295 295 294 295 295 294 293 291 296 295 292 288 292 288 297 296 294 292 293 293 292 291 290 290 290 290 290 290 290 290 289 289 288
297 295 290 288 292 293 294 295 294 294 295 296 294 293 295 290 291 293 294 296 288 290 291 289 298 298 295 293 292 293 293 291 290 290 290 290 289 289 288 288 288 287 287 287
295 293 291 292 292 292 294 294 294 295 295 295 295 288 288 291 290 289 287 289 289 290 286 298 298 295 294 293 293 293 291 290 290 289 289 289 288 288 287 287 287 287 287 287
294 292 293 294 294 293 294 295 295 295 295 288 289 287 289 289 287 290 288 288 289 294 298 298 296 295 293 293 293 291 290 289 289 289 289 289 288 287 287 287 287 287 287 286

GFSNW_850_thetae_069.txt.gz
Theta_e
298 302 303 310 310 305 305 306 306 305 305 306 306 306 308 309 308 308 309 308 309 307 307 310 312 312 311 311 311 312 310 309 312 314 312 312 313 313 309 308 311 306 306 310
298 303 302 306 308 305 306 306 305 304 305 306 306 309 311 309 308 309 309 309 309 309 309 312 312 312 311 311 310 311 310 307 304 306 308 311 314 314 311 309 307 309 306 308
299 302 303 306 304 306 305 305 306 305 306 306 307 311 311 310 310 309 310 309 309 309 309 308 312 313 312 311 310 311 309 307 306 307 308 310 314 314 311 309 306 311 310 309
298 302 304 307 304 304 306 305 304 305 306 306 307 308 311 311 311 309 310 310 310 308 309 310 311 313 312 310 310 309 307 307 305 308 310 311 311 313 312 310 311 311 311 309
298 302 302 307 305 303 307 306 303 305 304 305 306 308 309 311 310 308 309 309 309 308 308 308 309 311 310 311 309 309 305 305 305 304 305 307 311 310 311 311 311 311 310 311
300 301 302 303 304 305 307 307 305 306 305 302 306 307 308 309 308 309 309 308 308 308 308 308 308 309 309 309 310 308 306 304 302 306 304 306 307 306 309 310 307 309 311 309
301 302 304 304 303 304 305 306 306 305 304 304 306 308 309 309 309 308 306 309 308 309 308 309 309 308 307 306 304 307 306 304 300 300 302 305 305 304 305 305 303 303 302 301
302 303 307 306 305 305 306 305 306 307 302 304 307 309 307 306 306 304 305 306 308 308 308 305 307 305 307 307 304 305 304 304 304 303 302 304 306 305 306 307 306 301 301 301
302 304 305 306 304 304 303 305 305 306 304 300 301 306 307 304 303 303 305 307 308 309 304 305 307 307 307 308 308 304 303 302 304 304 306 308 305 305 304 305 306 300 301 300
306 305 304 304 303 304 305 303 304 305 300 298 302 305 307 305 303 301 305 307 308 309 304 307 307 306 305 307 307 307 306 304 305 304 304 305 303 303 304 306 304 301 301 301
306 305 304 303 303 305 306 303 303 305 299 297 300 303 304 305 305 304 305 306 306 305 306 306 305 305 304 305 304 304 305 304 305 304 306 306 302 303 306 301 300 301 300 300
305 305 305 303 302 303 304 304 302 305 304 297 298 300 302 304 304 305 304 303 305 305 303 302 301 305 301 302 306 302 306 303 304 303 304 299 300 301 300 301 301 300 299 298
304 304 304 302 303 303 304 303 302 305 299 297 299 299 300 302 304 305 305 305 306 306 305 302 301 305 300 303 302 304 303 301 302 302 300 299 300 300 300 300 300 299 298 298
304 303 302 302 302 301 300 300 302 303 302 298 296 298 299 300 303 304 306 307 306 306 305 302 300 303 300 300 300 301 301 300 299 298 297 299 299 299 300 299 298 297 296 295
304 303 302 300 302 301 300 300 301 302 302 296 296 297 297 299 300 303 304 305 306 304 302 296 299 297 297 294 295 298 298 299 300 301 299 299 299 300 299 297 296 295 294 293
303 303 301 301 301 300 300 300 301 301 302 301 295 297 297 298 299 300 302 303 303 301 299 296 297 298 297 296 297 296 298 299 299 300 300 300 300 299 298 296 295 293 293 293
303 303 301 299 299 299 300 301 301 301 301 300 294 294 297 297 298 298 299 299 299 299 298 296 296 297 298 296 297 297 299 300 300 300 300 299 298 297 296 294 293 293 292 292
301 300 299 298 298 299 299 300 300 300 299 299 291 295 296 297 297 297 298 298 298 298 297 297 296 296 296 296 297 297 299 299 299 298 297 295 297 295 293 292 292 292 291 291
299 299 298 298 298 299 299 299 299 298 296 295 291 292 295 297 297 297 298 298 295 297 295 296 296 295 295 296 297 299 300 299 298 295 293 293 293 292 292 291 291 291 290 290
298 298 298 299 299 299 299 298 296 296 295 297 291 294 296 296 297 296 296 297 294 289 296 296 296 296 298 299 299 299 299 298 297 294 293 292 292 291 291 290 290 290 290 290
298 298 298 298 298 298 297 296 294 294 293 295 293 294 294 296 293 293 296 290 292 290 292 295 292 296 296 298 300 299 298 295 293 292 292 292 291 291 290 290 290 290 290 290
298 298 297 296 296 296 291 286 291 292 294 293 294 295 296 296 296 295 296 292 291 293 297 297 293 293 298 298 298 297 294 293 292 292 292 291 291 290 290 290 290 289 289 289
298 299 298 296 293 289 288 292 289 290 293 293 295 291 295 295 296 295 292 292 292 296 297 292 291 296 298 297 296 294 294 292 292 292 291 290 290 290 290 290 289 289 289 288
297 297 294 290 287 288 289 292 294 294 294 295 295 293 295 295 292 292 289 296 295 293 290 291 287 297 298 297 296 293 292 292 292 292 290 290 290 290 289 288 288 287 287 287
296 294 294 287 291 293 293 293 294 294 295 296 294 293 294 290 291 293 295 295 288 289 290 289 298 298 298 297 294 292 292 293 293 290 290 289 289 288 288 287 287 287 287 287
294 292 290 292 294 292 294 294 293 295 296 295 294 289 290 291 291 290 288 288 288 289 286 297 299 299 298 296 294 292 293 293 291 290 289 289 289 288 288 288 287 287 287 286
294 292 293 294 294 293 294 294 295 295 294 289 290 289 290 289 288 290 288 289 288 294 296 298 298 298 296 294 293 293 292 290 289 289 289 289 289 289 289 288 288 287 286 286

GFSNW_850_thetae_072.txt.gz
Theta_e
299 298 299 301 304 306 303 303 304 305 304 307 306 306 306 308 307 308 308 306 308 306 307 310 311 312 311 310 310 311 309 308 313 314 311 311 312 312 307 308 311 305 308 310
299 299 299 302 304 304 304 302 303 305 305 307 306 306 309 307 307 308 308 308 308 308 308 311 311 312 311 309 309 310 309 305 303 306 307 309 313 313 309 306 305 307 308 309
299 300 299 302 306 304 304 303 304 304 305 306 304 308 309 308 309 308 308 308 308 309 309 308 311 312 311 310 310 310 308 305 305 306 307 309 313 313 310 307 304 309 307 308
300 299 301 303 305 304 304 303 304 306 306 306 305 307 309 309 310 308 309 309 309 308 309 309 311 312 310 310 309 308 306 307 304 305 309 310 311 312 311 307 309 309 309 308
300 299 301 306 305 305 305 304 303 305 304 304 306 308 309 309 308 308 309 309 309 308 308 308 310 310 310 310 307 307 304 304 305 304 304 306 311 310 310 311 310 309 306 309
300 298 302 302 305 305 306 305 304 304 305 302 306 307 308 309 307 308 308 307 307 308 308 307 307 308 307 307 309 306 305 304 301 306 303 305 307 307 309 309 307 309 310 308
299 300 303 305 304 303 304 306 305 304 305 303 305 306 308 307 308 307 306 308 307 308 308 308 308 308 306 305 303 305 304 303 299 300 303 306 305 304 304 307 304 303 302 301
298 303 305 306 303 304 304 305 305 304 304 302 306 307 304 304 305 304 304 306 307 307 307 305 306 305 307 306 303 303 302 302 302 302 301 303 305 306 305 308 307 301 301 300
303 305 306 306 305 303 304 303 304 304 303 302 300 306 306 303 302 303 305 307 307 308 303 304 307 306 307 308 308 303 302 301 304 304 306 308 305 304 304 305 305 300 301 301
303 305 305 305 305 305 303 303 302 303 300 298 301 304 305 305 302 301 305 307 308 308 303 307 306 304 304 307 308 308 305 303 304 304 303 304 302 303 304 306 304 300 301 301
304 305 305 304 305 304 305 302 303 304 300 298 299 302 304 304 305 303 305 306 306 304 305 306 305 304 303 304 304 305 305 303 304 303 305 304 300 304 305 301 300 301 301 300
305 306 304 304 304 304 304 303 303 304 305 298 299 300 301 303 304 306 304 303 304 305 303 302 301 304 300 301 305 301 305 302 304 303 303 299 300 300 301 301 301 301 300 300
305 305 305 304 304 305 303 304 302 303 301 298 300 299 300 302 304 305 305 305 306 306 305 301 300 305 300 303 302 303 302 300 302 302 300 299 300 300 300 300 300 300 299 298
305 304 304 303 303 303 303 304 303 303 302 300 297 299 300 301 303 305 306 307 307 306 305 301 300 303 299 300 299 300 301 300 299 299 298 299 300 300 300 300 299 297 296 295
304 304 303 303 303 302 303 303 301 302 302 297 297 298 299 300 302 304 305 305 306 305 302 297 299 297 297 293 295 297 298 299 300 302 300 300 300 301 300 299 297 296 294 293
304 304 303 303 301 300 302 300 301 301 302 302 299 297 297 299 300 302 304 304 304 302 300 296 297 298 297 296 297 297 298 299 299 299 300 300 300 300 299 298 296 294 293 293
303 302 301 302 301 300 300 300 300 301 301 301 294 294 297 298 300 300 300 300 300 300 297 296 296 297 297 295 296 296 298 299 300 300 300 299 299 299 299 296 294 293 292 292
302 301 301 301 301 300 299 300 300 300 300 300 291 294 296 297 297 297 298 298 298 297 296 296 295 295 295 295 296 297 299 299 299 299 299 297 297 297 296 294 292 292 292 291
301 300 299 299 299 299 299 299 299 298 297 297 292 293 294 296 297 297 298 298 294 297 295 295 295 295 294 296 296 297 299 299 299 297 295 294 294 293 292 292 291 291 291 290
299 298 299 299 299 299 299 299 298 297 296 296 289 294 294 296 296 295 296 296 294 290 295 295 296 296 297 299 299 298 299 299 298 296 293 293 292 292 292 291 291 290 290 290
298 299 298 298 299 299 297 295 294 294 293 295 293 295 294 295 293 294 296 288 290 291 291 294 292 295 295 298 299 299 299 299 297 294 292 292 292 292 291 291 290 290 289 289
298 299 298 298 298 296 289 285 292 292 294 293 294 295 296 295 296 295 295 291 288 292 294 294 292 292 297 298 299 299 298 297 294 292 292 292 292 291 290 290 289 289 289 289
299 299 297 296 293 288 287 288 287 289 292 293 294 292 296 295 296 294 291 290 290 295 296 291 291 295 297 298 298 297 296 294 293 292 292 292 291 290 290 289 289 288 287 287
299 298 294 292 287 288 289 289 290 294 294 295 296 293 294 294 293 292 289 295 294 292 292 290 287 296 298 298 297 295 294 293 292 292 292 291 290 289 289 288 288 287 287 286
296 294 293 288 292 291 291 293 293 294 295 296 294 292 294 290 291 294 295 295 291 289 290 288 296 297 298 298 297 296 294 292 292 293 292 290 289 288 288 289 289 288 288 287
294 293 288 291 291 291 291 293 293 294 296 295 294 288 290 292 292 290 287 289 290 290 285 296 298 298 298 298 297 295 293 292 292 292 290 289 289 289 289 289 289 288 288 288
293 292 293 293 293 293 294 294 294 296 294 288 288 288 289 288 287 290 288 289 290 293 295 298 298 298 297 297 295 293 292 292 291 289 289 289 289 289 289 289 288 288 287 287

GFSNW_850_thetae_075.txt.gz
Theta_e
300 299 300 300 302 303 304 303 304 303 303 304 305 305 304 307 306 307 307 306 306 306 306 310 311 311 310 309 309 310 309 310 312 313 309 309 311 311 306 312 311 306 309 310
300 300 301 299 304 303 304 301 302 303 304 307 307 306 307 306 307 307 307 308 308 307 308 310 310 311 310 309 309 309 308 306 305 310 309 309 312 311 307 305 305 307 310 310
300 300 300 301 305 304 304 302 303 302 304 305 304 308 307 307 308 308 307 307 307 307 308 307 311 311 310 309 310 309 306 305 306 308 309 309 313 312 308 307 308 309 308 308
300 300 298 302 304 305 304 302 304 304 305 306 304 306 307 308 309 308 308 308 307 307 309 308 311 310 309 309 308 306 305 307 303 304 306 310 311 312 311 308 308 309 308 308
300 300 298 302 304 304 304 303 303 304 304 304 304 307 307 308 307 308 308 308 308 306 307 307 309 310 309 309 306 306 303 304 304 303 304 307 310 309 310 310 309 308 306 309
300 299 302 304 303 305 304 304 304 304 304 303 305 308 307 308 306 307 306 306 306 306 307 307 307 308 306 305 307 305 304 303 301 306 302 305 307 306 309 309 307 307 309 307
299 300 304 304 304 305 304 305 304 304 305 304 305 307 307 307 306 306 305 307 306 307 307 307 307 306 305 304 303 303 304 302 299 301 303 307 304 303 303 307 305 304 303 302
299 304 305 306 305 305 305 305 304 304 304 302 306 307 304 304 304 303 304 306 307 306 307 305 306 305 307 305 301 301 301 302 302 304 302 304 304 305 306 307 307 302 300 300
301 305 306 306 304 305 305 302 303 304 303 301 299 304 305 302 302 302 305 306 307 308 301 303 306 306 306 308 307 303 302 300 304 304 306 308 304 304 303 304 305 300 301 300
303 305 306 305 304 304 302 302 303 304 300 298 300 303 304 304 302 301 304 307 308 307 303 306 306 303 304 307 308 307 304 302 304 304 304 304 301 302 303 307 304 300 301 301
304 306 305 304 304 304 302 303 303 304 301 297 299 301 303 304 305 303 305 305 307 303 305 305 304 304 302 303 303 305 305 303 304 303 305 303 300 303 305 301 300 301 301 301
305 306 305 304 305 304 303 303 304 305 304 298 298 299 301 303 304 306 304 304 304 304 302 301 300 303 299 300 304 300 304 302 303 303 303 299 300 301 302 302 302 301 301 301
305 305 305 305 305 304 303 303 303 303 302 299 299 299 300 302 305 306 306 305 306 305 305 301 299 304 299 303 302 302 301 300 301 302 299 299 301 301 301 301 301 301 301 300
305 305 304 304 305 304 303 303 302 304 303 300 298 300 301 302 304 305 306 307 307 306 305 302 300 303 299 299 299 300 300 299 299 299 299 299 300 300 301 301 300 300 299 297
304 303 303 303 304 304 303 303 302 301 302 298 298 299 300 301 303 305 306 306 306 305 303 297 300 297 296 293 295 297 298 299 301 302 301 300 301 301 301 300 300 298 296 294
305 304 304 303 302 303 303 303 302 301 303 303 300 298 299 300 302 303 304 305 305 303 301 296 297 297 297 297 298 299 301 301 301 300 300 300 300 301 300 300 298 296 295 294
304 303 303 302 300 301 302 300 300 301 301 302 295 294 298 299 301 301 301 301 301 300 298 296 296 297 297 294 296 297 298 299 299 299 299 299 300 300 299 299 297 294 293 292
303 303 302 301 300 299 300 300 301 300 300 300 290 292 296 298 298 298 299 299 299 297 296 296 295 295 294 295 296 297 298 299 299 299 299 298 297 298 297 297 295 292 292 291
303 301 301 301 300 299 299 300 300 299 297 298 292 293 293 297 297 297 298 298 295 296 295 295 295 294 294 296 296 297 298 299 299 299 299 296 295 295 294 292 292 291 291 290
301 299 298 299 299 299 299 299 300 299 297 296 291 294 291 296 296 295 296 295 293 290 295 295 295 295 297 297 297 297 298 299 298 297 295 294 293 292 292 292 291 291 290 289
298 298 298 299 299 299 297 296 295 294 294 294 294 295 294 295 293 293 295 288 288 290 291 294 292 294 295 298 299 299 298 299 298 297 294 292 292 292 292 292 291 290 289 289
298 298 298 298 298 296 289 285 290 292 293 292 293 295 296 296 296 295 294 291 289 291 292 294 292 291 296 298 298 299 299 299 298 295 292 292 292 292 291 290 289 289 289 288
297 297 299 296 293 289 288 289 288 289 292 293 294 294 296 295 295 294 290 290 291 293 293 290 290 294 297 298 298 298 298 298 295 293 292 291 292 292 290 289 289 288 288 288
297 297 293 292 287 289 290 289 289 293 294 294 296 294 294 294 293 293 289 294 293 290 289 290 286 295 297 298 298 298 297 295 293 292 291 292 292 290 289 288 288 289 288 288
297 294 293 289 293 291 290 292 294 293 295 296 294 293 294 291 291 294 293 293 290 288 290 288 295 296 297 298 297 296 295 294 292 292 292 292 290 288 288 289 289 288 288 288
294 293 288 289 290 288 290 291 293 294 295 295 294 290 289 290 291 290 289 289 289 289 285 295 297 297 297 297 297 296 295 293 292 292 291 289 288 289 289 289 288 288 287 286
294 292 292 291 292 292 292 293 294 294 295 289 289 288 291 288 285 289 287 288 288 293 295 297 298 297 297 297 296 295 293 292 291 290 289 288 288 288 288 288 287 286 285 285

GFSNW_850_thetae_078.txt.gz
Theta_e
300 300 301 300 303 302 304 303 304 300 303 303 304 308 307 307 308 308 308 309 308 310 311 313 313 314 312 310 311 313 312 315 317 316 312 311 314 314 312 317 314 312 315 313
300 300 300 305 303 303 303 301 302 303 303 307 307 308 308 307 308 308 309 310 310 308 311 313 313 313 311 311 312 312 311 314 318 317 315 313 316 313 311 311 313 312 316 314
300 300 301 305 304 304 304 303 304 301 302 305 307 309 308 308 308 309 308 309 309 310 311 312 313 313 312 310 311 308 309 311 312 316 314 314 316 314 312 313 317 314 313 312
301 299 302 304 305 305 305 303 303 303 307 307 306 307 308 308 309 309 308 310 310 310 312 312 313 312 311 310 308 309 311 313 309 310 310 313 314 314 314 314 311 314 312 313
300 299 303 304 304 305 304 303 305 303 306 306 305 308 308 309 309 309 310 310 309 310 310 310 312 312 311 312 311 310 309 313 309 313 309 312 313 313 313 313 312 312 311 312
299 301 304 304 304 305 304 304 304 305 305 306 308 309 309 309 309 308 307 309 310 310 308 308 308 309 308 308 311 310 310 311 313 314 308 310 314 309 312 312 311 311 313 311
300 303 305 304 305 305 304 305 304 305 306 307 307 308 308 309 308 310 306 308 310 307 306 307 308 308 308 308 307 306 310 309 309 314 310 315 308 306 307 308 309 308 308 308
301 305 306 305 305 304 305 305 304 304 306 306 307 307 307 307 306 307 307 306 307 306 306 310 311 311 311 310 307 307 307 308 310 314 313 308 307 307 308 309 310 306 307 305
305 306 306 306 305 304 304 304 305 304 307 303 298 305 307 309 308 308 307 306 306 307 308 309 310 311 309 311 310 307 308 308 311 310 311 310 308 306 305 306 310 305 304 305
305 306 306 305 305 303 304 304 305 305 302 298 300 304 305 304 306 308 307 307 308 307 310 310 310 310 306 310 310 310 311 310 311 311 312 310 305 305 304 309 308 303 303 304
305 305 305 304 304 302 304 305 305 306 302 298 300 301 302 304 305 310 307 308 309 309 310 310 309 309 307 308 306 308 310 311 311 309 311 309 303 305 308 306 301 303 302 303
306 305 305 304 303 302 304 306 305 306 305 300 300 300 302 303 304 305 305 306 306 306 309 307 307 307 306 307 309 304 309 308 309 309 309 303 302 304 303 303 303 302 302 302
305 305 304 304 304 303 302 304 304 304 302 300 300 300 301 302 304 304 306 306 306 306 305 306 306 309 305 309 309 307 305 302 307 306 305 304 302 302 302 302 302 302 302 301
305 305 304 304 304 304 302 302 304 304 304 304 300 301 302 303 305 305 306 306 307 306 305 305 307 308 302 306 304 306 305 303 306 306 304 301 302 302 302 302 301 301 300 299
304 304 305 304 304 304 303 302 302 303 303 302 299 301 302 303 304 305 306 306 306 305 306 306 307 301 302 299 300 305 302 306 307 308 304 303 302 301 302 301 300 300 298 297
304 303 303 304 304 304 303 302 303 302 304 303 303 299 300 301 303 303 304 304 305 303 302 300 298 298 300 304 305 304 301 302 302 303 301 301 301 301 301 300 300 298 297 295
305 303 303 302 302 304 301 300 301 301 301 303 300 300 299 299 301 302 302 302 302 301 299 299 299 298 299 301 305 301 298 300 300 300 300 300 300 299 300 299 298 297 295 293
304 303 303 301 300 300 301 300 301 301 300 301 299 299 298 298 299 300 300 299 299 298 297 296 298 296 297 302 301 298 297 298 299 299 299 299 298 298 298 298 297 294 291 291
303 303 302 300 300 300 300 300 300 299 299 298 298 303 304 297 297 298 298 298 301 297 299 298 297 298 301 301 298 297 298 299 299 299 299 298 296 295 295 293 291 291 291 291
301 301 301 300 300 299 299 299 299 300 299 297 299 295 300 297 296 297 298 296 299 302 298 295 298 301 299 297 298 297 298 299 299 298 296 296 294 293 292 291 291 291 291 290
300 299 298 298 299 299 298 297 297 296 296 294 295 296 297 296 299 300 296 298 296 301 299 300 301 301 299 298 298 298 298 299 298 298 296 293 292 292 292 291 291 290 289 288
299 298 298 298 298 297 295 294 292 294 298 293 295 295 296 296 296 298 296 298 295 301 295 298 300 300 297 297 298 298 298 298 298 297 294 292 292 291 292 291 290 289 288 288
298 298 298 296 294 294 295 295 295 294 293 293 294 296 296 295 295 295 296 297 299 294 297 299 299 295 297 298 298 298 298 298 298 296 293 291 291 292 291 289 288 288 288 289
297 297 293 295 294 294 296 297 297 293 294 294 296 294 296 295 296 295 297 296 295 295 295 299 299 296 297 298 298 298 298 297 295 293 292 291 292 291 289 288 288 288 288 288
298 296 295 294 293 291 291 292 293 293 294 296 295 293 294 295 295 295 295 294 295 296 300 299 295 296 297 298 298 297 297 295 294 292 291 292 291 289 289 288 288 288 288 286
297 294 292 290 290 291 291 291 292 294 295 296 295 293 294 296 296 295 295 296 298 301 295 294 296 296 297 297 297 297 296 295 293 292 292 290 289 288 288 288 288 286 285 285
297 293 292 292 292 292 292 292 293 294 295 297 293 293 296 291 294 294 294 297 299 294 294 297 297 297 297 297 297 296 295 293 292 291 289 288 288 288 288 286 285 285 285 285

GFSNW_850_thetae_081.txt.gz
Theta_e
301 300 304 304 304 304 303 303 302 302 302 302 304 309 309 307 309 309 310 310 311 312 312 313 314 315 314 312 313 314 313 316 318 317 314 313 316 314 314 319 318 317 319 316
301 303 304 305 304 304 303 301 300 301 303 308 309 309 308 309 309 310 310 311 311 311 313 315 314 314 312 312 313 314 312 316 321 319 317 316 316 315 315 315 317 315 319 316
301 302 304 305 305 304 304 304 304 303 303 306 309 309 308 309 310 311 310 311 311 312 314 314 315 315 313 312 312 309 311 313 315 319 317 316 317 315 314 316 319 315 315 314
300 302 304 304 305 305 305 304 305 304 308 308 310 309 309 310 311 311 311 311 311 312 314 314 314 314 313 312 310 311 314 314 313 313 313 315 315 315 315 315 314 315 314 314
301 303 303 304 305 305 304 306 307 306 306 306 310 309 309 310 311 311 311 311 311 312 313 314 314 312 313 313 313 312 313 315 312 316 312 314 314 314 315 314 314 313 313 314
301 304 304 304 305 304 305 305 305 307 307 309 310 309 309 310 311 310 310 311 312 312 311 311 311 311 310 311 312 312 313 314 317 316 312 312 315 310 313 314 313 313 314 313
305 305 305 304 305 305 305 305 306 308 309 310 309 309 310 310 311 311 310 310 312 308 308 310 311 311 311 310 310 310 312 312 314 317 314 317 309 308 309 310 312 312 312 311
306 306 306 305 304 305 305 305 306 308 309 309 309 310 310 310 309 310 309 308 308 307 308 312 313 312 313 312 310 310 310 311 312 316 314 310 309 309 310 311 312 310 311 309
306 306 305 305 304 304 304 304 306 308 309 306 301 309 310 311 311 311 308 307 308 308 310 310 312 313 311 312 311 310 311 311 313 312 312 311 310 308 307 308 311 308 309 309
305 305 305 305 304 303 304 304 306 307 306 300 301 308 308 308 310 311 309 309 310 309 311 311 312 311 309 311 311 311 312 312 313 312 313 311 308 307 306 311 311 307 307 308
305 305 305 304 302 304 305 306 306 307 304 300 301 302 305 307 309 311 310 310 311 311 311 311 310 310 310 310 309 310 311 312 312 312 313 312 306 306 309 308 305 306 306 306
304 304 303 302 302 304 306 306 306 307 306 301 302 302 303 304 304 306 307 309 310 310 310 310 310 309 309 309 310 307 310 310 310 310 311 306 306 307 305 305 306 305 305 304
304 304 303 303 302 302 304 305 306 306 304 302 302 301 303 304 305 305 307 308 307 307 307 309 310 310 309 309 309 309 308 306 308 308 308 307 306 305 304 303 304 303 303 302
305 304 304 304 303 302 302 304 305 306 305 308 302 303 303 304 305 305 305 305 306 306 306 309 310 309 306 309 307 308 308 306 308 308 308 306 305 304 304 302 302 302 301 300
305 305 304 304 304 303 302 302 303 304 306 307 303 302 302 304 305 305 305 305 305 306 309 310 309 305 305 304 304 307 305 308 308 308 307 306 304 302 302 302 301 300 300 298
304 304 304 304 304 304 303 303 302 304 305 305 307 302 301 302 304 304 304 305 305 304 306 307 303 300 303 307 308 307 306 305 305 306 302 302 302 301 301 300 299 299 298 297
304 303 303 303 304 303 303 301 301 301 302 304 304 304 300 301 302 303 303 303 303 303 303 304 303 302 302 306 307 305 302 303 301 301 301 301 301 301 300 299 299 298 297 294
304 304 303 302 302 303 301 300 300 301 300 302 305 305 301 300 302 303 301 302 301 301 302 300 301 300 300 304 305 301 299 299 300 300 300 300 299 299 299 298 298 296 292 291
304 303 303 301 301 301 301 300 300 300 299 303 303 307 307 299 300 300 301 300 305 300 302 301 300 303 304 305 304 301 300 300 300 299 299 299 298 296 296 295 292 291 291 291
303 302 302 301 301 301 300 300 299 300 299 298 302 300 303 300 300 301 302 300 304 305 302 298 300 303 303 301 299 298 299 299 299 298 297 297 296 294 293 292 291 291 291 290
301 300 299 298 299 299 299 299 300 299 300 298 298 300 300 298 303 304 300 303 301 304 303 302 305 304 302 299 299 298 298 298 299 298 298 296 294 293 292 292 292 291 290 288
300 299 299 299 299 298 298 302 296 297 302 295 298 297 298 297 298 301 298 302 299 304 299 301 303 305 300 298 298 298 298 298 298 298 296 294 292 292 292 292 291 290 288 288
298 299 299 298 296 299 299 301 301 299 296 295 296 298 297 296 297 298 299 300 302 297 300 302 304 299 297 298 298 298 298 298 298 297 295 293 292 292 292 291 289 288 288 288
298 297 298 300 299 298 302 300 301 297 297 296 298 296 298 297 298 298 300 299 297 299 299 302 304 298 297 298 298 299 298 298 298 297 294 292 291 292 291 289 288 288 288 288
297 296 300 299 298 295 294 293 293 293 295 296 297 296 297 298 298 298 297 297 298 299 304 307 300 297 298 298 298 298 298 298 297 294 293 291 292 291 289 288 288 288 287 286
297 295 296 293 294 296 293 293 294 294 295 296 296 297 298 300 300 298 298 299 301 305 301 298 296 297 297 298 298 298 297 296 294 293 292 292 291 289 288 288 288 286 285 285
297 296 295 295 295 297 295 294 294 294 295 299 298 297 300 295 298 298 299 300 305 299 295 295 296 297 297 298 298 297 296 295 294 292 291 289 288 288 288 287 286 286 286 285

GFSNW_850_thetae_084.txt.gz
Theta_e
301 304 305 305 303 303 303 303 303 302 302 303 303 307 308 307 309 310 310 310 312 313 313 314 315 315 314 313 313 314 313 315 317 316 314 314 314 314 313 315 316 315 314 313
302 304 305 305 304 303 302 301 301 302 303 308 307 308 309 310 310 311 311 311 311 312 313 315 314 314 312 313 313 312 312 313 317 316 315 315 315 313 314 315 316 313 315 312
303 304 304 304 305 304 304 304 304 303 304 306 307 309 310 310 311 311 311 311 312 313 314 314 314 314 313 312 312 310 311 312 313 314 315 314 314 313 313 314 312 313 313 311
303 304 304 304 305 305 304 306 306 305 308 309 310 309 311 312 311 311 311 311 311 312 314 314 314 313 313 312 311 311 313 312 309 312 314 314 314 314 313 312 311 312 311 312
304 305 303 305 305 304 306 307 307 306 307 308 309 308 311 311 311 311 311 312 312 312 313 313 313 313 312 312 312 312 312 311 312 309 312 312 311 311 313 313 313 312 312 312
306 305 304 304 304 305 305 306 306 308 308 309 308 309 310 311 311 310 310 311 311 311 310 311 311 311 310 310 311 311 312 311 310 312 311 311 312 309 310 313 312 311 313 312
306 306 305 305 305 306 306 307 308 309 309 309 309 310 310 311 311 311 310 310 311 308 308 310 311 311 311 310 309 309 311 311 310 310 312 311 309 308 308 309 311 311 310 310
306 306 305 305 305 305 305 307 308 309 308 309 309 309 310 310 310 310 309 308 308 308 309 311 312 311 312 311 310 309 308 310 308 309 309 309 308 309 309 309 311 309 309 308
306 304 305 304 304 304 305 306 308 309 308 305 303 309 310 310 310 309 308 309 308 309 309 310 311 310 310 311 311 310 310 310 310 310 311 311 309 308 307 308 309 307 309 308
305 305 305 304 304 304 304 306 308 308 305 303 303 306 307 309 310 309 310 310 311 310 310 309 310 309 308 310 310 309 310 309 310 310 310 310 308 307 307 310 308 307 308 308
305 305 303 303 304 304 305 306 308 308 305 303 303 305 306 308 309 310 310 309 310 311 310 309 308 308 308 308 308 309 309 309 309 309 310 308 307 306 309 306 305 306 306 306
304 303 302 303 305 306 306 306 307 307 307 304 304 304 305 306 306 308 308 309 310 309 309 308 307 307 306 307 308 306 307 308 308 308 308 306 306 307 305 305 306 305 305 305
304 303 303 303 303 305 306 306 306 307 306 304 304 302 304 305 305 305 307 308 307 308 306 308 307 309 306 307 307 308 307 306 305 306 307 306 306 306 305 305 305 304 304 304
305 304 304 304 303 302 303 305 306 307 307 307 304 304 304 305 306 306 305 305 306 306 307 309 307 307 306 306 305 305 306 305 305 305 306 306 306 305 305 304 303 303 302 301
305 305 304 304 304 303 302 303 304 304 308 306 303 303 303 304 305 305 305 306 306 307 309 306 306 305 304 303 301 303 305 304 305 304 306 305 304 304 303 303 302 301 301 300
305 304 304 305 305 304 303 304 302 304 304 306 304 304 303 303 303 304 304 305 305 305 306 307 304 302 302 303 304 306 307 306 306 305 304 304 303 302 302 302 301 300 299 298
304 304 304 304 304 304 303 300 300 301 302 305 305 304 301 301 302 303 303 303 304 304 305 303 304 302 301 302 303 305 306 305 304 303 303 302 301 302 300 300 300 299 298 297
304 304 303 303 303 304 303 301 300 301 301 301 300 302 301 300 302 303 302 302 302 302 303 301 300 300 300 300 303 302 302 302 302 301 301 302 301 300 299 299 298 297 294 292
304 303 303 301 301 302 303 302 301 300 300 301 301 301 302 299 301 302 302 301 300 302 300 300 299 299 299 301 303 304 303 301 300 300 299 299 299 298 297 296 295 292 291 291
304 303 301 301 301 302 302 303 300 300 299 297 301 302 299 301 301 302 303 301 300 298 300 299 297 299 302 303 304 304 302 300 300 299 298 298 297 297 295 293 292 291 292 291
302 301 300 299 300 301 301 299 299 300 299 299 299 301 297 300 299 301 301 300 297 298 298 298 299 300 300 302 302 300 299 299 299 299 299 299 298 296 293 292 292 292 291 290
301 299 299 299 298 298 296 296 297 296 299 297 298 297 299 298 299 301 299 298 295 297 298 298 299 299 302 300 300 299 298 298 299 298 298 296 294 293 292 292 292 291 289 288
299 299 299 298 298 296 295 295 296 296 297 296 296 296 297 297 298 299 297 296 297 297 294 298 300 301 300 298 298 298 298 298 298 297 296 295 294 292 292 292 291 289 288 288
298 297 294 295 295 295 298 298 299 298 297 296 298 297 298 297 296 297 296 298 296 292 293 298 297 300 299 298 298 298 298 298 298 297 297 295 293 292 292 291 289 288 288 288
298 296 295 296 299 298 298 297 294 293 296 298 297 296 298 295 296 296 294 293 290 294 296 297 302 299 298 298 298 299 298 298 298 298 296 294 292 291 291 289 288 288 287 286
297 296 294 296 295 296 295 294 295 294 297 297 297 295 293 294 294 294 292 293 295 299 297 299 298 297 298 298 298 298 299 299 298 297 294 293 292 291 289 288 288 286 286 286
297 296 296 296 296 299 296 295 295 294 296 294 296 293 294 291 292 294 294 295 297 301 297 297 296 297 298 298 298 298 298 297 296 295 293 292 290 289 288 288 286 286 286 286

GFSNW_850_thetae_087.txt.gz
Theta_e
304 304 304 303 303 302 302 302 302 302 303 304 303 306 306 306 310 310 310 309 311 311 312 313 314 314 314 313 312 313 312 313 311 315 313 312 313 313 311 312 314 311 312 315
304 304 304 304 303 303 302 302 302 302 303 302 304 307 309 310 310 310 310 311 310 311 313 313 313 313 312 312 312 311 310 311 311 312 310 311 313 311 311 313 309 311 311 313
305 304 304 304 304 303 304 303 303 303 305 305 305 307 309 310 310 310 310 310 311 311 313 312 313 313 312 312 311 310 310 309 310 310 312 312 313 312 311 309 308 310 310 310
305 304 304 304 305 304 305 305 301 304 301 305 305 307 310 310 311 310 309 309 310 311 313 312 312 312 312 311 311 310 309 309 306 310 313 311 310 311 311 311 310 309 310 311
305 304 305 304 305 305 306 305 305 306 305 307 307 307 309 310 310 309 310 310 309 309 309 309 311 311 310 311 309 311 309 307 310 306 310 309 308 308 310 311 311 309 309 311
305 305 305 305 305 305 306 306 306 307 307 305 305 307 309 310 310 309 309 309 309 309 308 307 308 310 309 309 309 308 310 307 304 307 309 310 308 307 309 311 309 311 312 310
306 304 305 305 305 306 307 307 307 307 305 305 306 309 309 309 308 309 308 308 308 308 309 310 311 310 309 308 307 307 309 307 303 304 308 307 307 307 307 309 310 309 308 308
305 305 305 305 305 305 307 307 308 308 304 305 307 308 308 309 309 308 308 308 308 308 309 308 309 308 310 310 309 308 306 306 305 306 304 307 307 308 308 310 309 307 308 306
304 304 305 305 305 305 305 306 308 308 305 303 302 305 309 306 307 306 309 309 310 309 307 306 308 308 309 309 306 307 307 306 306 307 309 309 307 307 307 307 307 306 307 305
304 304 304 304 305 305 304 307 308 307 305 304 304 304 305 308 307 305 308 309 309 309 305 306 307 305 307 308 308 307 306 306 307 306 307 307 307 306 306 308 305 306 307 307
305 304 302 303 304 305 306 307 308 308 306 305 305 305 306 307 308 306 309 308 308 307 306 306 305 305 305 306 306 307 307 305 307 305 307 305 306 305 307 305 305 306 306 306
304 303 303 303 304 306 306 306 307 307 307 305 304 305 305 305 306 307 307 308 307 307 306 304 303 305 303 304 304 305 304 304 306 304 305 304 306 306 306 306 306 305 305 305
304 304 304 304 303 303 305 305 306 307 306 305 305 305 305 306 306 306 307 307 306 308 305 306 304 306 302 304 303 306 304 304 303 304 304 304 305 306 306 305 305 305 304 304
304 304 304 304 304 303 304 305 305 306 307 305 305 305 305 305 305 306 305 305 306 306 306 306 303 304 304 302 302 303 303 303 303 303 303 305 305 305 305 304 304 303 303 302
305 304 304 304 304 304 303 303 304 304 307 305 304 304 304 304 305 305 305 305 305 306 307 302 303 303 302 300 299 299 303 302 303 303 304 304 304 304 304 304 303 302 302 301
305 305 305 304 305 304 304 305 302 303 304 306 300 303 303 303 304 304 304 304 304 305 306 305 304 302 301 299 300 302 305 305 306 305 305 305 304 303 302 302 302 301 301 299
304 304 304 304 304 304 304 302 301 301 302 304 303 301 302 301 301 303 303 303 304 304 305 302 302 302 301 298 301 303 306 305 305 305 305 303 302 302 301 301 301 300 299 298
304 303 303 303 303 303 304 304 300 300 302 301 299 296 301 300 301 302 302 303 302 302 302 301 299 299 298 299 299 303 304 305 304 304 303 303 303 301 300 299 299 298 297 293
301 304 303 302 302 302 304 304 302 301 301 299 297 291 294 300 301 302 302 301 297 301 298 298 299 297 298 299 301 302 302 303 303 301 301 301 301 300 299 298 297 295 292 292
302 303 303 301 301 302 302 303 302 300 299 298 298 300 295 300 300 301 300 300 297 294 298 299 297 297 301 304 303 304 304 303 301 300 299 299 298 298 297 296 293 292 292 292
303 302 301 301 300 301 300 300 298 300 297 298 298 300 295 299 296 297 300 296 292 293 295 297 297 301 298 302 302 302 303 303 301 300 299 299 299 298 296 294 292 292 292 291
302 301 299 299 299 298 292 289 295 294 295 297 296 298 299 298 299 300 298 295 292 293 296 294 297 298 301 301 300 300 301 300 300 299 299 299 298 296 294 292 292 292 291 289
301 299 298 298 297 292 291 292 289 291 296 296 297 294 297 297 298 298 294 294 296 295 290 294 295 298 300 300 299 298 298 299 299 298 297 296 295 294 292 292 292 291 289 288
298 298 292 292 289 290 292 291 291 298 297 296 297 297 297 297 295 295 292 295 294 289 289 294 293 300 300 299 298 298 298 298 298 297 296 296 294 293 292 292 291 289 288 288
298 297 292 291 296 297 298 299 296 295 296 297 297 296 296 292 293 294 292 290 289 290 292 292 301 299 299 298 298 298 298 298 297 297 297 296 294 292 292 291 289 288 287 286
298 296 293 296 294 294 295 296 295 295 296 298 298 291 289 292 291 291 291 289 290 291 290 299 299 298 298 298 298 298 298 298 298 297 297 295 293 292 291 289 288 287 286 286
299 296 296 296 295 295 297 296 295 295 297 290 292 289 293 289 288 291 291 291 292 299 300 298 297 296 297 297 298 298 298 298 298 297 296 294 292 291 289 288 287 286 286 286

GFSNW_850_thetae_090.txt.gz
Theta_e
304 304 303 303 301 302 302 301 301 302 304 303 302 306 306 306 308 309 309 308 310 310 310 312 313 313 311 312 312 313 311 311 311 314 312 312 312 313 310 313 313 309 310 313
304 304 304 303 302 302 302 302 302 303 304 300 301 305 308 308 309 309 310 310 310 310 312 312 312 312 312 312 311 311 309 310 311 311 308 310 311 310 310 310 307 309 309 312
304 304 304 303 302 303 304 303 299 304 305 305 304 305 308 309 310 309 309 310 310 311 312 311 312 312 312 311 311 310 309 308 309 307 311 310 311 310 310 308 306 310 309 309
304 304 304 304 304 304 305 304 298 303 302 304 304 304 308 309 309 309 309 309 309 311 312 311 311 310 311 311 310 310 308 309 305 309 311 309 308 309 310 308 309 309 310 309
304 304 304 304 304 304 306 305 305 305 305 306 304 305 308 309 309 308 309 309 308 307 308 307 309 308 309 310 308 309 307 306 308 305 309 307 307 307 309 309 309 309 309 311
304 305 305 305 305 305 306 306 307 307 305 303 305 307 309 309 309 308 307 308 308 308 307 307 308 308 307 307 309 307 308 305 303 305 307 308 306 306 309 310 309 309 311 309
304 305 305 304 305 306 307 307 307 306 305 304 306 308 308 308 308 309 307 308 308 308 308 310 309 309 309 308 307 305 307 306 301 302 305 303 304 306 307 308 309 308 308 307
305 305 305 305 305 305 306 307 307 307 303 303 305 307 307 308 308 307 307 308 308 309 309 306 306 306 307 308 307 307 305 304 303 305 303 303 306 306 308 309 309 306 307 305
305 305 305 305 305 305 306 306 308 307 305 303 303 303 307 305 305 304 308 309 309 309 305 304 308 307 308 307 305 303 305 303 305 304 308 308 306 306 306 306 305 305 306 304
304 305 305 305 305 305 305 307 308 307 306 304 304 303 304 306 306 304 306 308 308 309 303 305 306 304 305 307 307 306 305 304 306 305 305 305 305 305 306 307 302 305 307 306
304 303 304 304 304 304 304 306 307 307 306 305 305 305 305 306 307 305 307 307 307 305 305 305 304 304 303 304 304 306 304 303 305 304 306 303 305 305 304 302 305 306 306 306
303 303 304 304 305 306 306 306 306 307 306 305 305 305 306 306 306 306 306 306 306 306 304 302 301 304 300 302 303 303 304 303 304 303 303 302 305 305 306 305 305 305 305 306
304 303 303 304 305 306 306 306 307 306 306 305 305 305 305 306 307 306 307 306 306 307 305 304 302 304 300 303 301 303 302 302 303 304 301 302 305 306 306 306 305 305 305 305
304 304 304 303 304 304 305 306 306 307 306 305 305 305 305 304 304 305 306 306 305 305 305 305 301 304 302 301 301 301 302 302 302 301 301 303 305 305 306 305 304 304 304 303
305 304 304 304 304 304 303 304 305 305 306 305 305 304 303 304 305 304 304 304 304 305 305 300 302 302 300 298 297 298 301 301 303 302 303 303 304 305 305 304 304 303 302 301
304 304 304 304 304 304 304 304 303 303 304 305 299 303 303 302 303 304 304 304 304 304 305 303 304 303 302 298 299 301 303 304 305 304 305 305 305 304 304 303 303 302 301 300
304 305 304 303 303 304 304 303 301 301 302 304 302 300 302 301 301 302 303 303 303 303 304 302 301 302 301 297 299 302 305 305 305 305 305 303 303 304 303 302 302 301 300 299
304 304 303 303 303 303 303 303 302 300 302 302 294 295 300 300 301 302 302 302 302 301 302 300 299 299 298 298 299 302 304 303 304 304 304 304 304 302 301 301 300 299 298 297
300 304 304 303 302 302 302 303 302 301 300 301 295 293 294 300 301 301 301 300 297 300 298 297 298 297 298 300 301 303 303 303 304 303 302 302 302 302 300 299 298 298 296 292
299 302 304 302 301 301 301 302 302 300 299 299 296 297 295 300 299 299 299 299 296 294 297 298 296 298 301 302 302 302 303 302 302 301 299 300 300 300 299 298 297 295 292 292
300 303 303 302 300 301 300 300 297 298 297 298 297 299 295 299 296 296 299 291 291 293 294 297 296 297 299 301 302 301 301 302 302 302 301 300 300 299 298 297 294 292 292 292
301 302 300 299 300 299 293 288 293 293 295 297 296 298 299 298 300 299 297 294 290 294 294 293 294 294 300 300 300 300 300 301 302 301 300 299 299 299 298 295 293 292 292 291
302 300 298 298 296 292 291 291 289 288 295 296 296 293 297 297 298 297 294 295 295 294 288 293 293 297 299 299 299 299 300 300 300 299 299 299 298 297 295 293 292 292 291 289
299 298 293 292 288 291 292 291 290 296 297 296 297 296 296 296 295 293 291 295 293 288 289 293 290 299 299 298 299 298 299 299 299 298 298 297 296 295 293 292 292 291 289 288
298 297 292 290 295 295 296 296 297 297 296 297 297 295 296 291 293 293 292 290 289 291 293 290 299 299 297 297 299 298 298 298 298 298 297 296 295 294 292 292 291 289 288 287
299 297 291 293 293 291 295 297 295 296 296 297 297 289 289 292 292 291 291 290 291 292 288 299 299 298 297 297 298 298 298 298 298 297 296 296 295 293 292 291 289 288 287 286
300 296 297 296 296 297 297 297 297 296 297 291 291 289 293 290 289 292 291 290 291 296 299 298 297 297 297 297 298 298 298 298 298 297 296 296 294 292 292 289 288 287 286 286

GFSNW_850_thetae_093.txt.gz
Theta_e
304 303 303 302 301 301 302 302 298 305 306 303 304 307 307 307 308 309 309 308 308 309 310 311 312 311 310 311 311 312 310 310 310 313 311 310 312 313 310 311 312 309 311 315
304 304 303 303 302 302 303 303 303 306 306 300 304 305 307 307 308 308 309 309 309 310 311 312 311 311 311 311 310 311 309 308 309 308 307 309 311 309 309 308 306 309 310 312
303 304 304 303 303 304 304 304 299 306 307 304 304 304 307 308 309 308 308 309 309 310 311 309 312 312 311 311 310 310 308 306 308 306 310 310 310 308 308 306 305 309 308 310
304 303 303 304 304 304 305 304 299 303 302 304 303 304 307 308 308 308 308 308 307 309 310 309 308 308 308 310 309 309 306 308 304 308 308 309 307 307 308 307 308 308 309 310
304 304 303 304 303 304 306 306 305 305 304 304 304 305 307 308 308 307 309 308 307 306 308 307 309 307 308 309 307 308 305 305 308 304 307 306 308 305 308 309 309 309 309 310
304 305 304 304 305 304 306 306 307 307 304 302 305 306 307 308 308 307 307 307 307 307 307 307 307 307 307 305 307 306 307 304 303 304 305 306 305 306 308 309 309 309 310 309
304 304 304 304 305 307 307 307 308 306 304 302 303 306 307 306 307 308 307 307 307 308 308 309 308 307 306 307 306 305 306 305 300 302 303 305 302 305 306 307 308 307 308 307
304 304 304 305 305 306 306 307 308 307 302 302 304 304 306 306 307 306 307 308 308 309 308 305 305 305 306 306 305 306 303 303 302 303 303 303 305 305 306 307 308 305 307 306
303 304 304 305 305 305 305 307 308 307 305 302 304 303 305 303 303 302 307 308 308 309 303 303 307 306 306 306 304 303 302 302 304 304 307 305 304 305 306 304 302 304 305 304
303 303 304 304 304 304 305 307 308 307 306 305 304 304 305 306 304 302 304 307 308 308 302 305 305 303 304 305 305 305 303 303 305 305 305 304 302 304 305 305 301 305 306 306
304 303 303 303 304 304 305 306 307 307 307 306 306 306 305 306 306 305 307 305 306 303 304 305 303 303 302 303 301 305 302 302 304 303 305 303 304 304 304 301 304 305 306 307
304 303 304 303 303 305 305 305 306 306 306 306 306 306 306 307 306 306 306 306 306 305 303 301 300 303 299 300 303 300 304 302 302 302 302 301 305 304 305 306 305 305 306 306
304 303 303 304 304 304 305 305 306 306 306 305 305 305 306 306 306 307 307 306 306 306 305 303 301 304 299 303 300 301 301 301 302 303 300 300 305 306 305 306 305 305 305 305
304 304 303 303 304 304 304 305 306 306 306 305 305 305 305 305 306 306 305 305 305 305 304 304 300 303 302 301 299 299 301 300 301 300 300 302 304 305 305 306 305 305 304 304
303 304 304 304 304 304 303 304 304 305 305 304 304 304 304 304 304 304 304 304 304 304 304 299 301 301 299 297 296 296 300 300 302 301 303 302 303 305 305 305 305 304 304 303
299 304 304 304 304 304 304 304 303 302 303 304 299 302 302 301 302 302 303 303 303 303 304 302 303 303 302 298 298 300 303 304 305 303 304 304 304 305 305 304 304 303 303 302
297 303 304 304 304 304 304 303 301 300 302 303 302 300 301 301 301 301 302 302 302 302 303 301 300 301 301 297 299 302 304 304 304 303 303 303 304 305 304 304 303 302 301 300
296 302 304 303 303 303 303 304 302 301 301 301 293 293 300 300 300 301 301 301 301 301 301 299 298 298 298 298 299 303 303 303 303 304 303 304 304 304 303 302 302 301 300 299
295 300 303 303 303 302 302 303 303 303 301 301 296 292 294 299 300 300 301 300 296 299 297 297 297 296 297 299 300 302 302 302 302 302 302 302 303 303 302 301 300 300 298 297
299 299 303 303 302 301 301 301 302 302 301 299 295 297 295 299 299 298 298 298 296 293 297 297 296 297 300 302 303 302 301 301 301 301 300 301 301 301 301 301 300 298 297 294
301 300 303 302 301 301 300 300 298 297 296 297 296 297 295 298 295 296 298 291 290 293 294 296 295 296 296 301 300 299 300 300 300 302 302 302 301 301 300 299 298 297 294 292
301 301 301 301 299 299 293 289 292 292 295 295 295 297 299 298 299 299 297 293 290 294 292 293 295 294 300 299 299 299 300 300 299 300 301 300 300 299 299 298 297 294 293 292
301 301 299 298 296 292 290 294 289 287 293 295 295 292 298 297 298 296 293 294 296 293 289 294 293 298 300 299 297 299 300 301 301 300 300 299 299 299 298 297 295 293 292 292
301 300 293 292 288 291 292 291 290 295 296 296 298 295 296 296 295 293 291 295 293 289 291 294 291 299 299 297 298 298 299 300 300 300 299 299 299 298 297 294 293 292 292 290
300 297 295 291 294 294 295 295 296 296 297 297 296 294 296 291 292 293 291 290 290 292 294 292 299 298 298 297 298 299 298 298 299 299 298 298 297 296 295 293 292 292 290 289
298 296 291 293 292 293 294 295 297 297 297 297 297 289 290 292 292 291 292 291 292 294 289 299 299 298 298 298 298 298 298 298 298 298 297 296 295 295 294 293 292 291 289 288
300 296 297 296 296 298 296 297 297 296 297 290 290 289 293 290 289 293 291 292 293 296 299 299 298 298 298 299 298 298 298 298 298 297 297 296 294 294 293 293 292 289 288 287

GFSNW_850_thetae_096.txt.gz
Theta_e
303 303 303 302 303 304 305 305 300 307 308 304 304 306 307 307 308 308 308 308 308 309 309 311 312 311 309 310 311 312 310 310 310 311 310 309 311 312 310 310 311 309 310 314
303 302 302 303 304 305 305 304 306 308 309 302 302 304 307 307 308 307 308 309 309 309 310 312 310 310 310 311 309 310 309 308 306 307 306 308 310 309 308 307 305 309 308 310
303 303 303 303 304 305 305 305 300 307 307 304 303 304 306 308 308 308 307 307 308 310 310 309 311 311 310 310 310 310 308 306 308 307 309 309 309 306 306 306 304 308 307 310
304 303 304 303 304 306 305 306 301 303 300 304 302 304 306 308 308 307 308 307 306 307 310 308 308 307 307 309 308 309 306 306 304 305 305 307 307 306 307 307 307 306 308 308
304 304 304 305 304 306 307 307 306 305 303 303 303 304 306 307 307 307 308 308 307 305 307 307 308 307 306 308 306 308 304 305 307 303 307 306 307 306 307 308 308 308 308 309
304 304 304 305 305 305 307 307 307 306 303 302 304 304 306 306 306 307 307 306 306 307 307 306 307 307 306 304 305 305 305 304 302 305 303 304 305 305 308 308 307 308 309 307
304 304 304 305 306 307 307 307 307 306 303 302 303 305 306 305 306 307 307 307 306 308 308 307 306 306 305 304 304 303 304 304 299 302 301 302 303 304 305 306 305 306 306 306
304 304 304 304 304 305 305 306 307 307 302 302 303 304 304 304 305 305 306 307 307 308 307 304 305 304 305 306 304 304 302 302 302 302 301 302 304 303 305 307 306 304 305 305
304 304 304 304 304 304 305 306 307 307 305 301 305 304 304 303 302 302 306 307 307 308 301 302 307 304 305 305 302 302 301 301 303 303 306 305 302 304 305 303 302 303 305 304
304 303 303 303 304 304 305 306 307 307 307 306 306 305 305 306 303 301 303 307 307 306 301 304 304 302 303 304 304 304 302 301 304 304 304 304 300 304 304 304 300 304 306 306
304 303 303 303 303 304 304 305 306 307 306 306 306 306 307 306 305 304 306 303 304 302 303 304 303 302 301 302 300 304 302 301 303 301 304 302 303 304 303 301 304 305 306 306
304 303 303 303 303 304 304 305 305 306 306 306 305 306 307 307 307 308 306 305 306 305 301 300 299 303 297 299 303 298 302 301 300 302 302 301 304 304 305 305 305 305 305 306
304 304 303 304 304 303 304 305 305 305 306 305 305 305 305 306 306 305 306 306 306 306 305 302 300 303 299 302 299 300 299 299 301 303 301 299 304 306 306 305 305 305 305 305
301 304 304 303 304 304 303 304 305 305 306 304 305 305 305 305 305 305 305 304 305 304 304 303 300 302 301 299 299 298 300 299 300 299 299 302 304 304 305 306 305 305 305 305
296 302 304 304 303 304 304 303 303 304 305 303 305 304 304 304 304 303 303 303 303 303 303 297 300 300 299 297 295 296 299 299 301 301 302 302 302 304 305 304 305 305 305 304
296 297 303 304 304 304 304 304 303 301 302 303 299 302 302 301 301 302 302 302 302 303 303 301 303 302 302 298 298 299 302 303 304 303 303 302 303 304 305 304 304 304 304 303
296 296 302 304 304 304 304 303 302 300 300 301 301 299 301 300 300 300 301 301 301 301 302 299 300 300 301 297 299 302 304 304 304 303 303 302 303 304 304 304 304 304 303 302
296 295 300 304 303 302 303 303 304 303 301 300 290 293 299 300 299 300 300 300 300 300 300 298 297 298 297 298 299 303 304 303 303 303 302 302 303 304 304 304 303 303 302 301
296 295 299 303 303 302 302 302 302 303 303 300 295 292 294 299 299 299 299 299 296 298 296 296 297 296 297 300 301 303 304 302 302 302 302 301 301 302 303 302 302 301 301 301
296 296 301 303 302 302 301 301 301 301 301 299 294 297 293 299 297 297 298 297 296 293 297 297 295 297 300 302 303 303 303 301 300 299 300 300 301 302 303 303 302 301 300 299
299 298 300 302 301 300 300 299 297 298 295 298 296 297 294 298 294 296 299 291 291 293 293 295 295 296 296 303 302 301 299 299 299 299 301 302 303 303 303 302 301 300 298 297
301 299 301 301 300 298 293 290 292 292 295 295 294 296 297 298 299 298 296 293 290 294 292 293 296 295 301 301 300 299 298 299 300 300 299 301 302 301 300 301 300 299 297 295
300 301 299 298 296 292 294 296 292 288 294 294 295 292 297 297 298 296 293 293 297 292 289 294 294 297 299 299 298 298 299 301 300 300 299 300 300 299 299 299 299 298 296 293
300 298 296 295 290 293 295 295 295 296 295 295 297 295 294 296 294 293 292 295 293 289 294 295 292 300 299 298 297 299 299 300 301 300 300 300 299 299 299 298 298 296 294 292
299 298 297 293 295 295 295 296 295 295 296 297 296 294 295 290 292 293 291 291 290 291 294 294 298 299 298 298 297 298 299 299 299 300 299 299 298 298 298 297 295 293 292 292
298 297 292 292 292 291 293 294 296 296 296 298 297 290 289 292 291 291 292 292 293 294 289 299 298 298 298 298 298 298 298 298 298 298 298 298 297 297 296 295 294 293 292 291
298 297 297 296 296 297 295 296 297 296 297 294 291 291 295 289 287 291 293 294 293 297 299 299 298 298 299 299 300 299 298 298 298 298 298 298 296 295 294 294 294 293 292 290

GFSNW_850_thetae_102.txt.gz
Theta_e
303 303 304 305 306 309 309 308 312 309 309 311 307 310 309 308 308 308 309 309 310 311 311 312 313 313 312 311 313 314 312 312 314 315 311 311 313 313 311 315 316 315 315 317
303 303 304 306 306 306 308 308 308 309 310 314 311 307 309 308 309 308 310 311 311 310 312 313 312 312 310 311 312 313 312 313 315 311 310 310 312 311 310 310 311 315 316 317
303 304 304 306 307 307 307 307 313 308 307 303 308 310 310 310 307 308 307 309 309 311 311 311 312 312 311 310 311 310 310 311 313 314 312 312 313 311 309 311 315 314 314 314
303 304 305 305 306 307 308 307 307 304 312 309 307 308 308 310 311 309 308 309 309 310 312 310 310 309 309 310 309 310 310 313 310 310 310 310 311 311 310 310 311 313 312 313
304 304 305 305 305 307 307 307 307 304 305 303 308 308 309 309 309 309 310 310 308 309 310 310 310 309 308 309 307 309 307 313 309 310 309 309 310 310 310 310 310 311 310 311
304 304 304 305 306 306 307 306 306 306 304 307 308 308 307 308 307 307 307 307 308 309 309 308 308 307 307 307 308 308 309 310 311 313 306 307 310 309 309 310 310 311 312 312
304 304 304 304 305 305 306 306 306 306 308 308 308 307 306 307 306 309 307 306 308 307 307 306 306 305 306 306 307 306 308 308 309 313 309 310 307 306 308 310 310 310 310 309
304 304 304 304 304 304 305 306 306 305 308 305 305 305 306 305 305 306 306 307 307 307 305 308 308 307 307 307 306 306 306 308 311 311 310 309 306 303 307 308 309 309 310 310
304 304 304 304 304 304 304 305 306 306 306 306 305 306 305 308 308 306 305 306 306 307 305 307 308 308 305 307 305 303 304 305 309 307 309 306 305 305 305 306 308 306 307 309
299 304 304 304 303 303 303 304 305 306 306 305 304 307 307 305 305 307 304 305 306 305 307 308 308 308 304 307 307 306 307 307 310 310 310 308 306 306 304 308 307 304 306 308
297 303 305 304 303 303 303 303 304 305 305 305 305 305 305 305 305 308 304 306 305 306 308 308 307 307 305 305 305 305 306 307 307 307 309 309 303 305 307 307 302 305 306 307
297 298 304 304 303 304 303 303 304 304 305 305 305 305 305 305 305 307 306 304 305 305 307 305 305 307 304 304 306 300 305 305 306 307 309 304 304 307 306 304 305 305 305 305
299 296 300 304 303 303 304 303 304 304 304 304 304 305 304 304 304 305 306 305 306 305 305 305 305 307 305 307 305 305 303 301 305 306 306 304 303 304 305 305 305 305 305 304
304 296 296 301 304 303 303 304 304 303 304 304 305 304 304 304 304 303 303 304 305 305 304 305 306 307 304 306 304 303 305 301 304 304 305 304 304 302 303 303 303 302 304 305
305 299 296 296 301 304 304 303 304 304 303 305 304 303 303 303 303 303 303 302 303 303 303 304 306 304 303 302 300 304 303 304 305 306 305 305 304 303 303 304 304 303 302 303
304 305 297 296 297 303 304 304 303 303 301 301 304 302 301 301 301 301 301 301 301 302 303 304 303 302 302 306 307 305 302 303 304 305 304 303 303 303 304 303 303 303 303 303
306 304 300 296 296 302 304 303 301 300 299 300 302 302 300 300 299 299 299 300 301 301 302 301 301 301 302 305 307 306 305 304 304 304 302 302 303 302 303 303 303 304 303 303
305 304 303 296 296 300 303 303 303 303 303 302 301 302 297 298 298 299 298 298 299 299 301 298 300 299 300 304 306 305 304 303 303 304 303 302 302 302 301 302 302 303 303 303
304 304 303 296 296 299 302 302 302 302 302 300 297 302 305 297 297 298 298 298 301 298 300 299 299 303 301 304 304 303 303 303 303 303 302 302 301 300 301 301 301 302 302 303
303 303 299 297 301 301 301 300 300 300 300 300 297 297 299 298 297 298 299 296 301 302 301 296 299 302 301 302 303 303 303 303 303 301 301 302 301 299 300 301 301 302 302 302
303 301 298 299 301 301 300 298 298 298 298 299 297 297 298 297 300 302 299 300 299 302 301 300 302 302 300 302 301 301 301 301 303 303 301 299 298 299 301 302 302 302 302 302
303 301 299 300 300 299 297 298 294 295 300 297 295 295 297 297 298 300 296 300 296 301 294 297 300 301 300 300 300 300 299 299 298 298 300 300 299 299 301 301 301 302 301 301
301 300 299 299 298 296 298 298 298 297 296 294 293 296 298 297 297 297 298 299 299 293 297 299 301 299 299 299 299 298 297 298 300 301 300 300 300 299 301 301 300 300 300 300
301 298 299 298 298 296 298 299 300 298 296 295 296 295 296 296 297 297 299 298 295 298 298 301 301 299 301 301 298 297 299 299 300 301 301 300 300 301 301 300 299 299 299 299
299 298 301 299 297 296 296 297 296 296 295 296 296 295 295 296 297 295 295 295 297 298 302 302 299 300 299 298 298 298 299 299 299 299 300 300 301 301 301 301 300 299 299 298
300 298 299 294 294 294 294 295 295 296 296 297 296 295 296 299 297 295 297 298 299 302 298 299 299 299 298 299 299 299 299 300 299 300 300 300 300 299 299 299 299 299 298 298
296 296 299 297 295 299 298 298 297 297 296 299 297 298 300 293 296 296 296 298 300 299 299 299 299 299 299 299 300 300 300 300 300 300 300 300 300 300 299 299 299 298 297 297

GFSNW_850_thetae_105.txt.gz
Theta_e
303 304 306 307 307 309 309 311 314 309 311 314 312 313 311 309 310 310 311 312 312 313 313 315 315 315 314 313 314 315 314 315 317 316 315 314 315 315 313 316 319 317 317 319
304 304 305 307 307 308 309 311 312 310 312 317 315 311 311 310 311 311 312 313 313 313 314 314 314 313 312 312 313 314 313 316 318 315 313 312 314 314 313 312 313 316 318 318
304 304 305 305 307 308 308 312 316 313 310 309 313 313 313 312 310 310 310 312 312 313 313 313 313 313 312 312 313 310 311 314 314 317 314 313 313 313 311 312 317 316 315 314
304 304 305 305 306 307 308 310 311 309 315 311 312 312 312 313 313 311 310 311 312 312 313 312 312 312 311 312 311 311 312 314 313 312 311 311 311 312 313 312 313 313 314 313
304 304 304 305 306 307 307 311 311 308 309 308 311 310 312 312 311 312 312 311 310 311 312 311 312 311 310 311 310 311 311 314 312 312 311 310 311 311 311 312 312 312 312 312
304 304 304 305 305 306 307 306 306 308 308 310 311 311 310 311 310 310 309 310 311 311 310 309 310 310 310 310 310 310 310 312 312 313 310 310 310 310 310 311 311 311 312 313
304 304 304 304 304 305 305 306 306 309 311 310 310 309 309 309 309 311 309 309 310 309 307 307 307 308 309 309 310 309 311 311 311 314 312 313 310 308 309 310 311 311 311 312
302 305 304 304 304 304 304 305 306 308 310 308 308 308 309 308 307 308 309 309 308 307 308 310 310 310 309 310 310 310 309 311 312 313 311 311 309 306 309 311 310 311 311 311
298 304 304 304 304 303 303 304 305 306 308 309 306 308 308 309 309 309 307 306 306 307 308 309 310 308 308 308 307 305 309 309 311 311 310 308 308 306 307 308 309 310 309 310
298 300 304 304 303 303 303 303 304 306 308 307 305 308 309 307 308 309 307 307 308 306 309 309 309 309 307 308 308 308 308 309 311 311 311 311 309 307 307 309 309 307 307 308
304 298 301 304 303 304 303 303 304 305 308 307 305 305 306 306 307 308 307 308 308 309 309 308 309 309 308 307 308 307 308 309 310 310 311 311 308 307 308 308 305 308 308 309
305 301 298 302 304 303 303 303 303 304 304 307 305 305 305 305 305 307 307 308 308 308 308 308 308 308 308 307 306 305 307 307 309 309 310 307 307 309 308 305 307 307 307 308
306 305 299 297 301 303 303 303 303 303 304 305 305 305 304 304 304 305 307 307 307 306 306 308 308 308 308 308 308 307 307 306 306 306 308 308 306 306 306 306 306 306 306 306
309 305 303 298 297 301 304 303 303 303 303 305 307 304 303 304 304 304 304 305 305 305 305 307 308 308 306 307 307 307 307 304 305 306 306 306 306 306 305 304 304 303 303 304
310 308 305 301 298 296 301 304 304 303 303 305 305 304 303 303 303 303 303 303 303 305 306 307 308 307 306 306 306 307 306 306 306 307 307 307 306 304 303 303 303 303 303 303
310 309 306 304 299 297 301 304 302 302 302 301 305 303 301 301 300 300 300 301 302 304 305 306 307 305 305 307 308 308 307 306 306 306 304 304 304 303 303 303 304 303 303 303
309 308 306 304 300 297 299 304 301 299 300 299 304 305 300 300 299 298 299 300 301 302 304 305 305 304 303 307 307 308 308 307 306 305 304 303 303 303 304 303 303 303 303 303
308 308 306 304 303 298 297 299 302 303 303 303 304 306 299 298 300 301 298 300 300 301 303 302 302 303 303 307 306 306 307 306 305 304 304 304 304 303 303 303 302 302 302 303
307 306 305 304 301 297 300 300 301 302 302 303 302 304 309 297 299 299 298 299 302 301 301 302 302 304 305 306 305 306 306 305 305 304 303 303 302 303 302 301 301 301 301 302
306 305 304 299 299 300 300 300 299 299 300 300 300 301 303 299 299 301 301 300 303 303 303 299 300 302 303 304 304 305 305 304 303 302 302 302 301 302 302 300 298 300 300 301
305 303 303 301 300 301 300 300 300 301 300 300 300 300 303 299 302 304 301 304 302 304 304 301 305 305 304 302 302 302 303 302 302 301 302 302 302 301 300 299 300 300 301 302
304 304 302 300 300 299 299 301 298 298 302 301 299 298 298 298 299 301 299 302 299 303 298 300 302 304 302 301 301 300 299 299 299 300 300 300 299 299 298 299 301 301 302 302
301 302 301 299 299 299 301 300 301 302 300 297 296 298 299 297 298 300 300 301 301 296 300 302 304 304 302 300 300 300 298 298 299 300 301 301 300 300 300 300 301 300 300 301
301 299 300 300 302 300 302 302 304 301 298 296 298 298 299 298 299 301 301 302 298 302 301 303 306 303 301 301 300 298 298 299 300 301 301 301 301 301 301 301 301 300 300 299
300 298 302 300 300 299 298 299 298 297 296 296 297 297 298 299 300 299 299 299 300 302 305 307 303 300 300 299 298 298 299 299 299 300 300 300 300 300 300 300 300 300 299 298
300 298 298 298 298 300 297 297 296 297 297 297 297 298 299 300 300 299 300 302 303 307 304 301 300 300 299 297 298 298 298 299 300 300 300 300 300 300 301 300 300 299 298 298
298 297 300 300 302 302 302 299 299 297 297 300 299 300 300 296 299 299 301 302 305 302 301 301 301 301 301 298 298 298 298 299 299 300 300 300 300 300 300 301 299 301 299 298

GFSNW_850_thetae_108.txt.gz
Theta_e
304 304 306 307 308 310 311 312 313 310 313 315 313 313 312 310 311 311 312 313 313 313 314 314 315 315 314 314 314 314 313 314 314 316 315 313 314 315 313 312 318 314 314 313
304 304 305 307 307 308 309 312 313 312 314 317 314 312 311 311 312 312 313 314 313 313 314 314 314 313 312 313 313 313 312 314 312 314 312 312 312 313 313 311 311 311 313 314
304 304 305 305 307 308 308 313 311 314 312 311 313 314 313 313 311 311 311 312 313 313 313 313 313 313 313 312 313 310 311 313 312 312 313 312 313 312 312 310 310 313 313 313
304 304 305 305 307 308 310 312 311 310 317 312 312 313 313 313 313 311 311 312 312 312 312 312 312 312 311 312 312 311 311 312 311 311 311 310 310 310 311 310 310 311 311 310
304 304 304 305 306 307 308 312 311 309 310 309 311 311 312 313 312 311 311 311 310 311 312 311 312 311 310 311 310 310 310 310 311 305 309 310 309 309 310 310 311 310 310 310
304 304 304 304 305 306 306 307 308 309 308 311 311 310 311 311 311 310 310 310 310 311 310 309 309 309 310 310 309 309 309 309 308 309 311 309 307 308 308 309 309 310 311 310
300 304 304 304 304 304 305 305 307 310 310 310 310 310 309 310 309 310 310 309 310 309 307 308 308 308 308 309 309 309 309 309 308 307 308 309 308 308 309 308 309 308 308 308
299 301 305 304 304 303 304 304 306 308 310 308 309 309 309 309 308 308 309 309 309 307 307 308 308 309 309 309 308 308 308 308 307 307 308 308 307 306 307 308 307 307 308 308
301 298 303 305 304 303 303 304 304 306 308 308 307 308 309 308 308 308 308 307 306 307 308 308 309 307 307 308 306 305 307 307 308 308 309 308 308 305 307 308 304 307 309 308
305 299 299 304 305 304 303 303 304 305 309 308 306 307 308 308 308 307 308 307 308 307 308 308 306 307 307 306 307 305 306 307 308 308 308 308 307 305 307 307 306 307 308 308
306 305 298 299 304 304 304 303 303 304 307 307 307 306 305 306 306 306 307 308 307 308 308 306 307 306 305 305 306 306 306 306 306 306 308 307 306 306 305 305 306 308 307 308
309 305 303 298 299 303 303 304 304 303 303 304 305 304 305 305 307 307 308 308 308 308 306 305 305 305 304 304 303 304 304 304 305 306 307 306 307 307 308 306 307 307 307 307
310 309 305 303 299 298 303 304 303 304 304 305 306 306 305 304 304 304 305 308 307 307 307 307 306 306 305 305 304 305 304 305 303 305 303 305 306 307 306 307 307 306 306 306
309 310 309 306 302 298 297 301 303 303 303 304 306 306 305 304 304 304 304 305 306 306 306 307 305 306 307 304 303 304 305 304 303 302 304 305 305 306 306 306 306 305 305 304
309 309 310 309 306 301 298 299 303 303 303 304 304 303 303 303 303 303 303 303 303 304 305 304 305 306 305 304 303 305 305 305 304 304 304 305 306 306 305 305 305 304 304 304
310 309 310 310 308 304 298 304 302 302 302 301 302 304 302 301 301 301 301 302 302 304 305 306 307 307 306 302 303 305 307 306 306 305 306 306 305 304 304 304 304 303 303 303
308 308 309 309 308 307 300 303 301 300 301 301 302 304 301 300 299 299 300 300 301 302 303 304 305 305 305 302 305 305 307 307 307 307 306 306 305 305 304 304 303 303 303 303
307 308 307 307 307 306 304 301 298 301 302 302 300 301 300 298 300 300 299 300 300 301 302 303 302 303 303 303 304 305 306 306 306 307 306 306 304 304 304 304 303 303 302 302
306 307 306 305 305 301 300 300 300 300 302 303 302 301 304 298 300 300 299 300 301 301 300 301 301 300 302 302 303 304 305 306 306 306 305 304 304 304 304 303 302 302 301 300
305 306 305 304 299 300 300 300 299 299 300 300 298 301 300 300 299 301 301 300 301 302 300 301 300 301 302 303 303 303 303 305 306 305 304 304 303 303 303 302 302 301 299 299
304 304 304 303 301 301 300 299 299 300 300 300 299 300 300 300 300 301 301 299 300 302 298 299 299 302 302 304 303 301 301 302 304 304 303 302 302 302 302 302 300 299 300 300
303 303 303 303 301 299 299 300 299 298 300 302 300 299 299 299 299 300 300 299 298 300 298 298 299 299 303 302 301 301 300 299 299 299 300 301 301 301 300 298 298 300 301 300
301 302 302 299 299 300 301 300 299 299 300 298 297 297 298 298 298 300 298 298 299 297 294 297 298 302 302 300 300 299 298 298 298 298 300 300 300 300 300 300 299 301 300 300
301 300 301 299 300 299 300 299 300 301 301 299 298 299 299 299 298 300 299 299 297 296 299 297 297 304 299 299 299 299 298 298 299 300 300 300 301 301 301 301 301 301 300 300
300 298 299 299 299 301 300 301 300 298 298 298 297 298 298 297 299 298 298 297 296 296 298 297 304 300 300 299 298 298 298 298 298 299 299 300 300 300 300 300 299 300 300 300
299 299 297 299 298 299 299 298 297 298 297 297 298 297 296 297 297 299 295 297 297 297 298 302 301 302 302 302 301 299 299 299 298 299 299 300 300 300 300 300 300 299 300 300
298 297 299 299 299 300 301 301 300 299 297 295 298 299 299 296 299 297 295 296 297 303 302 302 301 302 302 302 305 303 299 299 299 300 300 300 299 299 299 299 299 300 302 300

GFSNW_850_thetae_111.txt.gz
Theta_e
304 305 306 307 308 310 311 311 306 311 312 309 309 303 310 310 311 311 311 311 311 312 312 313 313 313 313 313 313 313 311 312 310 313 312 312 311 311 311 309 314 313 311 312
304 304 305 307 307 308 308 313 312 311 313 306 302 310 310 310 311 310 311 312 312 312 312 313 312 312 312 313 312 312 311 311 306 309 308 310 311 311 311 309 307 308 309 311
304 304 305 306 307 308 310 312 304 312 312 311 310 311 312 311 311 310 311 311 311 312 312 311 312 312 311 312 312 311 310 310 309 311 311 310 311 311 310 309 305 307 309 309
304 304 304 306 307 308 310 310 307 310 304 308 308 310 310 312 311 311 311 310 310 310 311 311 311 311 310 311 312 310 309 309 309 309 309 309 309 309 309 309 309 309 308 308
304 304 304 305 306 307 309 311 310 309 309 309 309 308 310 311 311 310 310 309 309 308 309 309 310 309 309 310 309 310 308 307 308 304 307 308 308 307 308 308 310 309 309 309
300 304 305 304 305 306 306 307 308 310 307 307 307 307 308 310 310 310 309 309 308 309 309 308 308 308 308 308 307 307 308 306 304 305 306 306 304 305 307 308 307 309 309 309
299 301 305 304 304 304 305 305 308 310 306 305 307 308 308 308 308 309 309 308 308 309 308 307 307 307 307 307 307 307 307 306 303 304 305 304 303 306 306 306 307 307 307 306
302 299 302 305 304 303 303 305 307 308 305 306 307 308 308 308 308 306 308 309 308 308 306 305 304 306 307 307 306 306 306 306 304 305 305 305 305 306 305 306 304 305 307 307
306 301 299 302 305 303 303 303 304 306 306 303 307 307 308 305 304 306 307 307 306 306 306 305 307 304 306 306 307 304 305 305 305 305 308 307 303 305 306 305 301 303 305 304
307 305 301 299 303 304 303 303 303 304 308 307 306 304 306 308 306 303 306 307 308 306 304 305 304 302 305 303 305 304 305 305 306 305 307 306 304 304 307 303 301 306 307 307
310 306 305 300 299 302 303 303 303 303 304 304 307 306 305 306 306 303 306 304 306 305 305 303 303 303 303 304 303 303 304 303 304 304 306 306 305 305 304 302 306 306 306 306
310 310 307 305 300 299 301 303 303 304 304 303 304 305 305 304 305 307 307 306 306 307 303 301 301 303 301 301 301 301 303 304 305 305 306 305 306 305 307 307 307 306 306 306
309 310 310 308 306 301 298 300 302 303 303 304 305 306 305 304 304 305 305 305 306 307 306 305 302 305 300 303 300 302 302 303 301 304 302 303 305 307 307 307 307 307 307 307
308 308 309 310 308 305 302 299 300 302 303 303 304 305 305 304 303 303 303 304 306 306 306 305 302 303 303 301 302 300 302 303 301 300 303 303 305 305 305 305 305 305 305 306
308 308 308 309 309 307 303 302 302 303 303 302 304 303 303 302 303 302 303 302 303 304 304 301 302 304 304 302 300 304 304 304 303 304 305 304 304 305 306 305 305 305 304 304
307 308 308 308 309 308 307 304 301 300 300 301 299 302 302 301 300 301 301 301 302 302 304 303 305 306 305 301 300 302 306 306 306 304 305 304 305 305 305 305 305 304 303 303
304 307 307 308 308 307 307 303 302 301 301 302 300 300 301 299 300 300 300 300 301 302 303 302 303 304 305 299 301 304 305 305 305 305 305 304 304 305 305 305 304 304 304 303
302 306 306 307 306 306 306 305 303 300 300 302 297 299 300 298 300 300 299 300 300 301 301 302 302 302 302 301 302 304 304 304 304 305 306 305 305 305 305 304 304 303 303 303
301 304 306 306 305 303 302 301 300 300 301 302 299 299 300 299 300 300 299 300 300 300 299 300 300 298 301 302 302 303 303 303 303 303 303 305 306 304 304 304 303 303 302 302
304 304 305 305 302 300 301 299 299 299 300 300 297 299 298 299 299 300 299 299 300 301 300 300 300 300 301 302 303 303 301 301 300 301 303 304 304 304 303 303 302 301 301 299
302 302 303 303 302 302 300 299 298 299 300 299 299 299 297 299 297 298 300 295 300 300 300 300 299 300 300 303 302 300 300 300 299 301 302 302 302 301 301 301 301 301 298 300
302 302 302 302 301 300 299 299 298 298 300 299 299 299 299 299 299 299 299 295 298 299 296 298 298 296 302 302 299 300 299 298 297 297 297 298 299 299 299 299 299 299 300 300
300 300 301 301 299 299 300 298 298 298 298 299 298 296 298 298 298 298 296 298 298 295 290 295 295 300 302 300 299 299 298 298 299 299 300 300 300 299 300 299 299 300 300 300
300 299 299 298 297 299 297 294 293 299 301 299 298 298 298 298 296 297 295 296 296 292 297 296 294 302 302 301 298 297 298 299 299 299 299 300 300 300 300 300 300 300 300 300
298 299 299 298 298 299 300 300 300 298 299 298 298 298 297 294 295 297 295 294 294 292 295 296 302 302 301 301 301 302 301 299 299 300 300 300 300 300 300 300 301 300 300 300
298 298 297 298 297 298 298 299 299 299 298 298 298 295 294 296 294 298 294 291 292 295 293 302 302 301 301 301 302 302 302 302 301 299 299 300 300 300 301 301 300 300 299 300
297 296 297 297 297 298 299 300 300 299 298 293 296 298 296 295 297 296 293 292 296 300 302 302 302 301 302 302 302 302 302 302 301 302 300 299 302 303 302 301 301 299 299 299

GFSNW_850_thetae_117.txt.gz
Theta_e
304 304 305 306 307 309 310 311 306 311 310 308 303 301 309 309 309 309 309 309 310 311 309 311 311 311 310 311 311 312 309 308 308 311 310 309 309 310 308 307 308 308 307 309
303 304 304 306 307 307 307 312 312 311 310 305 300 308 309 309 309 309 310 311 310 310 311 311 311 311 311 312 310 310 309 308 304 308 308 309 311 309 308 305 305 308 308 306
304 303 304 305 307 308 310 311 304 310 310 308 307 309 310 310 310 309 309 309 309 309 309 308 311 310 310 311 311 310 308 307 307 305 307 307 310 309 308 308 304 307 307 306
302 304 303 304 306 308 311 308 306 308 303 306 307 307 309 310 310 309 308 308 308 309 309 309 310 310 309 310 310 309 306 307 305 305 305 307 308 308 307 308 310 309 306 306
300 303 304 303 305 307 310 309 307 307 306 307 307 305 309 309 309 309 309 307 308 307 308 307 307 308 308 308 308 308 305 306 305 302 305 305 307 306 307 307 309 310 310 310
302 301 304 304 304 305 306 307 308 308 303 304 304 304 307 308 308 308 308 307 307 308 307 307 307 307 306 306 307 306 305 304 303 304 302 303 303 303 305 306 305 308 309 309
306 302 301 304 303 304 305 306 308 309 303 303 304 306 307 307 307 308 308 307 307 307 308 306 306 305 305 305 305 304 303 303 301 302 302 300 301 301 303 304 305 305 305 306
308 306 302 301 304 303 303 304 306 307 302 303 304 306 306 306 306 306 305 307 307 307 305 302 302 301 305 305 304 303 302 303 302 302 303 302 303 304 303 304 303 302 304 304
311 308 306 302 302 303 303 302 303 305 302 299 306 305 306 302 302 302 306 306 306 305 302 302 304 301 303 305 305 301 302 301 302 304 307 304 301 303 304 303 300 301 302 301
310 311 308 307 303 301 303 303 303 303 304 305 305 303 303 305 302 300 302 305 306 305 301 303 302 301 301 303 304 304 304 302 305 304 305 304 302 303 305 305 301 303 305 305
309 310 311 309 308 306 303 303 302 303 303 303 306 305 306 306 305 300 303 302 302 302 303 302 301 301 300 301 300 302 303 302 304 303 305 305 304 303 303 302 304 305 306 306
308 309 310 310 309 308 307 306 304 302 302 303 304 304 305 304 305 305 304 302 303 304 300 299 298 302 298 299 301 298 302 301 302 303 304 303 304 304 306 305 304 306 305 304
306 307 308 308 309 309 308 308 307 305 302 303 303 304 304 303 304 304 304 304 305 305 305 301 299 302 298 301 298 299 299 300 301 302 301 302 304 304 304 303 304 304 304 304
304 304 306 307 308 308 308 308 305 303 303 302 303 304 304 303 303 303 303 304 305 305 305 304 299 302 301 299 299 298 300 299 299 298 300 303 304 303 303 304 304 304 304 304
305 304 302 305 307 307 308 306 302 302 304 302 303 302 302 302 302 302 303 303 303 303 304 301 301 301 301 299 298 298 301 300 300 301 301 301 302 303 304 304 304 304 303 304
303 302 301 303 306 307 307 304 301 302 305 303 299 301 301 301 300 300 301 301 301 303 303 301 302 302 302 300 300 302 303 304 303 302 304 302 302 303 303 303 303 303 303 302
301 299 300 302 305 304 306 306 304 305 304 302 301 300 301 300 300 300 300 300 301 302 302 301 301 303 303 300 302 303 304 304 304 302 301 301 300 300 302 302 301 302 303 303
299 298 300 304 303 304 304 305 304 304 303 301 295 299 301 299 300 299 299 300 300 301 300 300 300 301 300 301 302 304 304 303 301 300 299 299 298 298 299 301 302 302 303 302
298 298 301 302 302 302 302 302 301 301 301 301 298 298 296 299 299 299 299 299 297 298 298 298 299 298 301 301 302 303 302 300 299 298 298 297 297 297 298 299 300 300 301 301
299 299 300 303 302 302 301 300 299 299 299 299 298 298 297 298 298 298 299 298 298 297 299 299 298 299 301 301 302 302 298 298 297 297 298 298 298 298 299 298 298 298 299 300
300 301 301 302 302 301 300 300 298 298 298 298 298 298 295 298 296 296 298 293 298 300 298 300 300 299 299 302 299 297 297 298 298 299 299 298 298 298 298 300 300 299 299 300
300 300 301 301 300 299 299 295 298 298 300 298 297 298 299 299 298 298 297 294 297 298 295 299 299 296 300 300 301 301 301 301 301 301 301 300 301 301 300 299 300 300 300 300
299 300 300 298 298 299 298 297 299 298 297 297 298 296 297 297 297 296 294 297 297 293 295 296 294 298 300 300 300 300 301 301 301 301 300 300 300 300 300 301 300 299 300 300
299 299 296 296 295 297 294 293 293 297 298 298 298 296 297 296 295 294 296 295 294 297 297 295 293 299 300 300 300 300 299 298 298 298 299 299 299 298 299 300 300 300 298 299
297 297 295 293 297 297 297 298 298 298 299 298 298 296 296 292 293 295 295 298 298 295 296 294 299 300 300 299 299 297 296 297 296 297 299 297 296 297 297 298 298 299 299 299
297 296 296 297 296 296 297 297 298 298 298 298 297 291 290 292 292 297 299 298 298 296 291 299 299 298 298 296 297 297 297 296 297 298 298 298 297 296 296 297 297 298 298 298
294 294 295 296 296 297 297 297 298 298 297 295 295 294 294 291 294 294 293 293 292 298 298 297 297 297 297 298 298 298 296 296 296 297 297 297 296 296 296 296 297 299 300 299

GFSNW_850_thetae_120.txt.gz
Theta_e
303 303 304 305 307 307 308 311 305 310 309 307 302 301 308 309 309 309 309 309 309 310 308 310 310 309 310 310 310 311 309 306 307 310 309 308 308 309 307 306 307 306 306 308
304 303 304 304 307 307 307 311 311 310 310 303 300 307 309 309 309 308 310 310 310 309 310 310 310 310 310 311 310 309 308 307 304 307 307 308 310 308 306 304 304 307 306 305
302 304 303 304 306 308 309 310 303 309 310 307 306 308 309 309 309 308 308 309 308 308 309 308 309 310 310 310 310 309 307 305 306 304 306 307 311 308 306 307 303 306 306 305
301 303 304 303 305 309 311 308 305 307 302 305 305 306 308 309 309 308 308 307 307 308 309 308 310 309 309 309 310 308 304 305 304 304 304 306 308 308 307 307 308 308 306 304
301 301 304 304 304 307 309 308 307 306 305 306 306 304 308 308 308 307 307 307 307 306 308 307 307 307 307 307 308 308 303 305 304 301 304 303 305 305 305 306 308 308 309 310
305 302 302 304 303 304 306 307 308 306 303 303 303 303 306 307 308 307 307 307 306 307 307 306 306 306 305 306 306 305 305 304 302 303 302 302 302 302 304 305 304 307 308 308
308 305 302 302 303 303 304 306 308 308 302 301 303 304 306 306 307 307 308 307 306 306 307 306 305 305 304 304 304 303 302 302 300 301 301 299 301 300 302 303 303 304 305 305
311 308 305 302 303 303 303 304 305 306 300 301 303 305 305 305 305 305 305 306 306 307 305 301 301 300 305 304 301 302 301 302 301 301 301 301 302 302 302 304 303 301 303 303
310 310 308 305 303 302 303 303 303 304 302 298 304 304 304 301 300 301 305 306 306 305 300 301 302 300 302 305 304 300 300 300 302 302 305 303 300 302 303 302 300 300 302 301
309 310 310 308 307 305 303 303 303 303 303 303 304 302 302 304 301 299 301 304 305 304 300 302 301 300 300 302 304 304 303 302 304 304 305 303 301 303 304 303 301 302 303 304
308 309 310 310 309 308 307 306 304 303 303 303 305 305 305 305 304 299 302 301 301 300 302 301 300 300 299 301 299 301 303 302 303 304 305 303 302 302 305 300 303 304 304 303
306 308 308 309 309 309 309 308 307 306 304 303 303 304 305 304 304 304 303 301 302 303 299 298 297 301 296 298 300 297 301 301 302 302 303 302 304 304 305 304 303 303 303 304
305 305 306 307 307 308 308 308 307 305 303 303 303 303 303 304 304 305 304 303 304 304 304 300 298 302 297 300 298 299 298 299 300 301 301 301 302 302 302 303 303 303 303 304
305 304 303 303 305 306 307 307 306 304 304 302 302 303 303 303 303 303 304 303 304 305 305 303 299 301 300 298 298 297 299 298 298 298 299 303 303 304 303 301 301 301 302 302
305 304 303 303 302 306 307 307 303 304 304 303 303 302 302 302 302 303 303 302 303 303 303 301 302 301 300 298 298 299 299 299 299 300 300 301 302 303 301 299 300 302 301 301
305 304 302 301 301 305 306 304 301 302 305 304 298 300 300 300 300 300 301 301 301 302 303 302 302 301 301 300 301 302 303 303 302 302 302 301 301 300 299 297 297 301 302 302
304 303 301 300 300 304 303 305 304 305 305 304 300 299 300 300 300 300 300 300 301 302 302 301 301 302 303 300 302 303 302 303 302 301 299 298 299 298 298 298 298 299 300 302
301 300 299 299 303 300 301 303 304 304 303 302 292 294 299 299 299 299 299 300 300 300 300 300 300 300 300 301 302 304 303 300 300 298 297 297 297 298 298 299 299 299 299 299
300 299 299 302 301 301 301 301 301 301 301 300 297 296 294 299 299 299 299 299 296 298 298 298 298 298 300 301 302 302 301 298 298 300 299 299 300 300 300 299 299 299 300 300
299 299 300 300 302 302 302 300 299 299 299 299 298 298 297 298 298 297 298 297 295 292 297 298 297 298 300 301 302 300 298 299 299 299 300 300 300 300 300 300 300 298 299 300
300 299 301 301 302 301 300 299 298 298 298 298 297 297 295 298 295 296 298 293 297 300 294 299 297 298 299 300 298 299 300 300 299 300 300 300 299 300 299 299 300 300 300 299
299 300 301 301 300 299 297 294 297 298 299 297 296 297 298 298 298 298 296 295 297 299 294 299 298 295 300 300 300 300 299 298 297 297 297 298 298 298 298 298 297 298 299 299
300 300 299 298 297 298 296 293 298 298 298 297 297 295 297 297 297 295 294 297 297 293 296 296 294 297 299 299 299 299 297 296 296 297 296 296 297 298 297 296 296 296 297 297
299 298 296 294 294 292 292 292 292 296 297 297 297 296 296 296 294 294 296 295 294 297 298 295 291 298 299 298 298 297 297 297 297 297 297 297 297 297 298 297 296 296 295 296
298 297 296 291 296 297 297 297 298 298 297 297 297 295 295 292 293 296 296 297 299 297 295 292 297 297 297 297 297 297 297 296 295 295 294 295 296 296 297 297 296 295 295 296
296 296 294 296 295 295 296 296 297 298 297 297 297 291 289 292 295 297 298 299 297 294 292 297 296 296 296 295 294 293 293 293 294 294 294 294 295 295 295 295 295 295 296 298
295 294 295 295 295 296 297 297 297 298 297 295 294 292 294 291 295 295 292 294 293 297 297 296 296 296 295 293 292 292 292 293 293 294 294 294 293 293 294 294 294 295 298 299

GFSNW_850_thetae_123.txt.gz
Theta_e
303 303 303 304 306 306 307 310 305 310 309 307 301 300 307 308 308 309 308 308 308 308 307 309 309 309 310 309 309 310 308 305 308 310 308 307 308 308 306 308 308 306 307 309
301 303 303 303 305 307 306 310 310 310 309 304 299 306 308 308 308 308 309 310 309 308 309 310 309 310 310 310 309 309 307 307 306 308 307 308 310 307 305 303 304 307 308 307
301 302 304 303 305 308 309 308 303 308 309 306 305 307 308 308 308 307 307 308 308 307 308 306 309 310 309 310 310 308 307 305 306 306 306 307 310 308 305 307 307 306 307 306
303 301 304 304 304 308 310 307 304 305 301 305 305 305 307 308 308 307 307 306 306 307 308 307 308 308 309 308 309 307 303 305 303 304 304 306 308 309 306 307 307 309 306 304
306 303 302 304 303 306 308 308 307 305 304 305 305 303 307 306 307 306 307 306 306 306 306 306 306 306 306 307 307 306 302 304 303 299 304 303 305 304 305 307 308 306 308 309
308 305 303 303 303 304 305 306 307 306 301 301 302 302 305 306 306 307 307 305 304 306 306 306 305 305 305 305 305 304 304 303 302 302 301 302 302 301 304 304 304 307 308 308
310 308 305 303 303 303 304 305 307 307 301 301 302 303 305 306 306 306 307 306 305 305 306 305 305 304 303 304 301 302 302 302 300 301 300 299 300 300 301 304 303 303 304 304
309 310 308 305 303 303 303 303 305 305 300 300 302 304 304 305 305 304 304 305 305 306 304 299 300 299 305 302 298 302 300 301 301 300 301 300 302 302 302 303 303 300 302 302
308 310 309 308 306 304 303 303 303 303 301 298 304 304 304 300 300 300 304 305 306 305 299 300 301 300 302 305 303 299 299 299 301 301 305 303 300 301 303 302 300 300 302 301
308 308 310 309 309 308 306 304 303 303 303 302 304 302 302 303 300 298 301 304 304 303 299 301 300 299 299 303 303 304 303 301 304 304 304 303 300 301 303 302 301 301 302 302
306 307 308 309 309 309 308 307 307 306 304 303 304 304 304 304 303 298 301 301 301 300 301 300 300 300 298 299 298 301 302 302 302 303 305 303 302 302 304 300 303 303 303 303
306 306 307 307 307 307 308 308 307 306 305 303 303 304 304 304 304 303 303 300 301 302 298 298 297 300 296 297 300 297 301 301 302 302 302 301 303 304 303 302 302 301 300 301
306 305 305 305 306 306 306 306 306 304 303 303 303 303 303 304 304 304 304 303 303 303 304 299 298 301 297 299 298 298 297 298 300 300 299 301 303 301 302 301 300 299 299 301
305 305 305 304 303 304 306 306 306 304 304 302 302 302 303 303 303 303 304 303 304 304 304 302 299 301 299 298 298 297 298 297 298 298 299 303 301 303 302 300 298 298 299 300
305 305 305 305 304 302 305 305 304 304 305 303 302 302 301 302 302 303 302 303 303 304 303 300 301 300 299 298 297 298 298 298 299 300 300 302 302 300 299 298 298 299 298 300
304 305 304 303 302 300 303 305 302 301 305 304 299 300 300 300 300 301 301 301 302 302 303 301 301 301 301 299 301 301 301 301 302 302 302 300 298 298 297 297 298 298 298 298
304 304 304 302 301 301 302 304 304 304 304 304 301 298 300 299 299 300 300 300 301 302 302 300 300 301 302 298 301 302 302 303 301 300 298 298 298 298 298 299 299 299 299 299
303 303 302 301 300 302 301 301 302 303 302 302 291 294 299 299 299 299 299 300 300 300 300 300 299 300 299 300 301 303 302 299 299 298 298 299 299 299 299 299 300 301 300 300
303 301 300 299 301 300 301 301 301 301 300 300 297 297 295 298 298 298 298 299 295 298 297 297 298 297 299 299 301 301 299 298 298 299 300 299 299 299 299 299 299 299 299 299
303 301 299 300 299 300 301 300 300 299 300 299 298 298 297 298 297 296 297 297 296 293 297 297 297 298 299 301 302 300 298 299 299 299 298 297 297 298 298 298 297 297 297 297
299 300 299 300 301 301 300 300 297 297 297 298 297 297 296 297 295 296 297 294 295 300 295 299 299 299 298 299 298 299 299 298 297 296 296 296 296 297 297 297 297 297 297 297
301 299 301 301 300 299 295 292 296 297 296 297 296 296 297 297 297 298 296 295 297 299 294 298 298 295 299 298 298 298 297 297 297 298 297 297 296 295 296 296 297 297 297 297
299 300 300 298 297 297 296 291 297 298 298 296 296 294 297 296 296 295 295 298 298 293 298 297 294 296 298 298 297 297 297 297 297 296 294 293 293 293 294 294 294 295 296 296
298 299 297 295 295 291 292 291 291 296 296 296 297 295 295 295 294 294 293 295 294 297 297 294 292 297 297 297 296 296 295 294 294 293 293 293 293 294 294 293 293 294 294 294
297 297 297 295 294 295 296 297 298 297 297 297 296 295 295 293 294 295 296 296 298 297 294 292 296 296 296 296 295 293 292 292 292 292 292 292 292 293 294 293 293 293 293 293
296 295 294 294 294 294 295 296 296 297 297 296 296 291 291 293 296 297 297 297 296 293 290 297 296 295 295 295 293 292 292 292 292 291 292 291 292 293 293 293 293 293 293 293
295 294 295 295 295 296 296 296 296 297 297 296 295 295 295 290 294 294 291 294 292 296 297 297 295 295 294 293 292 292 292 291 291 291 291 291 291 291 292 293 293 293 293 293

GFSNW_850_thetae_126.txt.gz
Theta_e
301 303 303 303 305 307 307 310 316 309 308 313 308 312 309 308 309 308 309 310 310 311 310 312 311 312 312 310 311 314 311 313 315 313 310 310 312 313 312 315 315 313 314 315
301 302 304 303 305 307 308 310 310 309 309 316 313 309 309 309 310 309 310 311 311 310 311 313 312 313 310 310 311 313 311 312 315 314 312 311 313 312 311 310 311 314 314 313
304 302 304 303 305 308 309 307 316 309 309 307 310 311 310 310 308 308 307 309 309 310 311 310 312 313 311 310 311 308 309 311 313 313 312 313 314 313 311 312 315 314 313 313
306 304 302 304 304 307 308 306 309 306 312 310 308 308 309 310 310 308 307 309 309 309 311 310 311 311 311 310 309 308 309 311 308 308 308 309 311 313 312 312 313 313 311 310
308 306 303 303 303 305 306 307 308 305 305 305 307 306 309 308 309 308 308 309 308 308 309 308 310 310 311 310 310 309 307 309 307 307 306 306 307 308 310 312 312 312 312 312
310 308 305 303 303 303 304 306 307 306 302 306 307 307 308 308 307 307 307 307 307 308 307 306 305 305 306 308 310 309 309 309 308 308 305 306 307 307 307 308 309 310 310 310
309 309 308 305 303 303 303 305 307 308 307 306 307 304 306 307 307 308 307 306 306 305 305 305 304 304 305 306 305 305 308 308 307 310 307 308 303 303 305 307 307 308 308 308
308 310 309 308 306 304 303 303 304 305 306 303 304 304 305 305 304 305 305 305 305 306 304 304 305 306 307 305 303 305 304 308 308 309 308 307 304 303 305 307 304 305 306 306
308 308 310 309 309 307 304 303 303 303 303 303 304 305 304 306 305 305 304 305 305 304 303 304 304 305 306 308 306 303 304 305 307 306 308 306 304 303 303 304 306 302 304 304
307 308 308 310 309 309 308 306 307 304 303 302 303 305 305 303 302 303 303 304 304 303 305 305 304 305 302 307 307 308 308 307 309 309 310 308 305 303 302 306 304 302 302 303
306 307 307 308 308 308 308 307 307 306 305 303 303 303 303 303 302 304 301 305 303 303 305 304 305 305 303 303 303 307 307 308 308 308 309 310 303 303 306 303 303 303 302 301
306 306 306 306 307 306 306 307 306 306 305 304 303 304 304 304 304 303 303 301 302 304 304 303 302 304 301 304 306 300 305 306 307 308 308 303 302 303 302 303 301 301 299 298
306 306 306 305 304 304 305 305 306 305 303 303 303 302 303 304 304 303 304 302 303 303 303 302 303 305 303 305 304 301 301 300 305 303 303 303 303 301 302 300 299 298 298 298
306 306 306 306 305 305 304 305 305 304 304 304 302 302 303 303 303 303 304 303 303 304 303 303 304 304 300 303 302 302 301 300 303 303 302 301 300 302 299 299 298 298 298 298
306 306 306 306 306 304 302 303 304 304 305 304 302 302 302 302 302 302 302 303 303 304 304 304 305 302 301 300 301 303 299 302 303 305 302 304 304 299 298 298 298 299 299 299
305 304 304 305 305 302 302 304 302 302 305 303 305 300 300 300 301 301 301 302 302 303 303 303 302 301 303 304 305 303 301 301 301 303 303 301 298 298 299 300 299 299 299 299
304 303 304 304 303 301 302 303 303 304 301 304 303 301 299 299 299 300 300 300 301 301 302 301 301 301 302 303 305 303 302 301 302 301 298 298 298 298 298 298 298 298 298 299
304 303 302 302 302 301 302 301 301 301 302 302 302 302 299 299 299 299 299 300 300 300 300 300 301 300 300 303 302 301 302 300 299 298 298 299 299 298 298 298 298 298 297 297
303 301 301 300 301 301 301 300 301 301 301 301 299 304 304 298 298 298 298 299 300 298 300 299 299 301 303 303 302 301 301 299 299 299 299 297 297 297 297 297 297 297 297 297
302 301 301 301 301 300 300 300 300 300 300 299 299 298 300 298 297 297 298 297 299 301 299 297 299 301 300 301 301 300 298 298 299 296 296 296 297 297 296 296 296 296 297 297
301 301 300 300 300 301 300 299 298 297 298 297 298 298 299 296 300 300 297 299 299 301 300 300 300 301 299 299 301 300 298 297 296 297 297 296 295 294 294 293 293 294 294 294
303 301 300 300 300 299 298 297 296 297 299 296 297 296 297 296 297 299 297 299 297 301 297 299 300 300 298 296 297 297 297 297 297 297 294 293 292 293 293 293 293 293 293 293
301 299 300 299 297 298 298 296 297 299 297 295 295 297 297 296 296 296 298 299 299 294 297 299 299 296 297 297 297 297 296 295 293 293 293 292 292 292 292 292 292 293 293 293
299 298 297 299 298 298 297 295 296 296 297 296 297 294 296 295 296 296 297 297 295 297 298 299 297 297 297 296 295 295 293 292 292 292 291 291 291 291 291 291 291 291 291 292
297 297 299 297 295 294 295 295 297 297 296 297 296 295 295 295 296 296 297 296 298 298 299 298 295 296 296 295 294 293 292 292 292 291 291 291 291 291 291 290 290 290 291 291
296 295 295 294 295 294 295 296 297 297 296 297 297 294 297 298 298 298 298 298 298 299 297 296 296 296 296 294 293 292 292 291 291 291 291 291 291 291 291 290 290 291 291 292
294 294 295 295 296 295 295 296 296 296 297 298 296 297 297 293 296 297 297 298 298 296 296 296 296 295 294 292 292 292 291 291 291 291 291 291 291 291 291 290 290 291 291 292

GFSNW_850_thetae_129.txt.gz
Theta_e
301 302 304 303 306 307 307 310 318 309 309 315 314 316 313 310 311 311 312 312 312 312 312 313 312 313 314 312 313 314 313 315 315 315 313 312 314 315 314 316 317 315 316 317
304 302 304 303 306 308 309 313 312 309 310 318 315 311 311 311 312 312 312 313 312 312 313 314 313 314 312 312 313 314 313 315 316 314 314 313 314 314 314 313 314 317 317 315
306 304 303 303 306 308 308 311 319 313 312 311 313 313 313 312 310 311 310 312 312 312 313 313 314 313 313 312 312 308 311 314 316 316 316 315 314 315 313 313 317 316 315 313
308 306 303 303 304 306 308 309 312 308 314 312 311 311 311 311 312 310 310 311 311 311 312 312 314 313 313 312 310 311 312 313 310 311 310 311 314 315 314 314 315 315 313 312
309 308 306 303 303 304 306 312 311 307 310 309 310 308 310 310 310 310 310 311 310 310 310 310 312 312 314 313 312 312 310 312 309 310 307 307 308 309 313 314 313 313 313 313
309 309 308 305 303 303 306 306 307 308 307 310 310 310 310 310 310 309 309 309 309 309 309 308 308 308 309 310 311 311 310 310 310 310 306 307 308 308 308 309 311 311 312 311
309 309 309 307 304 303 303 304 306 310 310 309 309 307 309 309 309 310 308 308 308 307 306 307 307 307 308 309 308 309 310 309 309 312 308 310 305 306 307 308 308 309 309 309
308 308 310 309 308 305 303 303 304 308 309 307 307 307 308 308 307 307 308 307 306 306 306 306 307 308 307 307 306 308 308 309 310 312 310 310 306 304 306 308 306 307 308 308
308 308 308 310 309 308 305 305 304 303 307 307 306 307 307 309 308 307 306 305 305 305 307 306 306 307 308 310 308 305 307 308 309 308 309 309 308 306 305 306 307 305 305 305
307 307 307 308 309 309 308 307 307 305 307 303 305 308 308 306 305 307 306 306 305 304 308 307 306 307 305 309 309 309 308 308 309 310 311 311 305 305 305 307 306 304 305 305
307 307 307 307 307 307 307 307 307 306 307 305 303 303 305 304 305 307 305 307 306 306 308 307 307 306 306 306 307 309 310 310 310 310 311 312 305 304 307 306 305 304 303 302
308 306 306 306 306 306 306 306 306 306 305 305 303 303 303 304 304 304 304 305 305 307 307 306 306 307 305 307 309 304 308 309 310 310 311 305 305 304 303 303 302 302 300 300
309 307 306 306 305 304 304 305 305 305 303 304 303 303 303 304 304 303 306 304 303 304 303 306 307 307 306 308 307 305 304 304 306 306 307 306 305 303 302 300 300 299 299 299
309 307 306 306 305 305 304 304 305 304 304 307 305 302 303 303 303 304 303 303 303 303 303 306 307 306 303 306 304 304 304 303 305 306 304 303 302 303 300 299 298 299 299 299
309 307 306 306 305 305 304 303 303 304 304 308 304 302 302 302 303 303 303 303 303 305 306 307 307 305 303 303 303 304 302 304 305 307 305 306 303 300 298 299 299 298 298 299
309 307 305 305 305 304 302 303 302 303 304 303 307 301 300 300 301 301 302 302 303 304 305 306 305 302 304 306 307 307 304 301 302 304 303 302 300 298 299 299 299 299 298 298
308 308 304 303 303 303 302 304 303 302 303 303 306 303 299 300 300 300 300 301 302 303 304 304 304 304 303 306 307 306 304 302 301 302 301 299 299 299 299 299 298 297 297 297
309 306 303 302 302 302 302 303 302 301 301 302 306 304 300 299 300 300 300 301 301 301 303 301 303 302 303 305 306 304 303 302 301 298 298 299 299 298 297 297 297 297 297 297
308 304 302 302 302 301 302 303 301 300 301 304 302 306 308 298 299 299 299 300 302 300 302 302 301 304 304 305 305 303 302 300 299 298 298 297 296 297 297 296 295 294 294 294
307 302 302 301 302 302 301 301 300 300 300 299 302 300 302 300 300 300 301 300 303 304 302 299 300 303 303 302 302 303 301 298 298 297 296 297 296 295 294 294 293 293 293 293
302 302 301 301 300 300 300 300 300 300 300 299 300 299 300 297 302 303 300 302 302 304 302 301 302 302 301 300 301 299 298 298 296 297 297 294 293 293 293 292 292 292 292 292
301 302 300 299 300 299 300 301 298 298 301 298 298 298 299 297 298 301 298 302 299 303 299 300 301 302 298 298 299 298 296 297 297 296 294 293 292 292 292 292 291 291 291 291
301 301 299 300 298 301 302 301 299 300 298 296 295 297 297 297 297 299 300 300 301 297 299 300 302 299 296 296 296 296 296 295 293 293 292 292 291 291 291 291 291 291 290 290
301 299 299 302 300 301 302 301 301 298 298 296 298 296 298 297 298 299 300 299 297 298 300 301 301 298 297 296 296 294 294 292 292 292 292 292 291 291 291 291 291 291 290 290
299 298 302 300 299 296 296 295 296 296 296 297 297 296 297 297 298 298 298 297 299 299 301 301 299 297 296 295 294 293 292 292 292 291 291 291 291 291 291 291 291 291 290 290
297 297 298 297 298 295 295 297 296 297 297 298 297 297 300 300 300 299 299 300 301 301 300 298 296 295 295 294 293 292 291 291 291 291 291 291 291 291 291 291 291 291 290 290
295 296 295 296 298 297 297 297 297 297 297 300 298 300 301 296 299 299 298 299 301 298 296 296 296 294 292 291 291 291 291 291 291 291 291 291 291 291 291 291 290 290 290 291